Date StartTime U_cm/s V_cm/s W_cm/s Ustd_cm/s Vstd_cm/s Wstd_cm/s Uvar_(cm/s)^2 Vvar_(cm/s)^2 Wvar_(cm/s)^2 KE_(m/s)^2 TurbulentKE_(m/s)^2 HorizWindSpeed_cm/s FrictionSpeec_cm/s DragCoef SpeedOfSound_m/s SonicTemperature_C Pressure_mb 
09/13/2013  00:00:00      -54.914      -33.090        3.041       44.333       31.909       20.398     1965.389     1018.209      416.072        0.376        0.170       64.113       18.340        0.082      343.554       19.746      861.756
09/13/2013  00:01:00      -38.011     -102.241      -12.356       56.122       54.666       25.992     3149.636     2988.356      675.580        0.943        0.341      109.078       21.388        0.038      343.546       19.733      861.702
09/13/2013  00:02:00      -59.849      -83.031        7.947       46.173       40.777       27.465     2131.908     1662.804      754.310        0.754        0.227      102.353       29.556        0.083      343.576       19.784      861.684
09/13/2013  00:03:00      -50.693      -62.876        0.816       39.890       31.700       21.295     1591.195     1004.921      453.489        0.479        0.152       80.766       20.344        0.063      343.690       19.978      861.687
09/13/2013  00:04:00      -85.805      -26.200      -13.192       29.120       31.713       18.994      847.998     1005.696      360.769        0.522        0.111       89.716       14.036        0.024      343.678       19.958      861.720
09/13/2013  00:05:00      -40.007      -55.197       -8.341       48.952       24.831       21.410     2396.343      616.557      458.394        0.409        0.174       68.171       14.430        0.045      343.664       19.933      861.759
09/13/2013  00:06:00      -32.800      -17.844       -9.177       27.670       25.893       14.941      765.629      670.469      223.242        0.157        0.083       37.340       10.925        0.086      343.604       19.832      861.773
09/13/2013  00:07:00      -60.674      -51.808       -4.074       24.898       28.096       10.790      619.912      789.391      116.426        0.395        0.076       79.783        9.450        0.014      343.595       19.814      861.756
09/13/2013  00:08:00      -54.058      -37.316        1.683       32.497       28.760       17.516     1056.087      827.159      306.813        0.325        0.110       65.687       12.758        0.038      343.525       19.697      861.712
09/13/2013  00:09:00      -72.754      -58.394        3.438       37.704       26.146       22.129     1421.563      683.635      489.672        0.565        0.130       93.290       23.017        0.061      343.517       19.684      861.669
09/13/2013  00:10:00      -98.560      -85.035       -9.372       22.462       30.338       20.076      504.556      920.419      403.038        0.943        0.091      130.173        7.803        0.004      343.604       19.832      861.630
09/13/2013  00:11:00      -66.216      -48.328       -0.536       27.655       31.475       20.787      764.824      990.650      432.103        0.445        0.109       81.977       17.250        0.044      343.521       19.691      861.621
09/13/2013  00:12:00      -81.046      -64.017      -11.570       29.597       40.209       19.082      875.985     1616.784      364.125        0.683        0.143      103.279       20.843        0.041      343.537       19.720      861.620
09/13/2013  00:13:00      -50.078      -75.649        6.208       35.788       43.031       24.752     1280.801     1851.648      612.644        0.601        0.187       90.722       24.005        0.070      343.527       19.701      861.622
09/13/2013  00:14:00      -67.558     -117.981        0.387       40.716       55.647       27.553     1657.754     3096.538      759.165        1.200        0.276      135.954       28.249        0.043      343.531       19.709      861.628
09/13/2013  00:15:00      -45.235     -104.657        3.076       34.433       47.084       22.387     1185.651     2216.925      501.192        0.846        0.195      114.014       11.030        0.009      343.557       19.752      861.634
09/13/2013  00:16:00      -30.828      -55.129       -4.103       52.064       28.848       21.645     2710.637      832.216      468.490        0.401        0.201       63.163       22.830        0.131      343.538       19.720      861.621
09/13/2013  00:17:00      -27.897      -10.681        7.114       47.779       27.904       23.899     2282.807      778.659      571.178        0.229        0.182       29.872       17.171        0.330      343.503       19.661      861.592
09/13/2013  00:18:00      -35.546      -34.874       13.995       43.127       28.510       23.459     1859.923      812.797      550.316        0.295        0.161       49.796       17.440        0.123      343.383       19.457      861.573
09/13/2013  00:19:00      -38.529      -48.917        3.332       42.079       27.418       19.787     1770.678      751.730      391.533        0.340        0.146       62.269       17.835        0.082      343.426       19.528      861.560
09/13/2013  00:20:00      -71.035     -107.728       -3.973       49.659       58.518       29.415     2466.032     3424.349      865.253        1.171        0.338      129.040       19.066        0.022      343.444       19.558      861.540
09/13/2013  00:21:00      -55.728     -109.429       19.104       54.274       61.344       37.958     2945.636     3763.044     1440.847        1.180        0.407      122.802       39.761        0.105      343.421       19.520      861.523
09/13/2013  00:22:00      -42.955      -63.337       14.770       54.993       52.146       38.126     3024.226     2719.203     1453.622        0.663        0.360       76.529       33.388        0.190      343.449       19.568      861.521
09/13/2013  00:23:00      -70.355      -95.677        2.624       63.322       56.237       39.718     4009.711     3162.588     1577.500        1.143        0.437      118.760       38.732        0.106      343.389       19.464      861.530
09/13/2013  00:24:00      -58.617     -104.708      -10.440       67.200       62.999       37.835     4515.781     3968.915     1431.465        1.221        0.496      119.999       32.613        0.074      343.404       19.490      861.535
09/13/2013  00:25:00      -40.357      -57.914        8.058       50.019       50.903       24.525     2501.869     2591.141      601.500        0.537        0.285       70.589       27.309        0.150      343.340       19.383      861.543
09/13/2013  00:26:00      -58.414      -97.918        7.212       49.678       37.099       33.834     2467.871     1376.332     1144.719        0.902        0.249      114.018       27.249        0.057      343.354       19.405      861.537
09/13/2013  00:27:00      -68.551      -73.421        0.686       47.155       45.859       30.805     2223.575     2103.078      948.920        0.768        0.264      100.448       24.026        0.057      343.298       19.311      861.525
09/13/2013  00:28:00      -44.348      -75.415        3.900       42.429       34.524       26.702     1800.212     1191.881      713.004        0.569        0.185       87.488       19.672        0.051      343.306       19.325      861.511
09/13/2013  00:29:00     -100.288      -74.950       -1.083       48.392       49.497       32.100     2341.832     2449.915     1030.429        1.075        0.291      125.201       18.982        0.023      343.267       19.258      861.493
09/13/2013  00:30:00     -145.355     -119.296       -3.999       60.947       68.346       35.357     3714.518     4671.182     1250.121        2.250        0.482      188.041       19.251        0.010      343.287       19.290      861.482
09/13/2013  00:31:00     -178.298     -157.969       -8.818       86.592       56.770       43.273     7498.237     3222.864     1872.564        3.471        0.630      238.211       37.708        0.025      343.340       19.379      861.474
09/13/2013  00:32:00     -145.284     -157.214       -2.168       88.199       59.480       41.904     7779.027     3537.824     1755.967        2.945        0.654      214.065       41.006        0.037      343.374       19.436      861.471
09/13/2013  00:33:00     -162.026     -144.823       -3.300       56.824       58.876       38.688     3228.984     3466.365     1496.723        2.771        0.410      217.316       33.097        0.023      343.365       19.423      861.466
09/13/2013  00:34:00     -128.994      -94.319       -2.829       62.622       53.113       40.131     3921.498     2821.036     1610.495        1.695        0.418      159.799       33.212        0.043      343.312       19.333      861.451
09/13/2013  00:35:00     -167.272     -134.619       -8.601       72.176       48.585       47.395     5209.330     2360.454     2246.289        2.799        0.491      214.714       48.530        0.051      343.294       19.300      861.440
09/13/2013  00:36:00     -102.483      -91.548        5.334       56.586       47.393       33.342     3201.938     2246.125     1111.700        1.273        0.328      137.418       36.774        0.072      343.272       19.265      861.439
09/13/2013  00:37:00     -115.063      -76.714       -1.090       48.032       42.571       24.811     2307.089     1812.326      615.596        1.193        0.237      138.291       24.356        0.031      343.286       19.291      861.439
09/13/2013  00:38:00      -82.589      -81.035        6.643       56.495       40.828       25.736     3191.730     1666.921      662.323        0.948        0.276      115.705       24.401        0.044      343.274       19.270      861.440
09/13/2013  00:39:00     -130.177      -84.585        4.650       50.457       46.107       29.243     2545.872     2125.850      855.170        1.482        0.276      155.244       18.992        0.015      343.240       19.211      861.436
09/13/2013  00:40:00      -76.170      -59.575       -5.606       40.678       41.594       19.754     1654.679     1730.101      390.212        0.658        0.189       96.700       24.335        0.063      343.214       19.169      861.425
09/13/2013  00:41:00     -111.206      -62.966       -0.374       60.024       44.750       29.504     3602.851     2002.528      870.497        1.140        0.324      127.795       27.997        0.048      343.262       19.251      861.415
09/13/2013  00:42:00      -87.646      -51.164       -3.645       50.266       29.774       21.019     2526.658      886.520      441.813        0.708        0.193      101.487       19.434        0.037      343.298       19.308      861.414
09/13/2013  00:43:00      -72.206      -86.210        1.052       57.811       41.470       26.306     3342.056     1719.725      691.995        0.920        0.288      112.454       29.984        0.071      343.296       19.308      861.404
09/13/2013  00:44:00      -90.791      -39.716       -3.811       39.215       35.896       21.928     1537.797     1288.514      480.817        0.657        0.165       99.098       20.555        0.043      343.279       19.278      861.397
09/13/2013  00:45:00     -126.645      -43.041       -3.658       49.691       30.767       24.538     2469.217      946.637      602.127        1.096        0.201      133.759       26.467        0.039      343.225       19.186      861.394
09/13/2013  00:46:00     -158.576      -55.545       -2.204       33.439       32.684       24.409     1118.168     1068.271      595.817        1.551        0.139      168.022       23.722        0.020      343.202       19.147      861.383
09/13/2013  00:47:00     -145.973      -66.853       -3.477       35.344       42.139       24.387     1249.165     1775.716      594.745        1.470        0.181      160.553       22.456        0.020      343.239       19.210      861.363
09/13/2013  00:48:00      -69.254      -42.550        4.038       39.267       29.170       16.440     1541.928      850.861      270.272        0.464        0.133       81.281       11.891        0.021      343.205       19.153      861.347
09/13/2013  00:49:00      -96.324      -11.993       -2.308       40.368       19.517       16.631     1629.563      380.898      276.588        0.586        0.114       97.068       19.519        0.040      343.079       18.937      861.340
09/13/2013  00:50:00     -103.948      -12.642      -11.382       22.515       17.196       13.420      506.917      295.715      180.094        0.604        0.049      104.713        7.889        0.006      342.936       18.695      861.341
09/13/2013  00:51:00     -131.708      -45.285       -5.540       25.455       24.811       15.543      647.949      615.575      241.588        1.047        0.075      139.276       10.444        0.006      342.958       18.731      861.340
09/13/2013  00:52:00     -118.316      -51.914        6.918       43.404       27.118       20.082     1883.917      735.409      403.273        0.988        0.151      129.205       19.156        0.022      342.979       18.769      861.334
09/13/2013  00:53:00     -203.625      -64.578        0.869       35.170       23.948       22.024     1236.947      573.501      485.078        2.396        0.115      213.620       17.945        0.007      343.102       18.976      861.324
09/13/2013  00:54:00     -170.101      -68.868        4.023       70.802       51.997       28.716     5012.977     2703.647      824.636        2.112        0.427      183.513       28.251        0.024      343.061       18.904      861.323
09/13/2013  00:55:00     -163.911     -108.892       -2.988       68.005       46.544       32.404     4624.621     2166.340     1050.036        2.329        0.392      196.785       33.212        0.028      343.063       18.907      861.317
09/13/2013  00:56:00     -158.837      -83.705        4.821       59.943       42.673       28.892     3593.205     1820.998      834.772        1.925        0.312      179.543       27.769        0.024      343.031       18.854      861.335
09/13/2013  00:57:00     -141.141      -65.871        4.823       55.108       45.666       30.021     3036.849     2085.345      901.283        1.515        0.301      155.755       26.928        0.030      342.986       18.781      861.339
09/13/2013  00:58:00     -161.479      -80.865       -3.571       67.291       41.324       30.073     4528.029     1707.702      904.367        1.988        0.357      180.595       30.609        0.029      342.925       18.674      861.335
09/13/2013  00:59:00     -137.696      -72.642        2.536       49.418       41.037       31.823     2442.177     1684.072     1012.685        1.469        0.257      155.683       25.036        0.026      342.843       18.537      861.320
09/13/2013  01:00:00     -169.376      -58.524       -2.088       76.447       46.801       31.090     5844.183     2190.378      966.609        2.056        0.450      179.202       33.789        0.036      342.729       18.340      861.310
09/13/2013  01:01:00     -144.927      -74.096        4.795       62.847       52.184       29.840     3949.781     2723.150      890.452        1.704        0.378      162.770       32.600        0.040      342.721       18.325      861.299
09/13/2013  01:02:00      -92.223      -24.746        1.867       52.039       34.672       26.435     2708.078     1202.159      698.784        0.686        0.230       95.485       24.699        0.067      342.706       18.303      861.297
09/13/2013  01:03:00     -117.700      -15.494       -3.925       38.642       32.840       23.222     1493.177     1078.450      539.262        0.861        0.156      118.716       22.978        0.037      342.719       18.324      861.311
09/13/2013  01:04:00     -109.367        6.097       -3.827       35.432       23.754       15.499     1255.449      564.269      240.233        0.704        0.103      109.537       15.468        0.020      342.639       18.187      861.321
09/13/2013  01:05:00      -87.429       14.043       -5.031       21.496       19.022       19.732      462.067      361.847      389.335        0.454        0.061       88.550       17.344        0.038      342.511       17.973      861.328
09/13/2013  01:06:00      -77.929        9.162       -2.364       27.772       24.785       15.678      771.293      614.274      245.790        0.390        0.082       78.465       13.484        0.030      342.480       17.919      861.322
09/13/2013  01:07:00      -57.598       -5.876        1.035       22.894       22.833       17.982      524.123      521.363      323.337        0.236        0.068       57.897       16.494        0.081      342.462       17.888      861.323
09/13/2013  01:08:00     -119.029       22.366       -6.157       35.695       28.892       19.113     1274.103      834.729      365.317        0.859        0.124      121.112       18.684        0.024      342.564       18.062      861.332
09/13/2013  01:09:00      -77.373      -15.597       -3.495       33.012       18.604       15.492     1089.806      346.120      239.990        0.396        0.084       78.929       16.764        0.045      342.560       18.056      861.352
09/13/2013  01:10:00     -124.645        7.045      -14.857       34.890       26.601       17.355     1217.309      707.612      301.206        0.902        0.111      124.844       13.746        0.012      342.558       18.052      861.367
09/13/2013  01:11:00      -88.161       38.051       -0.219       38.409       25.406       17.667     1475.289      645.444      312.109        0.583        0.122       96.022       17.229        0.032      342.463       17.889      861.378
09/13/2013  01:12:00     -105.605       19.307      -11.984       22.171       49.852       16.938      491.537     2485.266      286.882        0.747        0.163      107.356       11.508        0.011      342.453       17.873      861.387
09/13/2013  01:13:00     -132.201      -72.157        1.163       53.426       43.624       30.138     2854.310     1903.039      908.321        1.417        0.283      150.612       24.218        0.026      342.419       17.816      861.400
09/13/2013  01:14:00     -128.238       -3.480      -14.634       56.275       35.064       26.006     3166.909     1229.515      676.313        1.087        0.254      128.285       27.094        0.045      342.334       17.670      861.407
09/13/2013  01:15:00      -98.929       -9.878       -3.629       47.858       19.137       21.040     2290.375      366.241      442.687        0.650        0.155       99.421       25.188        0.064      342.257       17.541      861.411
09/13/2013  01:16:00      -89.610      -12.682       -1.406       33.366       21.388       17.947     1113.309      457.446      322.080        0.504        0.095       90.503       16.382        0.033      342.243       17.516      861.409
09/13/2013  01:17:00     -119.662       -3.896       -9.261       44.445       33.999       25.042     1975.367     1155.919      627.126        0.909        0.188      119.725       23.428        0.038      342.191       17.429      861.414
09/13/2013  01:18:00      -64.406        3.434       -2.756       45.163       23.577       19.044     2039.679      555.864      362.676        0.356        0.148       64.497       15.756        0.060      342.140       17.340      861.426
09/13/2013  01:19:00      -41.935       -3.283       -7.099       25.741       13.526        7.045      662.612      182.940       49.627        0.136        0.045       42.063        6.836        0.026      342.180       17.408      861.417
09/13/2013  01:20:00      -79.384      -14.107      -14.407       26.007       21.152       12.347      676.350      447.386      152.453        0.399        0.064       80.628        8.038        0.010      342.291       17.598      861.414
09/13/2013  01:21:00      -86.516       -9.891      -11.455       24.990       23.635       18.771      624.515      558.621      352.349        0.462        0.077       87.080       15.165        0.030      342.287       17.591      861.402
09/13/2013  01:22:00      -73.697      -17.500       -6.581       19.599       20.445       12.851      384.104      418.014      165.153        0.337        0.048       75.746       10.593        0.020      342.234       17.501      861.388
09/13/2013  01:23:00      -87.139      -25.954       -8.732       19.834       23.792       12.662      393.373      566.048      160.327        0.473        0.056       90.922        7.787        0.007      342.239       17.508      861.398
09/13/2013  01:24:00     -110.446      -15.609       -5.216       35.106       35.544       18.946     1232.450     1263.411      358.967        0.766        0.143      111.543       16.985        0.023      342.105       17.282      861.407
09/13/2013  01:25:00     -134.207       36.567      -11.676       38.133       20.477       13.371     1454.094      419.298      178.784        1.077        0.103      139.100       10.147        0.005      342.155       17.368      861.403
09/13/2013  01:26:00        6.042       62.552        4.094       40.738       30.613       21.927     1659.590      937.173      480.813        0.352        0.154       62.843       21.979        0.122      342.399       17.782      861.392
09/13/2013  01:27:00       49.941       49.627        0.226       20.783       30.661       16.917      431.947      940.095      286.182        0.331        0.083       70.406       11.083        0.025      342.490       17.938      861.367
09/13/2013  01:28:00       13.602       58.064       -7.094       24.310       48.565       17.728      590.955     2358.589      314.274        0.343        0.163       59.636       24.233        0.165      342.413       17.806      861.379
09/13/2013  01:29:00      -28.626       84.762      -14.138       28.869       34.115       17.398      833.447     1163.846      302.681        0.525        0.115       89.465       15.713        0.031      342.542       18.024      861.394
09/13/2013  01:30:00      -32.024       38.440       -7.157       24.850       21.284       11.998      617.539      453.024      143.956        0.188        0.061       50.032        7.405        0.022      342.435       17.843      861.399
09/13/2013  01:31:00       16.279       95.008       -2.719       28.361       39.486       22.575      804.356     1559.178      509.640        0.609        0.144       96.393       25.295        0.069      342.701       18.294      861.397
09/13/2013  01:32:00        8.063       49.523       -2.641       25.729       21.864       18.177      661.991      478.041      330.405        0.200        0.074       50.175       14.360        0.082      342.628       18.170      861.402
09/13/2013  01:33:00      -88.093       31.744      -15.227       35.862       23.258        6.926     1286.063      540.952       47.969        0.544        0.094       93.638       10.655        0.013      342.361       17.718      861.431
09/13/2013  01:34:00      -95.286      -17.298       -8.895       12.670       17.165       10.639      160.534      294.626      113.180        0.501        0.028       96.843        4.587        0.002      342.276       17.573      861.442
09/13/2013  01:35:00     -110.248      -33.262      -11.565       14.433       14.135        9.542      208.319      199.788       91.048        0.695        0.025      115.156        8.299        0.005      342.356       17.707      861.445
09/13/2013  01:36:00     -124.939      -35.830       -7.319       14.727       16.343       11.485      216.881      267.082      131.897        0.878        0.031      129.975        7.795        0.004      342.438       17.846      861.447
09/13/2013  01:37:00     -109.346      -45.494      -14.706       23.564       17.040       10.111      555.241      290.366      102.235        0.759        0.047      118.432        8.922        0.006      342.602       18.125      861.459
09/13/2013  01:38:00      -38.197       37.243      -21.441       44.053       43.024       22.738     1940.653     1851.069      517.013        0.381        0.215       53.348       21.255        0.159      342.747       18.373      861.493
09/13/2013  01:39:00       53.899       53.654      -13.074       34.434       29.922       17.025     1185.727      895.336      289.859        0.416        0.119       76.052       12.859        0.029      342.914       18.658      861.520
09/13/2013  01:40:00       64.661       -3.142        4.509       18.201       18.718       14.557      331.282      350.348      211.920        0.255        0.045       64.737        2.830        0.002      342.903       18.639      861.533
09/13/2013  01:41:00       32.707       -5.611        4.879       23.960       18.735       14.875      574.098      351.019      221.267        0.114        0.057       33.185       11.819        0.127      342.904       18.640      861.549
09/13/2013  01:42:00       -1.935       -8.327        4.706       10.380       12.990        8.653      107.749      168.751       74.872        0.022        0.018        8.549        5.626        0.433      342.812       18.484      861.551
09/13/2013  01:43:00      -34.657      -26.316        5.030       26.125       24.197       15.580      682.516      585.482      242.728        0.171        0.076       43.516       10.480        0.058      342.591       18.107      861.548
09/13/2013  01:44:00      -67.834      -48.451        0.718       43.864       32.846       22.303     1924.070     1078.847      497.407        0.522        0.175       83.361       19.911        0.057      342.450       17.869      861.541
09/13/2013  01:45:00      -60.573      -42.844        6.063       26.226       18.251       18.759      687.823      333.113      351.916        0.346        0.069       74.193       19.312        0.068      342.526       17.998      861.536
09/13/2013  01:46:00      -62.398      -42.039       -0.102       27.154       21.585       12.967      737.329      465.917      168.146        0.352        0.069       75.238        7.726        0.011      342.573       18.076      861.537
09/13/2013  01:47:00      -54.424      -23.948        3.321       33.100       19.888       14.403     1095.615      395.552      207.438        0.262        0.085       59.460       16.014        0.073      342.525       17.995      861.541
09/13/2013  01:48:00      -68.419      -31.645        0.871       27.567       18.339       10.774      759.919      336.305      116.081        0.345        0.061       75.383        9.378        0.015      342.467       17.897      861.546
09/13/2013  01:49:00      -17.456      -39.083       -2.638       25.510       12.934       10.944      650.765      167.279      119.774        0.139        0.047       42.805        8.542        0.040      342.605       18.130      861.543
09/13/2013  01:50:00       16.929       -8.952       -5.306       14.904       14.242       10.858      222.123      202.824      117.892        0.047        0.027       19.150        8.856        0.214      342.575       18.080      861.529
09/13/2013  01:51:00        9.432      -14.102       -4.443       18.907        5.237        4.467      357.482       27.430       19.950        0.036        0.020       16.965        6.260        0.136      342.651       18.211      861.531
09/13/2013  01:52:00      -56.468      -13.473       -6.406       25.304       12.253        9.747      640.276      150.145       95.013        0.215        0.044       58.053       10.117        0.030      342.695       18.283      861.535
09/13/2013  01:53:00     -136.323      -38.986       -4.860       30.625       33.026       14.793      937.860     1090.742      218.831        1.119        0.112      141.788       10.501        0.005      342.416       17.809      861.555
09/13/2013  01:54:00     -132.934      -59.000       -0.387       32.087       26.202       18.632     1029.547      686.530      347.136        1.161        0.103      145.438       20.349        0.020      342.275       17.569      861.568
09/13/2013  01:55:00     -118.148      -40.914       -3.384       29.863       19.420       14.737      891.813      377.119      217.190        0.856        0.074      125.032       12.959        0.011      342.415       17.811      861.575
09/13/2013  01:56:00      -48.290      -39.682       -2.046       26.379       22.251       13.030      695.871      495.102      169.783        0.264        0.068       62.503       11.448        0.034      342.520       17.988      861.573
09/13/2013  01:57:00      -37.536      -23.083        1.640       15.015       11.553        7.544      225.461      133.478       56.915        0.118        0.021       44.066        5.684        0.017      342.481       17.921      861.565
09/13/2013  01:58:00      -71.879      -28.203       -8.235       23.916       14.873       11.754      571.997      221.216      138.146        0.348        0.047       77.213       11.981        0.024      342.475       17.910      861.560
09/13/2013  01:59:00     -127.359      -28.353      -12.643       25.920       20.748       15.822      671.867      430.485      250.338        0.927        0.068      130.477        8.975        0.005      342.347       17.694      861.544
09/13/2013  02:00:00      -93.568      -27.043        2.578       36.638       19.798       16.585     1342.368      391.957      275.059        0.575        0.100       97.398       16.921        0.030      342.252       17.531      861.552
09/13/2013  02:01:00      -53.503      -16.581        3.303       30.202       22.003       14.815      912.141      484.132      219.484        0.238        0.081       56.013       15.995        0.082      342.241       17.512      861.547
09/13/2013  02:02:00      -34.800      -17.700        1.359       15.353       18.611       12.260      235.717      346.384      150.317        0.113        0.037       39.043        9.351        0.057      342.275       17.569      861.548
09/13/2013  02:03:00      -46.641      -13.082       -3.838        8.609       17.610        9.238       74.115      310.115       85.340        0.142        0.023       48.441        6.820        0.020      342.318       17.643      861.556
09/13/2013  02:04:00      -38.267      -23.959       -4.236       12.545       11.239       11.816      157.386      126.326      139.615        0.124        0.021       45.149        7.416        0.027      342.310       17.629      861.558
09/13/2013  02:05:00      -41.012      -33.755       -6.086       15.708       15.633       10.343      246.741      244.401      106.981        0.173        0.030       53.117        5.435        0.010      342.332       17.667      861.562
09/13/2013  02:06:00      -87.137      -48.356      -10.537       34.045       26.114       14.715     1159.064      681.950      216.536        0.605        0.103       99.656        7.261        0.005      342.255       17.534      861.565
09/13/2013  02:07:00     -113.234      -48.171       -6.504       25.165       28.525       16.082      633.297      813.688      258.630        0.844        0.085      123.054       13.964        0.013      342.061       17.208      861.572
09/13/2013  02:08:00      -89.477        0.772       -7.934       45.903       21.188       19.487     2107.098      448.910      379.747        0.550        0.147       89.480       23.842        0.071      342.023       17.142      861.581
09/13/2013  02:09:00      -46.418       -5.795        0.983       34.689       29.392       16.871     1203.346      863.901      284.635        0.227        0.118       46.779       19.670        0.177      341.943       17.006      861.584
09/13/2013  02:10:00      -61.478       14.631       -5.412       37.793       19.614       12.036     1428.309      384.712      144.871        0.299        0.098       63.195       11.713        0.034      342.009       17.119      861.585
09/13/2013  02:11:00      -86.638      -10.765       -5.101       29.358       22.772       14.841      861.902      518.544      220.251        0.462        0.080       87.304       14.551        0.028      342.114       17.295      861.585
09/13/2013  02:12:00      -69.989      -13.141       -8.855       22.407       21.872       13.801      502.069      478.389      190.457        0.316        0.059       71.212       13.808        0.038      342.160       17.377      861.584
09/13/2013  02:13:00      -59.869      -30.167       -4.034       33.284       19.130       13.878     1107.852      365.948      192.598        0.309        0.083       67.039       12.213        0.033      342.121       17.308      861.578
09/13/2013  02:14:00      -95.337       -7.672      -16.826       30.440       21.326       14.416      926.616      454.789      207.811        0.551        0.079       95.646       13.941        0.021      342.062       17.209      861.567
09/13/2013  02:15:00     -111.895       13.609       -8.465       29.413       32.585       16.437      865.134     1061.811      270.167        0.749        0.110      112.720       11.315        0.010      342.022       17.142      861.555
09/13/2013  02:16:00      -76.498       30.285       -9.396       29.209       29.432       17.833      853.187      866.228      318.010        0.445        0.102       82.275        5.883        0.005      342.019       17.136      861.544
09/13/2013  02:17:00      -67.103       36.794      -13.497       21.869       27.365       15.551      478.261      748.843      241.821        0.375        0.073       76.528        9.525        0.015      342.190       17.425      861.532
09/13/2013  02:18:00      -59.454       35.255      -11.375       18.590       17.577       14.649      345.603      308.934      214.591        0.289        0.043       69.121       12.723        0.034      342.496       17.947      861.518
09/13/2013  02:19:00      -50.797       67.497      -13.056       25.569       34.134       14.063      653.772     1165.137      197.768        0.466        0.101       84.476       11.818        0.020      342.726       18.337      861.502
09/13/2013  02:20:00      -75.159        3.565      -16.549       14.610       16.188       13.959      213.450      262.064      194.867        0.330        0.034       75.243        6.984        0.009      342.251       17.530      861.491
09/13/2013  02:21:00     -118.107        3.761      -19.634       28.963       29.899       18.071      838.878      893.948      326.574        0.820        0.103      118.167       10.107        0.007      342.196       17.436      861.492
09/13/2013  02:22:00     -181.713        2.326      -17.393       43.941       29.336       23.134     1930.787      860.577      535.194        1.833        0.166      181.727       17.725        0.010      342.088       17.251      861.490
09/13/2013  02:23:00     -205.724       -8.299      -23.036       37.179       41.995       22.588     1382.263     1763.615      510.228        2.329        0.183      205.892       16.264        0.006      341.940       16.998      861.490
09/13/2013  02:24:00     -197.473       10.014      -23.404       39.366       30.891       19.415     1549.657      954.265      376.952        2.126        0.144      197.727       18.205        0.008      341.903       16.937      861.486
09/13/2013  02:25:00     -186.708       52.824      -10.595       46.480       31.286       23.189     2160.393      978.819      537.733        2.072        0.184      194.037       20.329        0.011      342.033       17.159      861.486
09/13/2013  02:26:00     -179.794       74.485      -17.237       42.558       25.262       23.190     1811.183      638.171      537.795        2.058        0.149      194.612       12.228        0.004      342.389       17.764      861.490
09/13/2013  02:27:00     -109.110       39.347       -7.542       31.032       36.118       17.628      962.983     1304.507      310.761        0.804        0.129      115.988       15.486        0.018      342.259       17.544      861.482
09/13/2013  02:28:00     -130.120       -4.715       -9.535       43.262       50.892       27.792     1871.626     2589.946      772.383        1.114        0.262      130.205       19.933        0.023      342.124       17.314      861.478
09/13/2013  02:29:00     -152.589      -32.357       -2.028       58.022       52.481       31.411     3366.530     2754.203      986.653        1.572        0.355      155.982       33.050        0.045      342.059       17.203      861.477
09/13/2013  02:30:00     -169.532      -60.628      -17.296       36.656       33.752       26.818     1343.654     1139.229      719.193        1.796        0.160      180.046       22.693        0.016      341.965       17.042      861.493
09/13/2013  02:31:00     -125.424      -43.937       -6.202       48.641       54.449       28.239     2365.948     2964.717      797.441        1.191        0.306      132.897       24.205        0.033      341.889       16.914      861.496
09/13/2013  02:32:00     -141.592       -6.896      -12.146       27.441       33.153       16.480      753.035     1099.139      271.585        1.118        0.106      141.760       11.339        0.006      341.907       16.947      861.490
09/13/2013  02:33:00     -181.007       16.427      -17.064       19.824       22.761       16.974      392.992      518.085      288.108        1.726        0.060      181.751       13.920        0.006      341.943       17.006      861.489
09/13/2013  02:34:00     -189.902       32.054      -16.167       27.542       22.222       12.591      758.537      493.829      158.528        1.938        0.071      192.588        8.892        0.002      341.959       17.033      861.484
09/13/2013  02:35:00     -183.581       42.047      -11.430       20.323       20.982       11.979      413.028      440.241      143.499        1.830        0.050      188.334        7.831        0.002      341.916       16.959      861.470
09/13/2013  02:36:00     -152.351      -11.648      -17.502       35.014       25.479       21.120     1225.963      649.199      446.068        1.299        0.116      152.796       17.762        0.014      341.855       16.857      861.464
09/13/2013  02:37:00     -144.427      -22.885      -14.459       50.527       38.420       29.213     2552.962     1476.102      853.423        1.324        0.244      146.229       29.542        0.041      341.845       16.841      861.448
09/13/2013  02:38:00     -173.926       -5.000      -24.526       32.401       36.109       19.109     1049.810     1303.879      365.141        1.680        0.136      173.998       11.650        0.004      341.812       16.784      861.436
09/13/2013  02:39:00     -188.375       -6.950      -20.626       43.813       30.664       31.181     1919.615      940.291      972.285        1.989        0.192      188.503       27.852        0.022      341.823       16.801      861.441
09/13/2013  02:40:00     -197.097       -1.122      -22.739       46.109       42.976       25.663     2126.067     1846.935      658.598        2.200        0.232      197.100       27.771        0.020      341.905       16.940      861.432
09/13/2013  02:41:00     -201.193       14.424      -25.657       32.105       34.120       15.969     1030.713     1164.158      255.019        2.190        0.122      201.709       12.395        0.004      341.914       16.958      861.421
09/13/2013  02:42:00     -182.943       -6.090      -16.719       53.215       33.635       26.430     2831.868     1131.322      698.554        1.922        0.233      183.045       27.316        0.022      341.845       16.839      861.418
09/13/2013  02:43:00     -196.019       -5.413      -25.098       45.090       29.388       27.483     2033.100      863.658      755.319        2.137        0.183      196.093       25.152        0.016      341.878       16.895      861.412
09/13/2013  02:44:00     -201.342       -7.136      -27.359       32.117       31.452       21.305     1031.481      989.219      453.884        2.191        0.124      201.469       15.732        0.006      341.840       16.830      861.398
09/13/2013  02:45:00     -212.127       21.381      -21.920       39.066       41.168       21.477     1526.147     1694.835      461.278        2.481        0.184      213.202       17.386        0.007      341.847       16.842      861.397
09/13/2013  02:46:00     -201.180       29.595      -15.242       35.510       39.554       26.647     1260.962     1564.489      710.079        2.256        0.177      203.345       23.188        0.013      341.859       16.862      861.391
09/13/2013  02:47:00     -223.235       14.370      -23.215       44.342       47.147       31.553     1966.198     2222.797      995.580        2.788        0.259      223.698       29.259        0.017      341.836       16.822      861.390
09/13/2013  02:48:00     -142.782        7.684      -15.990       54.902       49.191       25.090     3014.274     2419.731      629.489        1.338        0.303      142.989       23.249        0.026      341.822       16.801      861.403
09/13/2013  02:49:00     -100.461       19.968      -13.150       39.916       31.077       25.275     1593.249      965.759      638.838        0.693        0.160      102.427       18.875        0.034      341.879       16.898      861.397
09/13/2013  02:50:00     -108.267       14.784      -15.769       32.203       44.350       22.577     1037.057     1966.950      509.700        0.785        0.176      109.271       20.008        0.034      342.063       17.211      861.391
09/13/2013  02:51:00     -112.199      -42.649       -2.996       45.189       25.587       21.281     2042.026      654.705      452.867        0.878        0.157      120.032       18.349        0.023      341.909       16.948      861.391
09/13/2013  02:52:00     -119.147      -24.023       -6.264       50.788       44.710       32.013     2579.467     1998.966     1024.842        1.021        0.280      121.545       30.150        0.062      341.884       16.906      861.401
09/13/2013  02:53:00     -172.698       35.289      -15.487       54.538       40.389       30.702     2974.416     1631.286      942.619        1.843        0.277      176.267       27.288        0.024      342.075       17.228      861.409
09/13/2013  02:54:00     -136.590       37.392       -9.345       58.692       41.544       29.545     3444.784     1725.890      872.892        1.309        0.302      141.616       27.581        0.038      342.261       17.545      861.401
09/13/2013  02:55:00     -154.329       29.616      -11.177       45.964       44.820       27.130     2112.711     2008.875      736.051        1.484        0.243      157.145       18.999        0.015      342.471       17.903      861.400
09/13/2013  02:56:00     -141.967       -0.404       -6.825       58.643       43.918       24.736     3438.943     1928.787      611.891        1.309        0.299      141.967       19.346        0.019      342.237       17.505      861.406
09/13/2013  02:57:00      -92.197      -23.941       -7.279       41.953       24.871       20.673     1760.056      618.565      427.371        0.597        0.140       95.255       22.689        0.057      342.115       17.301      861.397
09/13/2013  02:58:00      -81.113      -21.290       -7.323       41.616       40.743       16.328     1731.880     1659.986      266.589        0.537        0.183       83.861       15.348        0.033      342.059       17.205      861.384
09/13/2013  02:59:00     -163.573      -59.922       -7.725       47.558       28.788       21.561     2261.784      828.721      464.878        1.698        0.178      174.204       18.381        0.011      342.058       17.200      861.382
09/13/2013  03:00:00     -152.358      -51.369       -9.246       34.795       44.353       25.814     1210.721     1967.194      666.387        1.489        0.192      160.785       21.294        0.018      341.980       17.069      861.374
09/13/2013  03:01:00     -130.452       -3.087      -14.033       16.881       18.616       12.125      284.954      346.552      147.016        0.900        0.039      130.488        8.595        0.004      341.956       17.030      861.367
09/13/2013  03:02:00     -105.564      -17.643       -9.438       32.955       27.346       16.396     1086.041      747.818      268.827        0.682        0.105      107.028       14.036        0.017      341.902       16.938      861.357
09/13/2013  03:03:00      -83.932      -10.538       -3.078       45.168       24.729       18.798     2040.158      611.547      353.365        0.508        0.150       84.591       22.457        0.070      341.866       16.875      861.350
09/13/2013  03:04:00     -171.200       29.520       -8.672       68.860       44.531       31.636     4741.715     1983.044     1000.836        1.899        0.386      173.726       28.033        0.026      341.876       16.891      861.334
09/13/2013  03:05:00     -145.651       30.246       -8.932       44.607       25.510       13.954     1989.818      650.763      194.727        1.252        0.142      148.758       11.524        0.006      341.819       16.797      861.321
09/13/2013  03:06:00      -99.838      -18.444       -5.026       28.764       24.525       16.875      827.389      601.478      284.762        0.602        0.086      101.527       12.214        0.014      341.784       16.737      861.300
09/13/2013  03:07:00      -54.828      -16.494       -4.679       35.375       27.240       19.133     1251.376      742.005      366.078        0.283        0.118       57.256       15.992        0.078      341.754       16.687      861.302
09/13/2013  03:08:00     -120.348      -27.647       -3.044       26.044       16.096       15.666      678.276      259.072      245.424        0.822        0.059      123.482       14.273        0.013      341.795       16.755      861.297
09/13/2013  03:09:00      -97.446      -39.322       -5.725       38.106       30.705       16.424     1452.085      942.780      269.746        0.687        0.133      105.081       10.794        0.011      341.825       16.807      861.296
09/13/2013  03:10:00      -94.278      -47.857       -5.202       24.733       16.951       13.681      611.723      287.334      187.157        0.615        0.054      105.729        4.888        0.002      341.843       16.837      861.293
09/13/2013  03:11:00      -75.796      -44.867       -3.663       22.752       17.849       13.058      517.645      318.595      170.510        0.439        0.050       88.080        9.335        0.011      341.861       16.867      861.284
09/13/2013  03:12:00      -66.110       -8.451       -6.164       12.640       18.638       13.303      159.773      347.388      176.979        0.258        0.034       66.648        8.880        0.018      341.846       16.845      861.277
09/13/2013  03:13:00      -21.966      -31.924       -7.978       20.220       12.389       10.124      408.842      153.486      102.502        0.111        0.033       38.751       11.336        0.086      341.940       17.003      861.263
09/13/2013  03:14:00      -66.464      -33.816       -3.515       44.668       25.679       20.655     1995.245      659.405      426.635        0.433        0.154       74.572       27.922        0.140      341.907       16.945      861.249
09/13/2013  03:15:00      -50.645      -36.536       12.745       52.564       33.390       22.442     2762.950     1114.867      503.649        0.422        0.219       62.449       24.292        0.151      341.880       16.899      861.230
09/13/2013  03:16:00      -33.744      -27.643       11.401       30.642       24.402       18.081      938.930      595.443      326.939        0.195        0.093       43.621       19.136        0.192      341.893       16.921      861.215
09/13/2013  03:17:00      -84.585      -46.402      -10.022       29.000       21.566       15.011      840.975      465.090      225.343        0.547        0.077       96.476        9.448        0.010      342.049       17.186      861.207
09/13/2013  03:18:00     -130.304      -66.561       -3.407       37.183       28.282       21.184     1382.550      799.893      448.770        1.203        0.132      146.320       19.060        0.017      341.901       16.936      861.213
09/13/2013  03:19:00      -85.805      -13.042       -3.118       25.820       24.544       15.930      666.655      602.410      253.760        0.453        0.076       86.790       14.641        0.028      341.743       16.667      861.218
09/13/2013  03:20:00      -95.269      -33.246       -0.797       27.821       26.787       15.959      774.006      717.546      254.676        0.596        0.087      100.903       13.114        0.017      341.668       16.541      861.224
09/13/2013  03:21:00     -116.136      -35.916       -8.954       30.495       22.322       17.161      929.919      498.283      294.491        0.829        0.086      121.563       17.412        0.021      341.528       16.303      861.236
09/13/2013  03:22:00      -89.722      -47.781       -7.690       22.477       20.282       17.395      505.203      411.358      302.589        0.581        0.061      101.652       11.810        0.013      341.570       16.373      861.236
09/13/2013  03:23:00      -62.495      -14.158       -1.486       40.255       19.538       18.351     1620.455      381.723      336.762        0.322        0.117       64.078       20.669        0.104      341.531       16.307      861.240
09/13/2013  03:24:00      -89.316      -24.951       -3.374       19.094       16.639       11.894      364.571      276.864      141.456        0.470        0.039       92.736        7.407        0.006      341.574       16.381      861.231
09/13/2013  03:25:00     -123.094      -29.116      -10.576       18.735       20.827       13.741      351.013      433.779      188.811        0.854        0.049      126.490        7.958        0.004      341.533       16.309      861.227
09/13/2013  03:26:00     -114.050      -55.360       -2.528       24.740       25.128       14.867      612.092      631.429      221.029        0.877        0.073      126.776       14.503        0.013      341.605       16.434      861.219
09/13/2013  03:27:00      -90.931      -75.312       11.585       49.645       41.978       30.149     2464.656     1762.133      908.967        0.960        0.257      118.069       27.569        0.055      341.690       16.579      861.210
09/13/2013  03:28:00     -110.004      -44.466        6.061       47.386       43.584       23.777     2245.414     1899.586      565.367        0.941        0.236      118.651       22.942        0.037      341.642       16.498      861.202
09/13/2013  03:29:00     -100.229      -38.502       -0.069       37.938       27.095       20.107     1439.263      734.136      404.297        0.705        0.129      107.370       18.519        0.030      341.587       16.403      861.200
09/13/2013  03:30:00     -108.175      -26.030       -6.065       29.320       31.942       21.329      859.682     1020.282      454.928        0.738        0.117      111.263       17.916        0.026      341.485       16.229      861.203
09/13/2013  03:31:00     -126.331      -35.588       -5.572       27.419       27.666       16.899      751.815      765.389      285.591        0.953        0.090      131.248       14.094        0.012      341.493       16.242      861.208
09/13/2013  03:32:00      -68.332      -62.158        5.588       59.341       48.423       29.305     3521.338     2344.771      858.756        0.764        0.336       92.374       29.575        0.103      341.633       16.481      861.210
09/13/2013  03:33:00      -68.125      -38.776       -0.105       70.544       46.360       25.854     4976.478     2149.205      668.432        0.697        0.390       78.387       30.612        0.153      341.748       16.676      861.208
09/13/2013  03:34:00      -54.891      -35.706        1.162       31.468       43.114       18.914      990.244     1858.775      357.725        0.375        0.160       65.483       18.172        0.077      341.725       16.637      861.209
09/13/2013  03:35:00      -42.605      -47.093        5.425       32.012       27.654       18.989     1024.770      764.754      360.580        0.311        0.108       63.505       13.367        0.044      341.817       16.792      861.210
09/13/2013  03:36:00      -24.866      -49.959       13.556       39.918       33.558       23.570     1593.457     1126.159      555.548        0.329        0.164       55.805       21.894        0.154      341.848       16.848      861.206
09/13/2013  03:37:00      -38.965      -55.553        6.663       23.456       31.678       14.876      550.179     1003.490      221.282        0.321        0.089       67.856       13.253        0.038      341.889       16.916      861.192
09/13/2013  03:38:00      -23.968      -28.813        0.543       16.668       25.080       17.176      277.828      629.026      295.012        0.130        0.060       37.479       12.137        0.105      341.908       16.945      861.188
09/13/2013  03:39:00      -58.374      -16.203        1.618       16.144       17.243       12.570      260.643      297.308      158.016        0.219        0.036       60.581        7.180        0.014      341.889       16.915      861.188
09/13/2013  03:40:00      -61.622      -13.107       -3.604       19.329       14.569       10.961      373.618      212.268      120.154        0.234        0.035       63.001        7.724        0.015      341.720       16.629      861.185
09/13/2013  03:41:00      -86.094      -31.362       -6.641       22.269       27.522       12.502      495.887      757.461      156.304        0.492        0.070       91.628        9.540        0.011      341.753       16.683      861.188
09/13/2013  03:42:00      -62.430      -37.904        3.675       36.086       20.657       16.985     1302.224      426.715      288.503        0.368        0.101       73.036       14.914        0.042      341.708       16.609      861.190
09/13/2013  03:43:00      -54.030      -49.181        1.922       31.634       25.445       19.448     1000.733      647.468      378.224        0.368        0.101       73.062       17.541        0.058      341.733       16.650      861.197
09/13/2013  03:44:00      -14.443      -26.854       12.485       38.224       22.909       17.458     1461.084      524.835      304.789        0.169        0.115       30.492       16.968        0.310      341.734       16.653      861.196
09/13/2013  03:45:00      -60.108      -47.859        5.973       34.511       29.044       20.393     1191.026      843.539      415.889        0.419        0.123       76.833       19.634        0.065      341.729       16.644      861.188
09/13/2013  03:46:00      -75.680      -48.645       -1.695       39.172       26.481       21.389     1534.442      701.220      457.476        0.539        0.135       89.966       18.715        0.043      341.726       16.638      861.177
09/13/2013  03:47:00      -95.906      -57.053        0.823       29.437       23.196       17.583      866.549      538.069      309.153        0.708        0.086      111.593       16.341        0.021      341.719       16.627      861.159
09/13/2013  03:48:00      -87.535      -54.497        2.476       42.115       24.781       24.362     1773.701      614.104      593.525        0.681        0.149      103.113       23.272        0.051      341.711       16.614      861.150
09/13/2013  03:49:00      -29.637      -36.319        3.853       27.757       22.467       14.534      770.443      504.784      211.233        0.185        0.074       46.877       12.965        0.076      341.718       16.626      861.136
09/13/2013  03:50:00      -42.909      -33.872        3.194       19.838       20.513       15.406      393.527      420.794      237.340        0.202        0.053       54.667       11.985        0.048      341.729       16.643      861.127
09/13/2013  03:51:00      -65.335      -46.218       -6.896       24.958       12.215       10.691      622.907      149.208      114.289        0.367        0.044       80.029        4.054        0.003      341.722       16.630      861.126
09/13/2013  03:52:00      -23.139      -25.908        4.370       30.261       25.888       15.526      915.720      670.184      241.059        0.153        0.091       34.737       13.954        0.161      341.673       16.550      861.139
09/13/2013  03:53:00      -68.356      -52.396       -7.800       20.039       30.094       11.058      401.545      905.634      122.273        0.445        0.071       86.127       13.831        0.026      341.716       16.622      861.145
09/13/2013  03:54:00      -82.663      -27.194       -5.311       14.453       13.051        9.026      208.894      170.331       81.475        0.403        0.023       87.021        5.324        0.004      341.684       16.570      861.149
09/13/2013  03:55:00      -71.328      -26.103       -6.561       16.321       15.812        8.370      266.390      250.016       70.052        0.320        0.029       75.954        5.335        0.005      341.684       16.570      861.157
09/13/2013  03:56:00      -78.095      -26.955       -2.566       18.505       17.317       11.038      342.435      299.872      121.828        0.380        0.038       82.616        9.444        0.013      341.631       16.479      861.154
09/13/2013  03:57:00      -17.350      -20.037        4.285       31.026       14.311       11.566      962.622      204.806      133.781        0.101        0.065       26.505       15.177        0.328      341.610       16.444      861.150
09/13/2013  03:58:00      -41.288      -21.961       -1.329       27.597       15.331       12.034      761.595      235.027      144.808        0.166        0.057       46.765        7.915        0.029      341.615       16.451      861.145
09/13/2013  03:59:00      -60.785      -14.707       -4.161       29.234       16.592       10.106      854.604      275.279      102.124        0.258        0.062       62.539       13.371        0.046      341.597       16.421      861.146
09/13/2013  04:00:00      -54.655        2.697       -1.186       19.972       20.139       12.469      398.892      405.583      155.476        0.198        0.048       54.721       10.512        0.037      341.511       16.275      861.156
09/13/2013  04:01:00      -22.306        5.879        1.430       21.101        7.945        6.767      445.263       63.120       45.792        0.054        0.028       23.068        6.293        0.074      341.413       16.109      861.169
09/13/2013  04:02:00      -69.485        4.771       -6.583       16.700        9.386        8.331      278.902       88.103       69.403        0.267        0.022       69.648        5.571        0.006      341.559       16.354      861.186
09/13/2013  04:03:00      -61.324        6.840      -10.814        7.839        8.552        6.267       61.454       73.131       39.275        0.205        0.009       61.704        3.927        0.004      341.568       16.372      861.191
09/13/2013  04:04:00      -57.693       -6.279       -5.074       11.521       10.766        6.936      132.744      115.908       48.109        0.185        0.015       58.033        4.487        0.006      341.570       16.373      861.186
09/13/2013  04:05:00      -61.109      -23.514       -5.542       14.922        9.855        9.463      222.680       97.113       89.539        0.236        0.020       65.477        3.609        0.003      341.488       16.236      861.184
09/13/2013  04:06:00      -48.130      -33.460        4.456       28.993       15.031       14.438      840.565      225.942      208.454        0.237        0.064       58.618       16.420        0.078      341.470       16.203      861.180
09/13/2013  04:07:00      -18.312      -25.420       12.161       21.533       20.195       15.585      463.688      407.825      242.880        0.112        0.056       31.329       13.743        0.192      341.460       16.186      861.173
09/13/2013  04:08:00      -52.641      -29.868        2.281       26.353       16.763       16.619      694.488      281.010      276.180        0.246        0.063       60.524       16.166        0.071      341.473       16.210      861.162
09/13/2013  04:09:00      -89.863      -45.557       -6.989       17.507       11.245        9.667      306.512      126.440       93.453        0.536        0.026      100.751        5.049        0.003      341.488       16.233      861.154
09/13/2013  04:10:00      -46.836      -30.428       -1.210       28.931       20.111       18.075      836.998      404.435      326.711        0.234        0.078       55.852       17.135        0.094      341.378       16.049      861.151
09/13/2013  04:11:00      -64.814      -40.039        2.096       33.192       16.170       11.253     1101.707      261.472      126.632        0.365        0.074       76.184       10.013        0.017      341.405       16.094      861.146
09/13/2013  04:12:00      -84.790      -36.282        3.433       27.610       16.947       15.752      762.307      287.214      248.123        0.491        0.065       92.227       16.737        0.033      341.429       16.136      861.146
09/13/2013  04:13:00      -67.934      -33.556        6.178       26.558       17.832       15.471      705.338      317.970      239.363        0.352        0.063       75.770       12.944        0.029      341.397       16.082      861.139
09/13/2013  04:14:00      -64.580      -36.033        2.671       28.106       19.909       11.687      789.928      396.356      136.593        0.340        0.066       73.952        7.480        0.010      341.404       16.092      861.128
09/13/2013  04:15:00      -82.335      -34.187       -3.240       23.957       18.332       11.627      573.961      336.077      135.189        0.450        0.052       89.150       10.098        0.013      341.466       16.197      861.115
09/13/2013  04:16:00     -103.069      -23.227       -6.692       20.236       21.466       12.443      409.516      460.778      154.833        0.612        0.051      105.654       11.670        0.012      341.436       16.147      861.108
09/13/2013  04:17:00     -114.057      -23.406      -10.604       25.197       17.898       14.111      634.893      320.324      199.130        0.741        0.058      116.434       10.771        0.009      341.378       16.049      861.101
09/13/2013  04:18:00      -98.798      -28.663        0.940       29.717       21.587       14.243      883.126      465.992      202.858        0.607        0.078      102.872       14.925        0.021      341.324       15.958      861.099
09/13/2013  04:19:00      -87.840      -34.362        1.416       23.652       20.045       15.762      559.429      401.796      248.445        0.505        0.060       94.322       13.781        0.021      341.301       15.919      861.103
09/13/2013  04:20:00      -86.050      -36.171       -1.167       25.223       24.058       13.929      636.183      578.796      194.015        0.506        0.070       93.343       12.162        0.017      341.331       15.970      861.106
09/13/2013  04:21:00      -87.301      -19.922       -5.855       27.953       16.371       11.840      781.361      268.004      140.187        0.462        0.059       89.546       12.189        0.019      341.298       15.913      861.116
09/13/2013  04:22:00      -78.756      -18.021       -2.517       32.325       20.285       12.132     1044.933      411.487      147.189        0.407        0.080       80.792       12.662        0.025      341.255       15.840      861.110
09/13/2013  04:23:00      -97.803      -26.659       -3.406       17.068       13.289       13.240      291.315      176.608      175.311        0.547        0.032      101.371       10.425        0.011      341.310       15.932      861.114
09/13/2013  04:24:00      -93.108      -24.943       -6.683       14.732       12.458        8.630      217.018      155.193       74.474        0.489        0.022       96.391        6.130        0.004      341.317       15.945      861.113
09/13/2013  04:25:00      -75.251      -22.015       -9.191       17.476       15.754        7.892      305.404      248.197       62.277        0.342        0.031       78.405        3.854        0.002      341.316       15.945      861.106
09/13/2013  04:26:00      -75.175      -25.556      -14.283       10.067       12.452        6.919      101.349      155.053       47.874        0.341        0.015       79.400        3.129        0.002      341.340       15.986      861.101
09/13/2013  04:27:00      -90.499      -20.392      -11.001       12.399       14.736        9.485      153.747      217.136       89.959        0.459        0.023       92.768        4.131        0.002      341.339       15.984      861.096
09/13/2013  04:28:00     -105.173      -50.575       -9.085       14.341       14.962       10.316      205.660      223.876      106.410        0.712        0.027      116.701        7.470        0.004      341.325       15.959      861.085
09/13/2013  04:29:00     -104.762      -46.979       -6.065       20.940       21.035       14.380      438.477      442.467      206.786        0.715        0.054      114.813        8.712        0.006      341.320       15.951      861.084
09/13/2013  04:30:00     -113.133      -31.698       -9.600       15.531       10.355        9.033      241.204      107.221       81.602        0.716        0.022      117.489        8.611        0.005      341.256       15.843      861.082
09/13/2013  04:31:00      -76.158      -33.901      -10.576       18.798       10.112        7.348      353.371      102.256       53.988        0.379        0.025       83.363        2.453        0.001      341.255       15.841      861.072
09/13/2013  04:32:00      -85.771      -43.891       -8.473       18.581       10.073        9.276      345.266      101.455       86.044        0.494        0.027       96.348        5.042        0.003      341.276       15.876      861.065
09/13/2013  04:33:00     -118.401      -57.207       -9.136       14.091       22.680       11.143      198.564      514.361      124.174        0.911        0.042      131.497        7.118        0.003      341.220       15.781      861.081
09/13/2013  04:34:00     -102.334       -8.739       -5.292       16.411       15.077       10.774      269.335      227.313      116.073        0.559        0.031      102.707        5.445        0.003      341.160       15.680      861.093
09/13/2013  04:35:00      -76.176      -22.622       -5.862       15.790       14.677        7.470      249.333      215.402       55.801        0.343        0.026       79.464        4.862        0.004      341.185       15.723      861.098
09/13/2013  04:36:00      -88.126      -42.159      -12.567       12.056       12.263       10.204      145.350      150.375      104.115        0.505        0.020       97.692        2.419        0.001      341.171       15.699      861.096
09/13/2013  04:37:00      -97.401      -48.518      -13.419       19.973       22.010       10.356      398.929      484.446      107.257        0.651        0.050      108.816        6.235        0.003      341.177       15.708      861.101
09/13/2013  04:38:00      -76.293      -35.821       -9.770       18.513       20.987       12.501      342.738      440.468      156.266        0.407        0.047       84.284        6.305        0.006      341.171       15.696      861.110
09/13/2013  04:39:00      -64.161      -10.745       -7.814       18.913       12.639        9.951      357.689      159.733       99.020        0.245        0.031       65.054       10.440        0.026      341.184       15.721      861.134
09/13/2013  04:40:00      -61.909       -0.497       -4.525       16.929       15.026       11.521      286.578      225.782      132.731        0.225        0.032       61.911       10.008        0.026      341.178       15.710      861.153
09/13/2013  04:41:00      -50.517      -18.719       -6.039       18.271       12.543       11.752      333.840      157.334      138.119        0.178        0.031       53.874       11.397        0.045      341.117       15.607      861.169
09/13/2013  04:42:00      -32.992      -16.386       -2.350       17.702        7.587        4.817      313.370       57.569       23.203        0.088        0.020       36.838        3.459        0.009      341.145       15.655      861.166
09/13/2013  04:43:00      -11.459      -25.801       -1.882       11.730       11.947        8.458      137.582      142.732       71.541        0.058        0.018       28.231        8.517        0.091      341.240       15.816      861.163
09/13/2013  04:44:00      -21.327      -29.242       -0.514       18.996       12.489       14.042      360.834      155.966      197.170        0.101        0.036       36.193        7.366        0.041      341.333       15.973      861.154
09/13/2013  04:45:00      -36.532      -24.310       -2.572       23.911       16.380        9.453      571.736      268.295       89.356        0.143        0.046       43.881        4.609        0.011      341.284       15.890      861.145
09/13/2013  04:46:00      -35.505      -35.997       -1.599       23.832       18.619       12.249      567.946      346.651      150.043        0.181        0.053       50.561        6.252        0.015      341.305       15.924      861.143
09/13/2013  04:47:00      -60.170      -36.317      -10.381       13.280       13.856       10.298      176.346      191.976      106.048        0.276        0.024       70.281        7.126        0.010      341.405       16.094      861.133
09/13/2013  04:48:00      -69.124      -48.775       -7.308       20.482       16.805       14.620      419.504      282.422      213.748        0.406        0.046       84.600        4.460        0.003      341.402       16.090      861.128
09/13/2013  04:49:00      -77.574      -37.023       -9.470       20.850       17.792       10.376      434.720      316.556      107.668        0.417        0.043       85.956       10.738        0.016      341.371       16.037      861.117
09/13/2013  04:50:00      -56.132      -25.139       -1.243       20.103       13.700       11.522      404.111      187.693      132.763        0.225        0.036       61.504        9.088        0.022      341.339       15.983      861.112
09/13/2013  04:51:00      -63.264      -26.708       -5.535       15.065       10.325        8.823      226.956      106.607       77.840        0.258        0.021       68.671        1.525        0.000      341.330       15.967      861.114
09/13/2013  04:52:00      -72.154      -20.951       -9.905       12.707       13.872        9.298      161.462      192.430       86.451        0.309        0.022       75.134        6.522        0.008      341.303       15.922      861.107
09/13/2013  04:53:00      -75.176       -6.729      -10.370       12.031       12.057        9.920      144.752      145.382       98.412        0.310        0.019       75.476        4.989        0.004      341.249       15.832      861.102
09/13/2013  04:54:00      -64.142      -10.271       -6.943       10.663       10.786        8.325      113.699      116.331       69.298        0.228        0.015       64.959        5.737        0.008      341.276       15.875      861.096
09/13/2013  04:55:00     -105.983      -12.713       -9.464       15.489       16.456       12.267      239.908      270.789      150.476        0.607        0.033      106.742        6.536        0.004      341.219       15.780      861.090
09/13/2013  04:56:00      -95.253      -18.232       -7.909       22.463       15.895       11.547      504.607      252.667      133.338        0.518        0.045       96.982       10.961        0.013      341.151       15.665      861.081
09/13/2013  04:57:00      -73.714      -39.861       -6.886       12.872        9.765        9.342      165.681       95.355       87.267        0.371        0.017       83.801        5.445        0.004      341.270       15.866      861.072
09/13/2013  04:58:00      -73.985      -44.355       -6.218       21.534       24.459       14.041      463.711      598.243      197.153        0.437        0.063       86.262       12.327        0.020      341.206       15.757      861.065
09/13/2013  04:59:00      -97.285      -27.822       -9.186       13.420       12.833        8.632      180.096      164.685       74.515        0.537        0.021      101.185        5.346        0.003      341.103       15.584      861.066
09/13/2013  05:00:00      -61.386      -29.141       -2.392       15.208       13.181       12.184      231.279      173.743      148.449        0.259        0.028       67.952        9.124        0.018      341.135       15.638      861.069
09/13/2013  05:01:00      -82.339      -31.630       -8.988       13.473       11.931        8.245      181.520      142.357       67.985        0.413        0.020       88.206        6.348        0.005      341.192       15.733      861.076
09/13/2013  05:02:00      -94.282      -21.835       -5.684       25.546       17.699       16.124      652.579      313.257      259.977        0.531        0.061       96.777       13.929        0.021      341.076       15.537      861.091
09/13/2013  05:03:00      -99.542      -14.016       -4.602       22.697       18.443       16.197      515.161      340.160      262.348        0.562        0.056      100.524       14.304        0.020      341.069       15.527      861.100
09/13/2013  05:04:00      -94.928      -27.161       -0.300       26.463       20.361       14.231      700.297      414.570      202.518        0.553        0.066       98.737       14.164        0.021      341.104       15.587      861.105
09/13/2013  05:05:00     -105.202      -56.809        2.284       46.813       23.416       15.985     2191.432      548.307      255.526        0.865        0.150      119.560       16.387        0.019      341.133       15.635      861.115
09/13/2013  05:06:00     -116.310      -44.142       -1.478       24.801       21.816       16.295      615.106      475.932      265.518        0.842        0.068      124.405       10.609        0.007      341.123       15.618      861.108
09/13/2013  05:07:00      -87.919       -9.350       -7.058       30.775       17.842       14.922      947.083      318.334      222.660        0.468        0.074       88.415       16.437        0.035      341.077       15.539      861.093
09/13/2013  05:08:00      -91.960      -10.754       -7.454       19.978       15.516       12.318      399.136      240.760      151.739        0.471        0.040       92.586       12.669        0.019      340.943       15.311      861.081
09/13/2013  05:09:00      -92.691      -23.791       -4.244       23.988       17.900       12.705      575.431      320.400      161.430        0.512        0.053       95.696       12.427        0.017      340.992       15.395      861.081
09/13/2013  05:10:00     -101.529      -56.318       -5.583       20.323       22.175       14.480      413.018      491.721      209.674        0.731        0.056      116.103       11.508        0.010      340.982       15.379      861.086
09/13/2013  05:11:00      -86.123      -31.752       -6.330       29.565       30.220       15.619      874.118      913.251      243.939        0.525        0.102       91.790       11.081        0.015      341.008       15.423      861.089
09/13/2013  05:12:00      -80.978      -40.503       -8.520       17.423       16.166       11.097      303.544      261.347      123.137        0.448        0.034       90.542        7.183        0.006      340.978       15.371      861.083
09/13/2013  05:13:00      -43.048      -10.604       -0.930       19.875       23.229       13.548      395.006      539.588      183.543        0.154        0.056       44.335       10.379        0.055      340.934       15.298      861.069
09/13/2013  05:14:00      -65.025      -15.645       -1.797       29.058       14.954       12.754      844.375      223.621      162.658        0.285        0.062       66.881       16.151        0.058      340.904       15.246      861.068
09/13/2013  05:15:00      -80.369      -45.458       -3.350       22.580       25.760       14.029      509.878      663.580      196.813        0.495        0.069       92.334       12.442        0.018      340.923       15.277      861.067
09/13/2013  05:16:00     -100.888      -39.773      -10.017       34.032       24.197       16.889     1158.211      585.498      285.245        0.694        0.101      108.445       17.740        0.027      340.891       15.224      861.058
09/13/2013  05:17:00      -41.091      -17.254        0.309       38.335       15.042       12.887     1469.593      226.261      166.085        0.192        0.093       44.567       16.329        0.134      340.929       15.289      861.037
09/13/2013  05:18:00      -37.749      -11.441       -2.797       21.919       19.469       16.092      480.438      379.057      258.963        0.134        0.056       39.445       14.675        0.138      340.971       15.360      861.027
09/13/2013  05:19:00      -54.864      -29.386       -2.735       25.712       24.284       20.338      661.127      589.731      413.634        0.277        0.083       62.238       16.267        0.068      340.953       15.329      861.029
09/13/2013  05:20:00      -40.777      -13.697        0.499       20.065       25.139       10.771      402.624      631.948      116.008        0.150        0.058       43.016        7.707        0.032      340.848       15.152      861.041
09/13/2013  05:21:00      -32.672      -21.017       -7.023       25.980       16.696       14.576      674.979      278.742      212.447        0.136        0.058       38.848       14.089        0.132      340.881       15.207      861.056
09/13/2013  05:22:00        7.322      -17.464        2.361       19.648       17.794       19.116      386.028      316.618      365.412        0.072        0.053       18.937       10.752        0.322      340.849       15.153      861.062
09/13/2013  05:23:00      -53.557      -23.797       -7.446       17.725       16.426        9.625      314.180      269.825       92.646        0.208        0.034       58.606        9.759        0.028      340.863       15.177      861.064
09/13/2013  05:24:00      -69.315      -20.703      -11.978       19.536       15.183       12.839      381.672      230.529      164.833        0.308        0.039       72.340        9.569        0.017      340.880       15.206      861.065
09/13/2013  05:25:00      -56.942      -27.328       -1.289       30.505       20.916       11.780      930.582      437.486      138.766        0.275        0.075       63.160       12.277        0.038      340.837       15.132      861.070
09/13/2013  05:26:00      -58.618      -17.849       -0.192       31.636       23.081       14.571     1000.834      532.721      212.323        0.275        0.087       61.275       18.371        0.090      340.892       15.227      861.075
09/13/2013  05:27:00      -57.036        3.404       -4.967       11.653       11.134        6.477      135.784      123.977       41.949        0.180        0.015       57.138        4.412        0.006      340.926       15.283      861.077
09/13/2013  05:28:00      -65.504        8.921       -9.022        6.859        6.125        5.124       47.049       37.520       26.255        0.228        0.006       66.109        2.945        0.002      340.933       15.297      861.056
09/13/2013  05:29:00      -64.929      -18.950      -11.767       15.230       12.118        9.063      231.949      146.848       82.145        0.259        0.023       67.637        7.584        0.013      340.983       15.381      861.037
09/13/2013  05:30:00      -79.387      -24.198      -11.550        9.318        9.252        7.005       86.829       85.607       49.072        0.362        0.011       82.993        2.546        0.001      340.998       15.408      861.020
09/13/2013  05:31:00      -90.954      -41.928      -10.535       11.296       15.550       10.237      127.610      241.795      104.794        0.531        0.024      100.153        5.033        0.003      341.042       15.481      861.019
09/13/2013  05:32:00      -95.186      -41.986       -6.937       16.687       12.287       10.124      278.470      150.977      102.503        0.570        0.027      104.034        8.199        0.006      340.961       15.346      861.029
09/13/2013  05:33:00      -50.016      -20.082       -3.622       25.928       11.818       10.223      672.281      139.675      104.516        0.192        0.046       53.897        6.850        0.016      340.994       15.401      861.027
09/13/2013  05:34:00      -10.156      -11.758       -1.288       18.545       13.916       10.555      343.902      193.655      111.409        0.045        0.032       15.537       13.113        0.712      340.993       15.397      861.015
09/13/2013  05:35:00      -26.049      -33.169        7.324       12.007       17.248       12.167      144.166      297.508      148.041        0.121        0.029       42.175        7.592        0.032      341.145       15.654      861.001
09/13/2013  05:36:00      -36.808        8.301       -1.909        9.817       11.441        6.775       96.381      130.891       45.894        0.085        0.014       37.733        5.052        0.018      341.176       15.710      860.998
09/13/2013  05:37:00      -18.966        8.021        0.274        9.639       14.612        8.008       92.907      213.525       64.129        0.040        0.019       20.592        6.128        0.089      341.281       15.885      861.014
09/13/2013  05:38:00       -5.592       -9.307        5.235       16.425       18.862        9.579      269.782      355.788       91.751        0.043        0.036       10.857        6.876        0.401      341.177       15.708      861.020
09/13/2013  05:39:00       -3.249      -25.405        5.651       12.773       13.853        7.815      163.158      191.916       61.067        0.055        0.021       25.612        5.456        0.045      341.153       15.668      861.019
09/13/2013  05:40:00        5.425      -18.693        1.155        7.492       11.033        5.751       56.133      121.736       33.079        0.030        0.011       19.465        4.643        0.057      341.149       15.663      861.018
09/13/2013  05:41:00      -45.031      -28.044       -6.432       20.958       10.665        9.941      439.223      113.742       98.827        0.175        0.033       53.049        6.884        0.017      341.073       15.533      861.025
09/13/2013  05:42:00      -89.592      -24.348       -7.072        9.524       12.833        6.029       90.701      164.694       36.348        0.448        0.015       92.842        6.155        0.004      341.044       15.483      861.029
09/13/2013  05:43:00      -90.416      -27.002      -16.947        8.407        8.790        4.902       70.674       77.268       24.034        0.468        0.009       94.362        3.136        0.001      341.036       15.470      861.027
09/13/2013  05:44:00      -91.445      -24.695      -11.653       19.569       13.023        8.417      382.941      169.597       70.844        0.487        0.031       94.720        7.452        0.006      340.902       15.243      861.018
09/13/2013  05:45:00      -48.534      -17.900       -2.534       15.254       16.126       11.271      232.697      260.059      127.036        0.165        0.031       51.730        9.666        0.035      340.933       15.296      860.999
09/13/2013  05:46:00      -11.384      -12.172        7.754       28.002       14.845       11.219      784.134      220.375      125.873        0.073        0.057       16.666       16.303        0.957      340.917       15.268      861.001
09/13/2013  05:47:00      -53.194      -14.848       -6.784       24.523        9.195       10.418      601.376       84.546      108.527        0.195        0.040       55.227        5.497        0.010      340.944       15.315      861.013
09/13/2013  05:48:00      -38.358       -5.009       -1.122       42.121       21.127       19.554     1774.197      446.342      382.373        0.205        0.130       38.683       16.795        0.188      341.017       15.439      861.039
09/13/2013  05:49:00       21.078        4.413       22.007       17.495       14.930        9.613      306.059      222.891       92.409        0.078        0.031       21.535        5.420        0.063      340.818       15.101      861.063
09/13/2013  05:50:00       -4.331       24.827        2.229       34.020       23.330       15.601     1157.382      544.266      243.377        0.129        0.097       25.202       17.359        0.474      340.937       15.303      861.076
09/13/2013  05:51:00       12.644       61.210       -6.769       20.474       12.893       11.109      419.173      166.220      123.414        0.233        0.035       62.502        9.026        0.021      340.946       15.318      861.085
09/13/2013  05:52:00        5.026       74.512      -11.364       10.630       11.587        6.877      113.007      134.260       47.291        0.300        0.015       74.681        5.249        0.005      341.022       15.446      861.097
09/13/2013  05:53:00       -7.811       89.368      -16.198       12.872       13.954        5.142      165.698      194.702       26.440        0.435        0.019       89.709        3.788        0.002      340.898       15.235      861.116
09/13/2013  05:54:00        2.262       38.357       -9.571        9.209       15.797        6.188       84.808      249.538       38.296        0.097        0.019       38.424        6.535        0.029      341.149       15.663      861.120
09/13/2013  05:55:00        9.817      -31.571       -4.088       29.216       33.221       17.948      853.561     1103.623      322.118        0.169        0.114       33.062       11.963        0.131      340.985       15.384      861.106
09/13/2013  05:56:00       15.253      -25.977      -11.126       13.204       17.162       10.811      174.351      294.548      116.885        0.081        0.029       30.124        5.880        0.038      340.897       15.234      861.098
09/13/2013  05:57:00        8.882       -6.171       -2.594        4.785        5.701        5.298       22.894       32.507       28.070        0.010        0.004       10.815        2.307        0.046      341.011       15.427      861.093
09/13/2013  05:58:00       -3.910       22.802       -0.775       16.670       22.293       12.322      277.875      496.976      151.840        0.073        0.046       23.135        8.750        0.143      340.967       15.350      861.112
09/13/2013  05:59:00       -3.073       31.477       -0.373       20.234       28.713       15.829      409.395      824.419      250.552        0.124        0.074       31.627       13.557        0.184      341.056       15.505      861.125
09/13/2013  06:00:00        2.220       83.849      -13.898       13.576       16.781        6.677      184.296      281.608       44.576        0.387        0.026       83.878        5.184        0.004      341.097       15.571      861.125
09/13/2013  06:01:00       -3.394       38.436       -7.879       11.050       12.704        4.607      122.102      161.392       21.221        0.093        0.015       38.586        2.268        0.003      341.124       15.619      861.120
09/13/2013  06:02:00      -19.214        9.779       -4.055       13.066       25.060        8.884      170.707      627.980       78.927        0.068        0.044       21.559        9.614        0.199      341.027       15.455      861.121
09/13/2013  06:03:00      -13.756      -11.557       -4.218       12.444       11.615        9.799      154.866      134.911       96.012        0.036        0.019       17.967        4.990        0.077      340.937       15.301      861.105
09/13/2013  06:04:00      -27.258      -22.031        4.315       15.663        8.574        8.059      245.329       73.522       64.951        0.082        0.019       35.048        9.249        0.070      341.006       15.418      861.099
09/13/2013  06:05:00      -53.250      -11.969       -4.873       13.945       14.208       10.375      194.469      201.863      107.646        0.175        0.025       54.579        5.520        0.010      340.999       15.407      861.104
09/13/2013  06:06:00      -42.310      -21.795       -6.696       11.848       16.992        8.656      140.377      288.735       74.932        0.141        0.025       47.594        1.660        0.001      340.845       15.144      861.104
09/13/2013  06:07:00      -38.531       -9.682       -2.101        7.840        9.977       10.337       61.459       99.548      106.859        0.093        0.013       39.729        7.664        0.037      340.930       15.289      861.107
09/13/2013  06:08:00      -22.974        5.535        6.483       21.600        9.716       11.908      466.548       94.402      141.804        0.065        0.035       23.632       11.070        0.219      341.182       15.720      861.117
09/13/2013  06:09:00       12.042      -22.294        0.348       11.662       10.086       11.232      136.009      101.734      126.160        0.050        0.018       25.338        9.509        0.141      341.148       15.661      861.134
09/13/2013  06:10:00      -11.869        8.182        1.422       19.717       21.620       11.268      388.744      467.416      126.958        0.060        0.049       14.416       16.152        1.255      341.077       15.540      861.147
09/13/2013  06:11:00      -29.911       29.082       -3.150       17.207       14.203        8.746      296.090      201.734       76.500        0.116        0.029       41.718        5.889        0.020      340.994       15.401      861.155
09/13/2013  06:12:00       -5.557        1.563        0.297       13.984       12.378        8.585      195.561      153.211       73.706        0.023        0.021        5.773        8.834        2.342      341.027       15.455      861.155
09/13/2013  06:13:00      -73.461      -12.057      -13.630       16.608       11.449        9.501      275.837      131.084       90.262        0.311        0.025       74.444        7.298        0.010      340.797       15.066      861.156
09/13/2013  06:14:00      -64.033       -4.270       -6.777       13.355       12.555        9.752      178.363      157.639       95.102        0.230        0.022       64.175        6.107        0.009      340.711       14.920      861.160
09/13/2013  06:15:00      -67.906      -14.661       -9.126       16.467       13.508        7.877      271.152      182.476       62.047        0.271        0.026       69.471        8.718        0.016      340.669       14.850      861.142
09/13/2013  06:16:00      -54.534      -24.371       -0.439       35.650       15.484       16.036     1270.955      239.763      257.164        0.267        0.088       59.732       18.181        0.093      340.736       14.961      861.128
09/13/2013  06:17:00      -82.196      -29.647        3.031       33.898       24.373       16.454     1149.098      594.063      270.746        0.483        0.101       87.380       10.016        0.013      340.691       14.888      861.123
09/13/2013  06:18:00      -85.425      -21.969       -1.881       18.966       14.478       11.899      359.698      209.616      141.596        0.425        0.036       88.205        8.388        0.009      340.670       14.851      861.136
09/13/2013  06:19:00      -77.934        4.384       -6.509       23.404       16.808       13.357      547.756      282.503      178.399        0.357        0.050       78.057       10.343        0.018      340.725       14.945      861.150
09/13/2013  06:20:00      -65.320       13.344       -9.554       22.133       11.185        8.442      489.864      125.105       71.264        0.261        0.034       66.669        6.954        0.011      340.672       14.854      861.155
09/13/2013  06:21:00      -32.647       -3.155       -4.583       16.032       11.631        9.306      257.039      135.275       86.600        0.079        0.024       32.799        6.360        0.038      340.705       14.908      861.158
09/13/2013  06:22:00      -36.998       -9.112       -8.643       17.340       10.682        9.798      300.664      114.114       95.998        0.102        0.026       38.104        4.172        0.012      340.952       15.326      861.170
09/13/2013  06:23:00      -41.029      -13.448       -3.194       13.981       11.115       10.517      195.477      123.533      110.616        0.115        0.021       43.177        8.105        0.035      340.883       15.210      861.186
09/13/2013  06:24:00      -47.172       -8.629      -10.451       11.064        9.868        7.763      122.409       97.385       60.264        0.134        0.014       47.954        4.166        0.008      340.785       15.045      861.194
09/13/2013  06:25:00      -41.050       -6.327       -9.148       10.323        7.472        7.317      106.557       55.835       53.534        0.101        0.011       41.535        3.269        0.006      340.842       15.140      861.188
09/13/2013  06:26:00      -29.859      -11.327       -9.007        9.535       10.667        5.114       90.912      113.792       26.150        0.067        0.012       31.935        3.692        0.013      340.892       15.226      861.180
09/13/2013  06:27:00      -40.158       -3.450      -10.351       10.123        7.034        5.634      102.472       49.471       31.743        0.096        0.009       40.305        2.937        0.005      340.915       15.265      861.197
09/13/2013  06:28:00      -43.206        6.108      -12.237       10.587       12.003        5.178      112.074      144.079       26.809        0.117        0.014       43.636        4.452        0.010      340.884       15.211      861.215
09/13/2013  06:29:00      -34.791       12.693       -4.394       11.110       14.163        6.628      123.423      200.578       43.937        0.088        0.018       37.034        7.288        0.039      340.852       15.158      861.230
09/13/2013  06:30:00      -29.110      -11.109       -7.725        9.089        9.398        5.105       82.606       88.322       26.063        0.061        0.010       31.158        6.163        0.039      340.838       15.133      861.235
09/13/2013  06:31:00      -29.809      -18.322       -9.030       14.354        9.375        8.055      206.030       87.895       64.889        0.083        0.018       34.989        2.590        0.005      340.874       15.194      861.241
09/13/2013  06:32:00      -73.482      -23.494       -6.386       12.779       17.434        7.947      163.309      303.942       63.151        0.326        0.027       77.147        6.497        0.007      340.742       14.971      861.228
09/13/2013  06:33:00      -60.239      -37.278      -11.354        8.727        9.151        7.094       76.153       83.745       50.319        0.268        0.011       70.841        2.558        0.001      340.797       15.066      861.213
09/13/2013  06:34:00      -63.656      -36.604      -10.288        8.387       11.237        6.857       70.343      126.271       47.018        0.287        0.012       73.430        2.945        0.002      340.783       15.042      861.192
09/13/2013  06:35:00      -58.023      -31.252       -7.411       10.619        9.013        6.570      112.772       81.235       43.165        0.232        0.012       65.904        2.772        0.002      340.848       15.152      861.172
09/13/2013  06:36:00      -47.684      -34.084       -6.087        9.222        8.244        6.480       85.042       67.970       41.987        0.183        0.010       58.613        2.307        0.002      340.958       15.337      861.160
09/13/2013  06:37:00      -64.894      -20.766       -5.309       13.167        9.942        7.438      173.362       98.846       55.327        0.250        0.016       68.135        4.251        0.004      340.935       15.299      861.161
09/13/2013  06:38:00      -88.609      -10.767      -14.198       12.900       10.012        8.208      166.411      100.243       67.368        0.425        0.017       89.260        6.115        0.005      340.834       15.128      861.171
09/13/2013  06:39:00     -105.381        8.593      -14.927       19.500       14.328       10.925      380.245      205.289      119.358        0.605        0.035      105.731        9.942        0.009      340.717       14.930      861.185
09/13/2013  06:40:00     -112.432       13.617      -13.698       16.283       11.401       10.675      265.138      129.992      113.954        0.676        0.025      113.254        4.944        0.002      340.820       15.103      861.207
09/13/2013  06:41:00      -79.938        5.031      -12.088       20.198        8.871       10.144      407.954       78.689      102.911        0.358        0.029       80.096       10.018        0.016      340.893       15.227      861.223
09/13/2013  06:42:00      -61.012       -0.975       -7.087       13.906       16.181       13.443      193.376      261.831      180.723        0.220        0.032       61.020        9.748        0.026      340.810       15.086      861.247
09/13/2013  06:43:00      -57.090      -15.750      -12.645       14.148       15.334        9.720      200.166      235.147       94.476        0.210        0.026       59.222        8.040        0.018      340.751       14.988      861.261
09/13/2013  06:44:00      -53.093      -35.918      -15.098       16.249       20.363       11.373      264.019      414.670      129.346        0.257        0.040       64.101        8.253        0.017      340.745       14.976      861.271
09/13/2013  06:45:00      -33.393       -3.361       -1.646       20.343       18.488       14.758      413.838      341.824      217.791        0.105        0.049       33.561       10.218        0.093      340.711       14.919      861.276
09/13/2013  06:46:00      -36.227       -9.553       -8.687       25.190       11.418        8.728      634.517      130.371       76.183        0.116        0.042       37.466        5.905        0.025      340.695       14.895      861.282
09/13/2013  06:47:00      -39.307      -13.931       -2.280       17.182       11.237       13.074      295.207      126.276      170.930        0.117        0.030       41.703        6.315        0.023      340.672       14.855      861.290
09/13/2013  06:48:00      -51.829      -25.752      -11.463       12.676       13.618       11.475      160.686      185.448      131.684        0.198        0.024       57.873        7.585        0.017      340.726       14.946      861.299
09/13/2013  06:49:00      -72.673      -45.929       -8.069       19.025       23.797       15.171      361.959      566.314      230.157        0.431        0.058       85.970        9.861        0.013      340.638       14.796      861.305
09/13/2013  06:50:00      -79.829      -58.822       -1.511       27.302       20.324       17.683      745.414      413.054      312.685        0.565        0.074       99.160       16.396        0.027      340.608       14.746      861.316
09/13/2013  06:51:00      -81.362      -53.253       -2.933       28.110       22.604       21.506      790.150      510.937      462.509        0.561        0.088       97.240       12.869        0.018      340.621       14.767      861.327
09/13/2013  06:52:00      -93.053      -23.341      -10.909       17.000       17.450        8.389      289.006      304.498       70.368        0.499        0.033       95.935        4.372        0.002      340.654       14.823      861.340
09/13/2013  06:53:00      -82.612      -20.926       -5.890       10.406       12.488        9.213      108.278      155.963       84.887        0.382        0.017       85.221        4.695        0.003      340.695       14.894      861.354
09/13/2013  06:54:00      -74.260      -31.281      -12.217       11.643       10.696        9.174      135.549      114.394       84.162        0.349        0.017       80.579        4.697        0.003      340.731       14.954      861.374
09/13/2013  06:55:00      -66.233      -28.303       -9.050       18.715       25.693       11.275      350.261      660.132      127.128        0.320        0.057       72.027        8.162        0.013      340.732       14.956      861.392
09/13/2013  06:56:00      -79.422       -9.312       -9.652       19.436       11.586       11.189      377.769      134.236      125.200        0.356        0.032       79.966       11.379        0.020      340.789       15.052      861.410
09/13/2013  06:57:00      -98.921       -7.674      -14.029       14.011       10.226       10.980      196.310      104.570      120.558        0.523        0.021       99.219        7.816        0.006      340.833       15.126      861.422
09/13/2013  06:58:00      -76.158       -8.541       -9.231       22.286       17.354       11.847      496.657      301.152      140.346        0.345        0.047       76.635        8.620        0.013      340.799       15.070      861.426
09/13/2013  06:59:00      -58.123        9.661       -5.916       38.353       21.782       17.880     1470.924      474.435      319.703        0.289        0.113       58.921       16.368        0.077      340.847       15.148      861.419
09/13/2013  07:00:00      -55.526        3.195       -4.299       40.389       23.075       18.190     1631.286      532.451      330.877        0.280        0.125       55.617       14.879        0.072      340.847       15.149      861.419
09/13/2013  07:01:00     -105.703       26.511      -11.578       48.264       31.472       21.289     2329.385      990.508      453.234        0.789        0.189      108.977       14.229        0.017      340.864       15.180      861.421
09/13/2013  07:02:00      -79.631       10.359       -8.416       31.392       26.852       20.933      985.453      721.019      438.177        0.433        0.107       80.302       15.144        0.036      340.778       15.033      861.423
09/13/2013  07:03:00      -80.726        3.693       -5.958       35.411       35.777       18.711     1253.971     1279.969      350.108        0.472        0.144       80.810       19.836        0.060      340.820       15.105      861.435
09/13/2013  07:04:00      -72.475      -13.051       -7.914       20.203       26.300       13.782      408.153      691.687      189.950        0.339        0.064       73.640        9.215        0.016      340.790       15.054      861.441
09/13/2013  07:05:00      -81.422      -29.108        1.530       37.386       37.807       21.368     1397.702     1429.393      456.580        0.538        0.164       86.468       20.355        0.055      340.816       15.098      861.454
09/13/2013  07:06:00     -114.925      -30.077       -3.623       31.250       25.199       21.357      976.573      635.010      456.109        0.810        0.103      118.796       15.165        0.016      340.783       15.042      861.464
09/13/2013  07:07:00     -123.616      -21.517       -2.216       42.488       29.164       20.599     1805.263      850.512      424.301        0.941        0.154      125.475       23.781        0.036      340.781       15.039      861.470
09/13/2013  07:08:00      -96.997      -14.429       -7.780       40.312       21.737       18.757     1625.084      472.517      351.840        0.606        0.122       98.065       19.269        0.039      340.756       14.997      861.462
09/13/2013  07:09:00     -123.644      -16.897      -11.134       32.904       22.035       18.701     1082.690      485.523      349.724        0.881        0.096      124.793       17.368        0.019      340.771       15.021      861.476
09/13/2013  07:10:00     -111.728       11.493       -8.129       40.920       28.958       20.615     1674.484      838.570      424.989        0.781        0.147      112.317       20.315        0.033      340.799       15.068      861.501
09/13/2013  07:11:00     -102.404       28.511       -4.711       46.439       26.498       21.171     2156.542      702.154      448.196        0.731        0.165      106.299       23.782        0.050      340.887       15.218      861.511
09/13/2013  07:12:00      -95.218       19.007       -7.402       37.958       19.549       14.287     1440.796      382.170      204.124        0.575        0.101       97.097       11.040        0.013      340.946       15.319      861.534
09/13/2013  07:13:00      -67.284        4.714      -11.092       12.448       27.117       15.166      154.964      735.339      230.009        0.290        0.056       67.449       10.931        0.026      341.000       15.408      861.556
09/13/2013  07:14:00      -34.609       -3.135        4.639       15.075       15.414       16.913      227.254      237.606      286.040        0.099        0.038       34.751        9.771        0.079      341.066       15.520      861.568
09/13/2013  07:15:00      -35.894      -27.217        3.351       24.132       18.314       14.628      582.372      335.391      213.987        0.159        0.057       45.046        7.613        0.029      341.066       15.521      861.574
09/13/2013  07:16:00      -79.311      -37.832      -11.740       19.390       21.455       10.871      375.984      460.320      118.179        0.441        0.048       87.872        6.803        0.006      341.037       15.471      861.593
09/13/2013  07:17:00      -64.199      -22.195        1.408       21.245       22.385       15.539      451.345      501.084      241.453        0.290        0.060       67.927        9.729        0.021      341.062       15.514      861.604
09/13/2013  07:18:00      -83.531      -24.853       -0.021       32.210       37.191       16.432     1037.500     1383.143      270.025        0.514        0.135       87.149       13.340        0.023      341.052       15.496      861.613
09/13/2013  07:19:00      -72.698       11.425       -9.070       29.969       20.350       16.868      898.156      414.120      284.534        0.355        0.080       73.590       16.098        0.048      340.974       15.366      861.622
09/13/2013  07:20:00      -70.525        6.626       -6.714       13.387       15.315       10.907      179.215      234.553      118.959        0.280        0.027       70.835        8.358        0.014      340.995       15.401      861.627
09/13/2013  07:21:00      -85.492       -2.610       -5.050       20.621       18.206       12.147      425.232      331.444      147.556        0.412        0.045       85.532        8.859        0.011      340.996       15.401      861.614
09/13/2013  07:22:00      -74.036       -6.394       -3.056       28.077       17.472       13.414      788.336      305.259      179.924        0.340        0.064       74.312       14.967        0.041      341.043       15.484      861.615
09/13/2013  07:23:00      -74.117        6.948       -3.255       19.137       17.490       14.030      366.215      305.892      196.828        0.321        0.043       74.442       11.923        0.026      341.054       15.503      861.601
09/13/2013  07:24:00      -77.090      -19.151       -9.093       13.407       20.215       12.692      179.746      408.656      161.087        0.357        0.037       79.433        6.400        0.006      341.107       15.592      861.597
09/13/2013  07:25:00      -54.598      -26.114       -0.647       35.369       13.929       12.428     1250.988      194.029      154.467        0.263        0.080       60.521       13.282        0.048      341.201       15.750      861.595
09/13/2013  07:26:00      -91.666      -33.145       -5.878       25.481       15.817       13.799      649.292      250.183      190.409        0.531        0.054       97.474       10.060        0.011      341.202       15.753      861.586
09/13/2013  07:27:00      -96.226      -21.081       -5.963       21.113       16.745       17.123      445.741      280.404      293.213        0.538        0.051       98.509       15.250        0.024      341.205       15.756      861.591
09/13/2013  07:28:00      -67.585       -3.656        0.560       33.184       17.706       13.781     1101.201      313.489      189.917        0.309        0.080       67.684       13.936        0.042      341.255       15.840      861.567
09/13/2013  07:29:00      -93.529        7.568       -9.323       35.850       19.152       17.564     1285.231      366.801      308.506        0.543        0.098       93.834       17.812        0.036      341.246       15.826      861.560
09/13/2013  07:30:00     -117.294        8.953      -10.056       27.927       20.501       12.001      779.898      420.293      144.031        0.764        0.067      117.636        8.568        0.005      341.247       15.828      861.541
09/13/2013  07:31:00      -72.708       -3.522       -8.009       19.557       14.710        9.985      382.495      216.372       99.695        0.303        0.035       72.793        8.269        0.013      341.280       15.882      861.542
09/13/2013  07:32:00      -54.222        9.148       -2.778       17.770       19.211       11.215      315.771      369.077      125.785        0.192        0.041       54.988        7.523        0.019      341.381       16.054      861.542
09/13/2013  07:33:00      -40.222        8.915       -4.747       14.514       11.378        8.665      210.667      129.468       75.085        0.107        0.021       41.198        4.926        0.014      341.418       16.117      861.552
09/13/2013  07:34:00      -97.857       20.093       -9.267       22.550       22.103       13.808      508.501      488.530      190.650        0.563        0.059       99.899        8.779        0.008      341.520       16.290      861.557
09/13/2013  07:35:00     -103.840       18.286       -9.073       16.193       18.556        9.918      262.222      344.334       98.365        0.595        0.035      105.438        6.969        0.004      341.529       16.306      861.552
09/13/2013  07:36:00     -103.852       11.103      -12.356       20.029       16.657       13.267      401.144      277.442      176.005        0.596        0.043      104.444        8.446        0.007      341.570       16.374      861.546
09/13/2013  07:37:00     -105.262       16.423      -10.678       23.209       18.058       18.067      538.649      326.088      326.426        0.633        0.060      106.536       14.017        0.017      341.623       16.463      861.531
09/13/2013  07:38:00      -79.512       -0.756       -1.807       26.763       30.638       17.507      716.274      938.691      306.490        0.414        0.098       79.516       18.412        0.054      341.724       16.637      861.523
09/13/2013  07:39:00      -99.659      -16.363       -7.024       26.178       36.135       12.970      685.272     1305.770      168.215        0.620        0.108      100.993        8.382        0.007      341.744       16.670      861.520
09/13/2013  07:40:00      -50.797      -10.357       -0.076       25.029       17.249       10.462      626.436      297.534      109.447        0.186        0.052       51.842        6.728        0.017      341.799       16.763      861.513
09/13/2013  07:41:00      -35.561        9.640       -2.873       23.947       20.576       13.740      573.480      423.379      188.784        0.128        0.059       36.844       11.590        0.099      341.883       16.905      861.518
09/13/2013  07:42:00      -58.015        7.564       -6.369       28.378       18.290        9.723      805.338      334.537       94.532        0.235        0.062       58.506       10.049        0.029      341.851       16.849      861.536
09/13/2013  07:43:00      -43.135       -4.572       -6.529       30.510       13.832       10.612      930.846      191.321      112.620        0.158        0.062       43.377        5.703        0.017      341.903       16.937      861.547
09/13/2013  07:44:00      -29.709       15.770       -0.059       26.596       15.122       16.595      707.366      228.690      275.379        0.117        0.061       33.635       14.453        0.185      342.129       17.323      861.564
09/13/2013  07:45:00      -10.685       16.721        3.291       12.937       18.335       15.447      167.360      336.166      238.616        0.057        0.037       19.844        8.216        0.171      342.334       17.672      861.580
09/13/2013  07:46:00      -12.523       19.009        3.626       10.480       27.877       19.216      109.831      777.154      369.272        0.089        0.063       22.763        8.493        0.139      342.267       17.557      861.601
09/13/2013  07:47:00      -17.627        6.865       -2.342       14.580       16.727       13.921      212.566      279.798      193.802        0.052        0.034       18.916        7.544        0.159      342.245       17.518      861.609
09/13/2013  07:48:00      -10.263       12.546        6.374       14.956       15.620       13.568      223.694      243.986      184.089        0.048        0.033       16.209        8.425        0.270      342.444       17.858      861.618
09/13/2013  07:49:00        6.856       11.738       10.999       12.003        8.996       10.865      144.067       80.931      118.049        0.032        0.017       13.594        6.749        0.246      342.531       18.005      861.609
09/13/2013  07:50:00       -0.210       14.160       11.489       12.663       13.351       12.934      160.345      178.236      167.279        0.042        0.025       14.162        8.678        0.375      342.635       18.183      861.605
09/13/2013  07:51:00       -2.591        9.676       17.732       12.253       15.018       15.183      150.129      225.532      230.525        0.051        0.030       10.017        8.496        0.719      342.865       18.575      861.599
09/13/2013  07:52:00       -6.489       -1.505        0.125        9.941       12.647       12.734       98.831      159.958      162.153        0.023        0.021        6.661       10.865        2.661      342.430       17.833      861.583
09/13/2013  07:53:00        0.444       10.579       16.252       14.958       12.638        7.824      223.748      159.717       61.214        0.041        0.022       10.589        6.300        0.354      342.627       18.169      861.569
09/13/2013  07:54:00        4.018       -5.393       14.177       20.803       25.701       19.038      432.746      660.563      362.442        0.085        0.073        6.725       17.004        6.393      342.514       17.976      861.557
09/13/2013  07:55:00       11.880      -17.688       13.889       18.602       22.907       26.005      346.031      524.731      676.263        0.110        0.077       21.307       12.881        0.365      342.345       17.692      861.552
09/13/2013  07:56:00       12.650        2.831       26.117       14.650       18.121       11.165      214.624      328.368      124.657        0.076        0.033       12.963        6.812        0.276      342.522       17.990      861.553
09/13/2013  07:57:00       11.882        6.977       18.027       13.221       13.972       11.779      174.787      195.218      138.742        0.051        0.025       13.779        9.044        0.431      342.533       18.010      861.556
09/13/2013  07:58:00        2.343        6.890       17.582       10.968       15.652       11.755      120.287      244.998      138.182        0.043        0.025        7.278        8.510        1.367      342.856       18.558      861.555
09/13/2013  07:59:00       18.444       -6.810       11.158       14.255       31.390       14.782      203.195      985.338      218.514        0.096        0.070       19.661        9.838        0.250      342.616       18.149      861.554
09/13/2013  08:00:00       13.115      -40.313        8.186       14.348       18.174       16.340      205.879      330.284      266.990        0.133        0.040       42.392       13.416        0.100      342.448       17.865      861.555
09/13/2013  08:01:00       16.842       -2.640       25.133       21.106       30.026       15.996      445.469      901.571      255.878        0.126        0.080       17.047       17.814        1.092      342.751       18.379      861.550
09/13/2013  08:02:00       18.627       10.528       19.924       19.668       16.461       25.677      386.821      270.956      659.301        0.109        0.066       21.396       15.096        0.498      342.821       18.499      861.560
09/13/2013  08:03:00        1.644      -12.871       27.022       10.512       19.949       12.436      110.509      397.955      154.653        0.078        0.033       12.976       10.261        0.625      342.958       18.732      861.577
09/13/2013  08:04:00        3.554        9.399       31.535       18.475       19.696       15.499      341.323      387.929      240.211        0.103        0.048       10.048        9.043        0.810      342.873       18.587      861.586
09/13/2013  08:05:00        8.474       15.429       42.917       32.275       40.444       25.272     1041.700     1635.748      638.684        0.273        0.166       17.603       20.598        1.369      342.625       18.166      861.585
09/13/2013  08:06:00       56.256       72.258       38.408       34.443       27.054       21.778     1186.333      731.906      474.268        0.613        0.120       91.575       12.752        0.019      342.488       17.933      861.579
09/13/2013  08:07:00       27.899       -5.573       11.051       36.465       45.812       29.397     1329.674     2098.694      864.168        0.261        0.215       28.450       17.445        0.376      342.468       17.899      861.570
09/13/2013  08:08:00       11.910      -23.768       16.860       26.016       31.022       20.710      676.822      962.372      428.921        0.153        0.103       26.585       19.877        0.559      342.710       18.311      861.550
09/13/2013  08:09:00       -0.763      -23.885       24.243       16.254       35.584       16.680      264.177     1266.206      278.206        0.148        0.090       23.897       11.044        0.214      342.887       18.612      861.532
09/13/2013  08:10:00        5.230        4.980       12.471       19.037       23.078       16.108      362.419      532.599      259.461        0.068        0.058        7.222       12.945        3.213      342.842       18.534      861.525
09/13/2013  08:11:00      -17.039       -9.513        7.188       13.796       18.797       17.437      190.333      353.315      304.054        0.064        0.042       19.515       13.842        0.503      342.752       18.381      861.524
09/13/2013  08:12:00      -34.764       -9.490        3.591        7.865       12.166        9.206       61.862      148.001       84.752        0.080        0.015       36.036        6.178        0.029      342.513       17.976      861.532
09/13/2013  08:13:00       -7.489      -12.427        3.494       20.078       21.022       13.593      403.134      441.945      184.772        0.063        0.051       14.509        8.842        0.371      342.627       18.169      861.541
09/13/2013  08:14:00      -27.278      -15.970        3.137       19.314       18.706       14.793      373.025      349.927      218.842        0.098        0.047       31.609       14.285        0.204      342.763       18.400      861.545
09/13/2013  08:15:00        2.483        0.484       15.003       15.621       19.272       19.891      244.008      371.392      395.645        0.062        0.051        2.530        5.066        4.010      343.116       19.002      861.545
09/13/2013  08:16:00      -30.426      -34.847       14.909       34.071       38.342       27.876     1160.833     1470.141      777.084        0.288        0.170       46.261       20.625        0.199      342.842       18.535      861.533
09/13/2013  08:17:00      -58.212       -9.132       -3.313       35.827       24.557       13.840     1283.605      603.036      191.555        0.278        0.104       58.924       11.231        0.036      342.683       18.264      861.547
09/13/2013  08:18:00      -40.358       -1.471       10.989       32.510       18.752       14.875     1056.909      351.650      221.272        0.169        0.081       40.385       13.541        0.112      342.794       18.453      861.555
09/13/2013  08:19:00      -29.520        8.225        0.670       17.893       18.203       11.956      320.152      331.344      142.937        0.087        0.040       30.645        7.534        0.060      342.757       18.392      861.567
09/13/2013  08:20:00      -63.174      -18.386       -1.676       16.952       29.763       13.482      287.380      885.864      181.767        0.284        0.068       65.795       10.162        0.024      342.560       18.056      861.578
09/13/2013  08:21:00      -23.813      -30.629        4.080       24.366       22.377       12.443      593.718      500.729      154.830        0.139        0.062       38.797        8.728        0.051      342.547       18.034      861.596
09/13/2013  08:22:00      -38.426      -64.047       -3.889       15.983       23.366       10.923      255.463      545.956      119.313        0.326        0.046       74.690        9.617        0.017      342.500       17.954      861.607
09/13/2013  08:23:00      -61.473      -56.329      -15.107       13.690       11.442       10.110      187.419      130.926      102.216        0.380        0.021       83.378        7.987        0.009      342.483       17.924      861.619
09/13/2013  08:24:00      -36.682      -16.676      -11.751        9.708       10.940        5.695       94.240      119.674       32.430        0.100        0.012       40.294        3.807        0.009      342.564       18.064      861.629
09/13/2013  08:25:00      -36.210      -24.349       -3.468       10.664       10.542        6.409      113.710      111.144       41.071        0.109        0.013       43.635        3.336        0.006      342.599       18.122      861.637
09/13/2013  08:26:00      -47.430      -21.210       -2.285       14.286       14.088        8.336      204.103      198.462       69.490        0.159        0.024       51.957        4.647        0.008      342.598       18.119      861.637
09/13/2013  08:27:00      -38.823       -5.769       -0.834       16.387       23.305       13.480      268.524      543.126      181.720        0.127        0.050       39.249        9.818        0.063      342.657       18.219      861.631
09/13/2013  08:28:00      -41.746        4.949      -10.693       15.668       17.381        9.686      245.486      302.100       93.813        0.126        0.032       42.039        6.322        0.023      342.636       18.184      861.612
09/13/2013  08:29:00      -46.352      -11.154       -4.099       12.122       18.227        9.421      146.933      332.209       88.746        0.143        0.028       47.676        7.361        0.024      342.634       18.180      861.612
09/13/2013  08:30:00      -60.063        1.211       -3.173       16.501       14.902        9.562      272.295      222.056       91.434        0.210        0.029       60.076        8.554        0.020      342.644       18.198      861.600
09/13/2013  08:31:00      -58.122        9.147       -6.667       13.236       11.913       14.344      175.196      141.914      205.763        0.201        0.026       58.837        7.212        0.015      342.644       18.199      861.595
09/13/2013  08:32:00      -33.082        2.039       -3.381       12.499        9.856        8.352      156.234       97.150       69.749        0.072        0.016       33.145        8.074        0.059      342.696       18.287      861.604
09/13/2013  08:33:00      -27.926        4.596       -9.417        6.992        6.873        9.031       48.893       47.234       81.552        0.053        0.009       28.302        6.021        0.045      342.739       18.362      861.612
09/13/2013  08:34:00      -35.086       -3.985       -5.900       10.311        8.280        8.016      106.323       68.552       64.258        0.076        0.012       35.312        5.928        0.028      342.740       18.361      861.623
09/13/2013  08:35:00      -39.081      -23.203       -1.159       13.290        9.309       13.959      176.628       86.649      194.851        0.126        0.023       45.450        6.883        0.023      342.801       18.466      861.628
09/13/2013  08:36:00      -20.061      -28.247      -11.376        8.465        8.109        8.364       71.659       65.754       69.956        0.077        0.010       34.646        2.863        0.007      342.787       18.440      861.626
09/13/2013  08:37:00      -26.499        5.624       -5.477       14.389       10.205        8.075      207.033      104.136       65.202        0.057        0.019       27.089        5.520        0.042      342.877       18.595      861.620
09/13/2013  08:38:00      -33.822       18.198       -4.990       12.599       15.045       13.361      158.727      226.353      178.524        0.103        0.028       38.407        9.029        0.055      342.908       18.648      861.610
09/13/2013  08:39:00       -8.803       -3.759       -2.343       13.806       11.591       10.679      190.594      134.342      114.037        0.027        0.022        9.572        6.665        0.485      343.064       18.913      861.602
09/13/2013  08:40:00      -15.226       -9.035        3.997       10.557       19.889       10.351      111.453      395.560      107.152        0.047        0.031       17.705        6.853        0.150      343.128       19.023      861.602
09/13/2013  08:41:00      -25.827       -9.461       10.801       20.243       16.549       15.619      409.761      273.878      243.943        0.090        0.046       27.506       14.022        0.260      343.466       19.597      861.597
09/13/2013  08:42:00        5.886       19.666       16.418       27.190       18.946       17.750      739.298      358.953      315.047        0.105        0.071       20.528        8.213        0.160      343.692       19.982      861.599
09/13/2013  08:43:00       12.644      -12.806       12.935       36.236       26.374       22.803     1313.066      695.575      519.986        0.151        0.126       17.996       18.554        1.063      343.330       19.365      861.596
09/13/2013  08:44:00        8.281      -31.609        9.888       27.341       29.815       27.038      747.528      888.906      731.041        0.177        0.118       32.676       14.636        0.201      343.227       19.189      861.592
09/13/2013  08:45:00      -17.825      -38.041        3.734       17.399       16.022       17.708      302.727      256.720      313.560        0.133        0.044       42.010        9.374        0.050      343.191       19.129      861.592
09/13/2013  08:46:00       11.933      -19.873       17.433       28.582       29.952       27.747      816.926      897.103      769.918        0.166        0.124       23.180       18.693        0.650      343.443       19.559      861.590
09/13/2013  08:47:00       32.131      -30.188       -1.934       29.058       25.435       25.768      844.384      646.921      664.014        0.205        0.108       44.087       10.776        0.060      343.307       19.327      861.597
09/13/2013  08:48:00       10.868       -5.215       27.369       19.235       35.615       20.155      369.973     1268.407      406.223        0.147        0.102       12.054       22.450        3.469      343.669       19.943      861.597
09/13/2013  08:49:00       24.161       34.063       51.530       27.591       20.996       11.451      761.281      440.814      131.118        0.287        0.067       41.762        8.128        0.038      343.715       20.022      861.599
09/13/2013  08:50:00       29.503       16.307       31.860       31.913       22.568       22.071     1018.409      509.323      487.137        0.208        0.101       33.709       15.006        0.198      343.700       19.997      861.603
09/13/2013  08:51:00       38.345       23.254       32.737       25.636       13.228       22.180      657.214      174.977      491.970        0.220        0.066       44.845       12.932        0.083      343.611       19.845      861.600
09/13/2013  08:52:00        7.585       39.513      -20.344       19.851       14.774        9.378      394.075      218.270       87.938        0.137        0.035       40.235        6.352        0.025      343.258       19.244      861.599
09/13/2013  08:53:00      -26.909       19.899      -12.097       18.780       21.536       13.439      352.671      463.794      180.600        0.113        0.050       33.467        9.811        0.086      343.427       19.532      861.592
09/13/2013  08:54:00      -36.761      -37.314       -2.304       33.460       45.869       14.388     1119.585     2103.953      207.023        0.309        0.172       52.380       13.866        0.070      343.265       19.255      861.587
09/13/2013  08:55:00      -34.552      -67.154       -3.179       27.186       32.636       18.078      739.062     1065.130      326.819        0.392        0.107       75.522       15.861        0.044      343.326       19.359      861.584
09/13/2013  08:56:00       -5.865      -67.790        0.500       14.758       19.071       12.342      217.812      363.693      152.324        0.268        0.037       68.044       10.503        0.024      343.307       19.326      861.587
09/13/2013  08:57:00      -61.790      -31.279       -6.339       16.528       20.822       12.626      273.163      433.560      159.408        0.285        0.043       69.256        7.630        0.012      343.366       19.428      861.597
09/13/2013  08:58:00      -67.208      -29.574       -8.960       35.030       21.404       15.633     1227.134      458.129      244.378        0.370        0.096       73.427       13.596        0.034      343.352       19.402      861.596
09/13/2013  08:59:00      -38.214       -5.697       -4.903       21.480       16.524       17.870      461.398      273.046      319.353        0.129        0.053       38.636       18.403        0.227      343.496       19.649      861.593
09/13/2013  09:00:00      -31.426      -18.154       -6.391       14.390       14.505       12.301      207.077      210.403      151.326        0.096        0.028       36.292        8.245        0.052      343.490       19.639      861.586
09/13/2013  09:01:00       -3.202      -66.613       -7.279       29.678       24.216       18.470      880.758      586.417      341.133        0.315        0.090       66.690       13.620        0.042      343.484       19.629      861.580
09/13/2013  09:02:00      -12.279      -30.954       18.254       47.395       28.825       26.588     2246.304      830.860      706.945        0.261        0.189       33.301       30.844        0.858      343.709       20.012      861.572
09/13/2013  09:03:00       -9.854      -27.430        2.474       19.420       30.552       16.307      377.122      933.413      265.924        0.122        0.079       29.146       14.479        0.247      343.777       20.129      861.565
09/13/2013  09:04:00      -13.990      -63.618       11.917       31.079       47.063       18.420      965.934     2214.940      339.279        0.395        0.176       65.138       16.243        0.062      343.750       20.081      861.557
09/13/2013  09:05:00      -61.913     -110.343       -0.281       56.564       42.702       21.442     3199.535     1823.499      459.748        1.074        0.274      126.526       20.119        0.025      343.544       19.730      861.552
09/13/2013  09:06:00      -71.015     -106.270      -10.639       28.199       29.976       17.631      795.208      898.575      310.860        0.923        0.100      127.814       15.555        0.015      343.535       19.715      861.546
09/13/2013  09:07:00      -40.283      -64.536       -6.035       25.116       31.915        9.299      630.818     1018.546       86.476        0.378        0.087       76.076        6.423        0.007      343.457       19.582      861.540
09/13/2013  09:08:00      -48.186     -118.057        1.173       30.995       22.838       18.965      960.663      521.573      359.662        0.905        0.092      127.512       13.838        0.012      343.534       19.712      861.536
09/13/2013  09:09:00      -28.877      -57.048       -0.456       29.285       38.673       21.865      857.633     1495.572      478.060        0.346        0.142       63.940       17.278        0.073      343.631       19.878      861.516
09/13/2013  09:10:00      -55.901      -56.743       -7.029       24.784       36.071       15.853      614.226     1301.088      251.312        0.428        0.108       79.654       16.013        0.040      343.637       19.886      861.516
09/13/2013  09:11:00      -47.934      -18.936        0.272       14.429       12.904        9.102      208.190      166.506       82.839        0.156        0.023       51.539        6.856        0.018      343.717       20.026      861.513
09/13/2013  09:12:00      -69.918      -89.121       -6.756       32.639       48.455       14.521     1065.302     2347.846      210.859        0.825        0.181      113.275       13.149        0.013      343.676       19.954      861.516
09/13/2013  09:13:00      -30.475      -71.710       19.606       46.286       49.981       23.402     2142.431     2498.110      547.661        0.582        0.259       77.917       26.508        0.116      343.921       20.373      861.514
09/13/2013  09:14:00      -46.327      -93.711       -8.861       37.632       33.027       21.864     1416.203     1090.762      478.027        0.700        0.149      104.537       18.902        0.033      343.753       20.087      861.521
09/13/2013  09:15:00      -11.498      -60.213       -1.080       21.555       18.601       12.018      464.625      346.001      144.421        0.236        0.048       61.301        6.786        0.012      343.796       20.159      861.528
09/13/2013  09:16:00      -13.282      -41.077        5.920       28.543       16.668       11.205      814.708      277.808      125.548        0.156        0.061       43.171       11.729        0.074      343.762       20.103      861.522
09/13/2013  09:17:00      -25.690        7.129       10.793       19.081       14.240       15.713      364.092      202.784      246.905        0.082        0.041       26.660       14.035        0.277      344.322       21.060      861.513
09/13/2013  09:18:00      -32.869        5.509        5.648       16.173       13.231       13.738      261.561      175.054      188.730        0.088        0.031       33.327       10.575        0.101      344.136       20.741      861.509
09/13/2013  09:19:00      -11.482      -33.399       14.668       21.021       37.106       22.477      441.870     1376.868      505.197        0.189        0.116       35.318       16.391        0.215      344.496       21.356      861.501
09/13/2013  09:20:00        0.619       -0.624       30.604       15.176       23.095       25.927      230.300      533.370      672.222        0.119        0.072        0.879       20.960      568.813      344.977       22.180      861.506
09/13/2013  09:21:00      -42.595      -34.224        9.908       49.020       40.817       25.157     2402.934     1666.035      632.854        0.389        0.235       54.640       20.985        0.148      344.419       21.224      861.508
09/13/2013  09:22:00      -84.845      -60.863       -3.960       55.498       28.883       24.742     3080.023      834.222      612.161        0.772        0.226      104.417       24.750        0.056      344.027       20.553      861.514
09/13/2013  09:23:00      -71.631      -50.348       -4.545       31.892       22.344       19.484     1017.093      499.244      379.643        0.479        0.095       87.556        7.066        0.007      343.970       20.456      861.512
09/13/2013  09:24:00      -83.473      -35.036       -3.633       33.719       24.238       17.494     1136.997      587.488      306.057        0.512        0.102       90.528       15.971        0.031      344.033       20.566      861.512
09/13/2013  09:25:00      -73.320      -20.532        2.936       41.162       25.223       18.126     1694.287      636.197      328.554        0.423        0.133       76.141       19.141        0.063      344.025       20.551      861.515
09/13/2013  09:26:00      -19.827      -37.946        3.025       23.064       28.868       18.380      531.964      833.378      337.813        0.177        0.085       42.813       14.353        0.112      344.160       20.783      861.523
09/13/2013  09:27:00      -12.995      -60.494        4.461       14.693       23.608       14.080      215.886      557.349      198.237        0.241        0.049       61.874        7.860        0.016      343.967       20.452      861.513
09/13/2013  09:28:00      -27.447      -44.276        4.773       14.716       26.464       14.579      216.571      700.364      212.551        0.193        0.056       52.093        6.624        0.016      344.068       20.624      861.521
09/13/2013  09:29:00      -42.636      -23.635       -5.567       14.012       20.221       10.759      196.326      408.891      115.747        0.156        0.036       48.749        7.196        0.022      344.070       20.629      861.518
09/13/2013  09:30:00      -37.291       -2.447        3.841       15.338       14.957       12.215      235.250      223.702      149.218        0.101        0.030       37.371       10.281        0.076      344.308       21.037      861.514
09/13/2013  09:31:00      -39.939      -26.537       -9.043       32.832       17.114       12.475     1077.924      292.904      155.636        0.195        0.076       47.951        8.047        0.028      344.193       20.837      861.516
09/13/2013  09:32:00      -44.212      -30.892       -1.099       29.725       18.439       15.216      883.567      339.996      231.522        0.218        0.073       53.935        6.421        0.014      344.200       20.848      861.511
09/13/2013  09:33:00      -39.662      -32.301        7.532       20.810       19.686       20.137      433.047      387.542      405.488        0.195        0.061       51.151       14.180        0.077      344.420       21.225      861.504
09/13/2013  09:34:00       70.058      -39.436        5.768       62.817       48.348       30.014     3946.028     2337.559      900.824        0.684        0.359       80.395       27.575        0.118      344.383       21.163      861.486
09/13/2013  09:35:00       10.019     -110.981      -13.156       58.110       42.591       31.496     3376.734     1813.981      991.987        0.939        0.309      111.432       27.102        0.059      344.393       21.179      861.466
09/13/2013  09:36:00       -6.656      -63.597       19.079       48.877       45.774       32.766     2388.966     2095.253     1073.610        0.500        0.278       63.944       23.256        0.132      344.666       21.648      861.459
09/13/2013  09:37:00       31.190      -75.425        8.802       44.486       69.471       46.714     1978.964     4826.230     2182.193        0.786        0.449       81.619       52.001        0.406      345.032       22.273      861.444
09/13/2013  09:38:00       20.683      -52.001       23.869       43.235       65.346       47.257     1869.241     4270.061     2233.214        0.604        0.419       55.963       33.301        0.354      344.952       22.136      861.425
09/13/2013  09:39:00       32.854      -18.508       27.884       39.191       52.519       40.753     1535.954     2758.276     1660.834        0.408        0.298       37.709       38.938        1.066      345.145       22.467      861.423
09/13/2013  09:40:00        3.018      -16.748       32.547       19.109       42.422       19.858      365.169     1799.654      394.324        0.195        0.128       17.018       16.947        0.992      345.168       22.506      861.412
09/13/2013  09:41:00       10.056      -59.988       -5.536       25.581       34.299       16.821      654.374     1176.414      282.939        0.292        0.106       60.825       12.772        0.044      344.624       21.574      861.410
09/13/2013  09:42:00       15.212      -43.346       27.637       27.489       33.165       22.456      755.652     1099.941      504.256        0.262        0.118       45.937       17.573        0.146      344.876       22.005      861.389
09/13/2013  09:43:00       47.531      -31.368       18.838       33.799       36.509       26.413     1142.368     1332.932      697.658        0.338        0.159       56.949       15.745        0.076      344.609       21.550      861.378
09/13/2013  09:44:00       -6.143       37.409       -0.099       20.089       26.442       17.306      403.573      699.185      299.498        0.142        0.070       37.910       16.864        0.198      344.595       21.525      861.364
09/13/2013  09:45:00        9.614        7.306       58.187       22.623       23.858       17.059      511.789      569.183      291.004        0.245        0.069       12.075        8.726        0.522      345.677       23.378      861.342
09/13/2013  09:46:00      -62.007      -15.289       12.585       33.048       37.038       31.321     1092.156     1371.833      981.007        0.384        0.172       63.864       30.072        0.222      344.655       21.628      861.343
09/13/2013  09:47:00      -22.433      -69.588       -9.309       52.926       25.217       23.840     2801.196      635.877      568.364        0.472        0.200       73.114       11.753        0.026      344.464       21.301      861.330
09/13/2013  09:48:00      -11.080      -24.382       -1.653       51.152       25.998       22.157     2616.512      675.890      490.913        0.225        0.189       26.781       22.238        0.689      344.677       21.665      861.327
09/13/2013  09:49:00      -15.589      -31.634        5.829       33.776       19.378       22.401     1140.794      375.519      501.818        0.165        0.101       35.266       20.834        0.349      344.589       21.516      861.321
09/13/2013  09:50:00      -43.127      -20.083      -17.204       29.180       17.119       23.429      851.483      293.051      548.932        0.213        0.085       47.574       23.367        0.241      344.553       21.454      861.315
09/13/2013  09:51:00      -33.222      -31.829       20.433       34.642       28.986       29.809     1200.068      840.167      888.567        0.273        0.146       46.009       27.390        0.354      344.980       22.185      861.310
09/13/2013  09:52:00       17.160       19.577       45.613       30.459       23.845       17.766      927.781      568.591      315.623        0.228        0.091       26.033       16.816        0.417      345.372       22.856      861.314
09/13/2013  09:53:00       11.471      -25.105        0.366       33.692       31.399       21.631     1135.157      985.871      467.920        0.167        0.129       27.602       20.364        0.544      344.815       21.903      861.310
09/13/2013  09:54:00       -0.341        1.864       21.243       28.855       30.582       22.550      832.609      935.286      508.518        0.137        0.114        1.895       11.092       34.253      345.252       22.651      861.298
09/13/2013  09:55:00      -59.154       11.110       -1.064       24.671       19.827       13.623      608.646      393.126      185.575        0.241        0.059       60.189        8.190        0.019      344.726       21.749      861.289
09/13/2013  09:56:00      -34.245      -10.348       -3.520       11.984       13.159       11.269      143.611      173.162      126.980        0.087        0.022       35.774        9.740        0.074      344.587       21.512      861.282
09/13/2013  09:57:00      -35.032        4.342        4.625        8.235       10.677        7.151       67.811      114.000       51.132        0.075        0.012       35.300        4.168        0.014      344.575       21.489      861.268
09/13/2013  09:58:00      -10.008        6.304       16.906       16.141       24.392       27.621      260.537      594.956      762.912        0.102        0.081       11.828       22.514        3.623      345.110       22.406      861.259
09/13/2013  09:59:00       17.639       27.525       35.428       26.150       29.755       24.297      683.830      885.386      590.361        0.224        0.108       32.692       10.740        0.108      345.565       23.187      861.243
09/13/2013  10:00:00       11.155        5.091       46.239       34.129       31.995       20.575     1164.777     1023.680      423.320        0.245        0.131       12.262       13.933        1.291      345.671       23.368      861.251
09/13/2013  10:01:00       25.453      -52.511       19.832       29.029       54.536       35.580      842.672     2974.159     1265.957        0.444        0.254       58.355       31.546        0.292      345.319       22.765      861.251
09/13/2013  10:02:00       26.151      -63.877       20.053       33.576       52.846       35.190     1127.323     2792.716     1238.370        0.516        0.258       69.023       32.629        0.223      345.460       23.007      861.256
09/13/2013  10:03:00      -28.820        1.524       17.732       23.357       29.907       20.059      545.552      894.445      402.373        0.149        0.092       28.860       14.621        0.257      345.371       22.853      861.253
09/13/2013  10:04:00      -19.826      -24.621       -1.979       26.591       20.123       16.417      707.070      404.945      269.524        0.119        0.069       31.611       12.596        0.159      345.211       22.580      861.272
09/13/2013  10:05:00      -22.819      -22.097       18.184       26.487       36.647       25.515      701.578     1343.029      650.995        0.202        0.135       31.764       21.270        0.448      345.532       23.129      861.270
09/13/2013  10:06:00      -30.437      -10.469        0.305       28.921       38.027       17.889      836.418     1446.085      320.033        0.182        0.130       32.187       12.744        0.157      345.267       22.675      861.279
09/13/2013  10:07:00      -22.601        5.205       29.132       32.514       37.873       40.176     1057.181     1434.332     1614.090        0.275        0.205       23.192       34.064        2.157      345.770       23.540      861.273
09/13/2013  10:08:00       38.786       24.101       41.331       38.422       33.894       27.712     1476.252     1148.795      767.980        0.359        0.170       45.664       22.485        0.242      345.650       23.333      861.270
09/13/2013  10:09:00       38.368       17.360        2.196       22.904       30.676       22.866      524.589      941.010      522.831        0.188        0.099       42.113       11.098        0.069      345.251       22.650      861.252
09/13/2013  10:10:00      -27.957      -21.230        5.697       17.276       24.295       15.272      298.455      590.238      233.246        0.119        0.056       35.104       10.296        0.086      345.340       22.801      861.246
09/13/2013  10:11:00      -17.578      -39.160       21.649       39.091       45.487       31.163     1528.118     2069.062      971.140        0.344        0.228       42.924       17.873        0.173      345.598       23.243      861.229
09/13/2013  10:12:00      -43.292      -48.739       24.954       62.856       40.339       34.535     3950.886     1627.225     1192.699        0.582        0.339       65.190       36.508        0.314      345.420       22.938      861.214
09/13/2013  10:13:00       26.380      -29.803       19.717       60.965       66.856       47.647     3716.790     4469.728     2270.281        0.621        0.523       39.801       47.192        1.406      345.724       23.460      861.206
09/13/2013  10:14:00       20.546       -5.925       56.555       40.374       60.151       41.767     1630.097     3618.189     1744.496        0.532        0.350       21.383       37.995        3.157      345.958       23.862      861.192
09/13/2013  10:15:00       19.897       55.702       81.600       52.633       90.872       60.553     2770.260     8257.759     3666.637        1.242        0.735       59.149       62.778        1.126      345.589       23.228      861.182
09/13/2013  10:16:00       37.791        3.899       38.987       45.630       51.451       45.605     2082.115     2647.177     2079.818        0.488        0.340       37.991       35.239        0.860      345.695       23.409      861.180
09/13/2013  10:17:00       26.710        7.519       34.429       39.307       42.273       37.607     1545.047     1787.002     1414.289        0.335        0.237       27.749       24.530        0.781      345.852       23.678      861.183
09/13/2013  10:18:00       31.583      -27.619        6.082       33.430       43.462       40.766     1117.540     1888.970     1661.841        0.323        0.233       41.956       34.558        0.678      345.326       22.777      861.170
09/13/2013  10:19:00       22.728      -60.193      -19.962       23.823       24.814       17.073      567.540      615.716      291.478        0.301        0.074       64.341       14.729        0.052      344.947       22.128      861.169
09/13/2013  10:20:00      -47.438      -12.794      -29.890       24.322       19.148       16.191      591.584      366.628      262.145        0.226        0.061       49.133        5.305        0.012      344.999       22.215      861.162
09/13/2013  10:21:00      -55.327       42.422      -21.886       22.270       42.127       20.825      495.975     1774.680      433.686        0.402        0.135       69.719       14.671        0.044      344.991       22.203      861.160
09/13/2013  10:22:00      -32.656        7.463      -16.899       11.183       20.944       12.367      125.051      438.654      152.934        0.106        0.036       33.498       11.178        0.111      345.070       22.338      861.162
09/13/2013  10:23:00        8.301        7.662       24.232       17.882       11.874       17.451      319.754      140.982      304.537        0.074        0.038       11.297        8.443        0.559      346.205       24.286      861.156
09/13/2013  10:24:00       84.948       58.649       10.323       31.556       20.384       20.499      995.753      415.491      420.210        0.630        0.092      103.228        9.838        0.009      345.340       22.801      861.161
09/13/2013  10:25:00      118.619       77.832       20.984       47.967       38.890       32.590     2300.878     1512.407     1062.126        1.272        0.244      141.874       21.711        0.023      345.489       23.055      861.139
09/13/2013  10:26:00       68.683       66.756       33.472       60.918       45.385       39.917     3711.041     2059.771     1593.400        0.883        0.368       95.780       27.554        0.083      345.617       23.276      861.141
09/13/2013  10:27:00       45.925       32.948       60.585       49.658       72.746       41.002     2465.891     5291.954     1681.199        0.815        0.472       56.522       31.500        0.311      345.768       23.534      861.122
09/13/2013  10:28:00       16.514       59.884       59.232       32.455       40.010       21.531     1053.299     1600.765      463.588        0.524        0.156       62.119       13.908        0.050      345.930       23.814      861.124
09/13/2013  10:29:00       46.668       78.076       52.025       48.659       43.298       39.539     2367.688     1874.675     1563.360        0.839        0.290       90.961       26.213        0.083      345.714       23.441      861.119
09/13/2013  10:30:00       85.594       59.957       32.499       50.130       37.155       39.788     2513.049     1380.529     1583.086        0.873        0.274      104.505       14.941        0.020      345.590       23.230      861.105
09/13/2013  10:31:00       51.998       45.656       49.662       55.477       50.251       40.916     3077.752     2525.114     1674.085        0.726        0.364       69.197       29.012        0.176      346.132       24.160      861.106
09/13/2013  10:32:00       39.883       37.187       36.718       28.969       30.553       23.222      839.191      933.473      539.269        0.332        0.116       54.529       14.450        0.070      345.731       23.471      861.090
09/13/2013  10:33:00       17.906       19.871       42.032       52.134       33.168       37.995     2717.940     1100.115     1443.586        0.387        0.263       26.748       34.317        1.646      345.742       23.490      861.092
09/13/2013  10:34:00       92.681       63.794       30.345       45.172       30.263       31.968     2040.483      915.826     1021.958        0.878        0.199      112.514       23.434        0.043      345.338       22.797      861.078
09/13/2013  10:35:00       85.760       47.120       37.536       53.279       41.397       35.331     2838.697     1713.682     1248.260        0.839        0.290       97.853       21.788        0.050      345.694       23.408      861.069
09/13/2013  10:36:00      136.204       92.247       17.890       48.091       41.650       48.445     2312.767     1734.720     2346.948        1.689        0.320      164.502       24.497        0.022      345.398       22.899      861.054
09/13/2013  10:37:00       69.559       76.101       14.236       57.153       43.534       48.595     3266.489     1895.238     2361.429        0.918        0.376      103.101       33.872        0.108      345.580       23.211      861.042
09/13/2013  10:38:00        9.356       71.431       15.928       31.352       49.583       38.899      982.960     2458.477     1513.157        0.520        0.248       72.041       31.264        0.188      345.847       23.669      861.030
09/13/2013  10:39:00       55.790       53.521       13.423       27.140       28.542       28.799      736.568      814.665      829.364        0.427        0.119       77.311       13.471        0.030      345.779       23.553      861.013
09/13/2013  10:40:00       40.423       39.035        8.375       31.974       20.164       23.114     1022.309      406.577      534.238        0.260        0.098       56.194       15.297        0.074      345.812       23.609      861.004
09/13/2013  10:41:00       72.594       58.859       23.587       25.085       26.415       28.347      629.249      697.746      803.560        0.571        0.107       93.457       10.975        0.014      345.708       23.432      860.989
09/13/2013  10:42:00       61.052       64.132       35.240       51.963       37.820       44.416     2700.201     1430.340     1972.812        0.759        0.305       88.545       35.433        0.160      345.831       23.643      860.980
09/13/2013  10:43:00       62.037       52.025       25.928       44.932       37.635       28.363     2018.857     1416.360      804.445        0.573        0.212       80.964       19.382        0.057      345.816       23.616      860.975
09/13/2013  10:44:00       28.794       77.916       97.006       47.586       48.421       31.585     2264.454     2344.586      997.588        1.096        0.280       83.066       19.414        0.055      346.332       24.505      860.951
09/13/2013  10:45:00      110.845       96.385       57.633       55.260       37.813       41.019     3053.695     1429.809     1682.543        1.553        0.308      146.890       28.236        0.037      345.496       23.066      860.948
09/13/2013  10:46:00       97.591       69.814       21.671       56.754       45.351       30.928     3220.985     2056.695      956.568        1.055        0.312      119.992       17.517        0.021      345.730       23.469      860.932
09/13/2013  10:47:00       98.946       83.424       22.783       47.120       35.904       30.026     2220.285     1289.103      901.576        1.084        0.221      129.421       14.774        0.013      345.720       23.452      860.924
09/13/2013  10:48:00      128.840      102.645       40.545       42.912       33.750       38.115     1841.408     1139.074     1452.750        1.661        0.222      164.729       13.195        0.006      345.677       23.377      860.912
09/13/2013  10:49:00      109.671       94.215       17.180       33.662       18.991       27.646     1133.127      360.676      764.299        1.173        0.113      144.582        7.754        0.003      345.603       23.252      860.905
09/13/2013  10:50:00       35.272       38.780        3.646       36.110       52.113       24.218     1303.939     2715.799      586.510        0.368        0.230       52.421       19.022        0.132      345.802       23.591      860.904
09/13/2013  10:51:00       21.600      -91.171       -9.239       42.691       34.677       36.236     1822.544     1202.490     1313.040        0.660        0.217       93.694       18.154        0.038      345.566       23.188      860.879
09/13/2013  10:52:00       14.765       -9.092       39.055       22.256       27.788       14.688      495.333      772.165      215.751        0.165        0.074       17.340        7.735        0.199      346.048       24.015      860.867
09/13/2013  10:53:00       81.800       32.989       41.614       36.939       48.245       30.049     1364.486     2327.586      902.918        0.705        0.230       88.202       13.232        0.023      345.825       23.632      860.860
09/13/2013  10:54:00       40.034       52.975       14.866       50.248       52.578       24.661     2524.902     2764.481      608.142        0.526        0.295       66.401       26.507        0.159      346.088       24.085      860.847
09/13/2013  10:55:00       69.873       50.211        4.419       72.661       50.275       31.883     5279.581     2527.595     1016.541        0.812        0.441       86.043       25.549        0.088      346.109       24.121      860.842
09/13/2013  10:56:00       84.053       44.809       20.251       67.683       47.684       44.086     4580.937     2273.738     1943.544        0.914        0.440       95.251       32.671        0.118      346.098       24.101      860.840
09/13/2013  10:57:00      102.355       84.557        8.378       51.186       37.841       31.832     2619.999     1431.977     1013.285        1.138        0.253      132.765       23.075        0.030      346.097       24.100      860.843
09/13/2013  10:58:00       84.705       71.939        0.265       33.773       34.550       30.206     1140.598     1193.722      912.410        0.780        0.162      111.131       16.887        0.023      345.993       23.920      860.832
09/13/2013  10:59:00       59.209       55.785        3.460       24.964       27.659       29.078      623.214      765.013      845.528        0.443        0.112       81.349       16.660        0.042      346.031       23.987      860.837
09/13/2013  11:00:00       14.609       29.520       25.710       27.778       31.864       23.665      771.612     1015.291      560.039        0.205        0.117       32.937       21.847        0.440      346.621       25.001      860.819
09/13/2013  11:01:00       58.222       52.256       -0.926       25.425       28.106       23.815      646.413      789.958      567.135        0.406        0.100       78.234       12.456        0.025      346.195       24.267      860.808
09/13/2013  11:02:00       18.609      -32.563       18.793       41.327       54.202       28.303     1707.962     2937.842      801.084        0.360        0.272       37.505       19.563        0.272      346.230       24.329      860.803
09/13/2013  11:03:00       39.545      -20.173       42.006       41.486       62.983       37.949     1721.070     3966.900     1440.156        0.543        0.356       44.394       19.398        0.191      346.033       23.989      860.796
09/13/2013  11:04:00       29.424       25.103       16.820       24.638       25.266       17.546      607.040      638.382      307.879        0.167        0.078       38.677        9.993        0.067      346.290       24.432      860.788
09/13/2013  11:05:00       13.063        9.020       26.798       32.097       44.344       24.035     1030.245     1966.424      577.696        0.227        0.179       15.874       25.772        2.636      346.444       24.697      860.780
09/13/2013  11:06:00      100.162       62.811       46.235       38.795       43.092       30.560     1505.034     1856.935      933.939        1.020        0.215      118.227       27.517        0.054      346.198       24.273      860.767
09/13/2013  11:07:00       73.950       68.946       19.695       38.112       26.727       27.499     1452.549      714.344      756.197        0.677        0.146      101.105       12.636        0.016      346.245       24.353      860.749
09/13/2013  11:08:00       10.446       69.297        9.994       40.006       44.565       26.296     1600.504     1986.046      691.468        0.464        0.214       70.080       23.434        0.112      346.486       24.769      860.744
09/13/2013  11:09:00        0.311       58.033        9.406       23.240       56.860       28.332      540.109     3233.083      802.683        0.402        0.229       58.033       36.750        0.401      346.721       25.173      860.724
09/13/2013  11:10:00       -4.041       -4.178       20.196       18.843       23.067       17.580      355.051      532.091      309.060        0.082        0.060        5.813        9.987        2.952      347.223       26.037      860.712
09/13/2013  11:11:00       -6.122      -17.979       29.487       18.302       33.151       33.432      334.979     1098.992     1117.673        0.189        0.128       18.993       29.615        2.431      346.856       25.406      860.706
09/13/2013  11:12:00       -7.362      -36.760       -4.337       38.647       26.146       24.521     1493.582      683.624      601.262        0.210        0.139       37.490       19.681        0.276      346.260       24.379      860.684
09/13/2013  11:13:00       10.707      -28.981       -7.222       47.887       31.768       21.361     2293.180     1009.213      456.290        0.238        0.188       30.896       15.739        0.260      346.287       24.427      860.671
09/13/2013  11:14:00      -15.075      -25.014       -6.434       23.093       15.759       15.561      533.294      248.351      242.131        0.096        0.051       29.205        9.089        0.097      346.251       24.365      860.659
09/13/2013  11:15:00       -3.712      -37.506      -11.463       43.515       34.816       26.951     1893.515     1212.146      726.350        0.269        0.192       37.689       27.521        0.533      346.092       24.090      860.649
09/13/2013  11:16:00        4.604      -37.032      -25.637       18.324       27.775       14.983      335.785      771.443      224.503        0.169        0.067       37.317       11.751        0.099      346.241       24.348      860.648
09/13/2013  11:17:00      -20.738       23.665       -0.976       29.211       25.094       17.777      853.299      629.707      316.035        0.139        0.090       31.466       14.873        0.223      346.497       24.790      860.631
09/13/2013  11:18:00      -71.938       -9.525      -12.214       39.958       18.904       17.638     1596.632      357.346      311.102        0.384        0.113       72.566       17.052        0.055      346.273       24.402      860.629
09/13/2013  11:19:00      -91.344        0.031       -2.169       22.575       20.121       24.635      509.621      404.863      606.899        0.493        0.076       91.344       13.520        0.022      346.190       24.260      860.622
09/13/2013  11:20:00      -40.516       -3.171       -5.869       34.721       21.661       16.085     1205.565      469.199      258.719        0.181        0.097       40.640        7.849        0.037      346.471       24.743      860.618
09/13/2013  11:21:00       15.748       22.614       26.487       29.496       28.931       12.210      870.000      837.015      149.073        0.166        0.093       27.557        9.296        0.114      347.488       26.495      860.608
09/13/2013  11:22:00        0.220       52.964        7.858       24.327       39.456       22.155      591.814     1556.752      490.826        0.275        0.132       52.964       23.594        0.198      347.172       25.949      860.615
09/13/2013  11:23:00      -26.926      129.352      -12.194       25.315       29.273       24.384      640.833      856.927      594.567        0.985        0.105      132.125       15.773        0.014      346.668       25.081      860.611
09/13/2013  11:24:00      -10.777      109.402      -15.002       24.426       41.227       32.423      596.643     1699.663     1051.254        0.783        0.167      109.932       22.900        0.043      346.928       25.531      860.605
09/13/2013  11:25:00       -2.740      134.232      -25.352       23.288       28.221       17.676      542.353      796.399      312.448        1.016        0.083      134.260       12.442        0.009      346.632       25.018      860.583
09/13/2013  11:26:00      -24.591      149.577       -9.015       32.033       61.304       25.982     1026.102     3758.200      675.056        1.426        0.273      151.585        9.872        0.004      346.830       25.360      860.575
09/13/2013  11:27:00       10.711      131.082       -9.179       32.017       73.203       33.597     1025.063     5358.713     1128.784        1.245        0.376      131.519       30.864        0.055      346.557       24.890      860.560
09/13/2013  11:28:00      -49.843       29.666      -22.791       25.915       24.080       21.971      671.603      579.854      482.745        0.281        0.087       58.003       14.728        0.064      346.467       24.736      860.564
09/13/2013  11:29:00      -83.341       65.439      -19.162       23.131       39.646       20.081      535.032     1571.826      403.255        0.705        0.126      105.963       16.428        0.024      346.592       24.950      860.542
09/13/2013  11:30:00      -53.337       44.744        2.052       28.434       21.042       30.513      808.489      442.749      931.061        0.352        0.109       69.620       22.877        0.108      347.063       25.761      860.536
09/13/2013  11:31:00      -68.734       66.360      -15.048       36.646       18.626       22.370     1342.948      346.940      500.395        0.577        0.110       95.541       15.274        0.026      346.706       25.147      860.515
09/13/2013  11:32:00      -32.116       65.339       18.907       36.210       31.889       28.881     1311.173     1016.931      834.117        0.441        0.158       72.806       20.684        0.081      347.480       26.481      860.504
09/13/2013  11:33:00      -36.505       25.235       -8.571       38.970       44.262       24.050     1518.698     1959.081      578.390        0.305        0.203       44.378       26.908        0.368      346.812       25.329      860.483
09/13/2013  11:34:00        0.517       30.740        9.139       22.856       28.460       22.492      522.380      809.956      505.868        0.143        0.092       30.744       17.147        0.311      347.623       26.728      860.472
09/13/2013  11:35:00      -30.078        2.237       29.530       22.007       29.714       17.394      484.307      882.905      302.559        0.173        0.083       30.161       15.855        0.276      347.471       26.466      860.454
09/13/2013  11:36:00       -0.852      -28.495       32.218       13.608       21.703       11.918      185.177      471.023      142.041        0.132        0.040       28.508        8.687        0.093      347.652       26.777      860.442
09/13/2013  11:37:00      -31.731      -61.035        0.735       26.335       44.678       22.259      693.552     1996.108      495.442        0.396        0.159       68.791       15.762        0.052      346.840       25.378      860.426
09/13/2013  11:38:00        1.172        5.180       24.646       37.620       28.493       25.451     1415.263      811.864      647.767        0.175        0.144        5.311       19.335       13.255      348.167       27.667      860.415
09/13/2013  11:39:00      -84.974      -59.614        1.383       53.538       41.051       27.153     2866.281     1685.182      737.282        0.803        0.264      103.800       17.885        0.030      347.221       26.033      860.397
09/13/2013  11:40:00      -62.352      -25.693       -3.672       31.738       35.275       15.664     1007.296     1244.352      245.354        0.353        0.125       67.438       13.723        0.041      347.177       25.956      860.383
09/13/2013  11:41:00      -24.390       18.701        7.196       21.133       18.952       20.258      446.608      359.196      410.403        0.111        0.061       30.734       14.194        0.213      347.604       26.694      860.369
09/13/2013  11:42:00       -8.077       12.775        1.703       31.105       32.442       32.801      967.510     1052.480     1075.881        0.166        0.155       15.114       20.649        1.867      347.828       27.081      860.349
09/13/2013  11:43:00      -18.585       60.404       12.551       22.133       42.266       30.393      489.889     1786.431      923.734        0.368        0.160       63.198       31.437        0.247      347.799       27.031      860.341
09/13/2013  11:44:00       11.414       -2.483       22.558       19.072       18.207       17.354      363.739      331.497      301.145        0.082        0.050       11.681       12.224        1.095      348.010       27.395      860.323
09/13/2013  11:45:00       62.867       64.436       42.705       88.641       52.901       35.093     7857.158     2798.473     1231.524        1.091        0.594       90.023       12.581        0.020      347.640       26.758      860.300
09/13/2013  11:46:00      132.373       81.382       34.953       44.751       36.627       46.230     2002.691     1341.564     2137.168        1.542        0.274      155.388       28.829        0.034      347.068       25.769      860.283
09/13/2013  11:47:00       98.436       78.893       15.660       39.085       34.032       35.696     1527.662     1158.191     1274.174        1.006        0.198      126.150        5.280        0.002      347.044       25.727      860.277
09/13/2013  11:48:00       65.403       57.897        1.842       44.381       36.605       27.966     1969.702     1339.941      782.091        0.586        0.205       87.347       21.135        0.059      347.393       26.330      860.270
09/13/2013  11:49:00       52.254       47.542       12.355       67.935       57.407       49.156     4615.165     3295.594     2416.264        0.773        0.516       70.645       38.610        0.299      347.401       26.344      860.245
09/13/2013  11:50:00       91.146       85.140       21.361       47.288       39.883       42.525     2236.189     1590.638     1808.342        1.082        0.282      124.725       22.717        0.033      347.458       26.441      860.235
09/13/2013  11:51:00        6.315      -69.626       10.352       43.608       36.316       28.975     1901.682     1318.865      839.550        0.453        0.203       69.912       25.274        0.131      347.096       25.818      860.234
09/13/2013  11:52:00       -2.024       11.272        1.977       17.842       37.517       20.172      318.325     1407.531      406.928        0.113        0.107       11.452       14.637        1.634      347.285       26.144      860.227
09/13/2013  11:53:00       -0.059       30.710       26.610       29.852       46.599       29.611      891.136     2171.507      876.819        0.279        0.197       30.710       15.058        0.240      347.964       27.314      860.209
09/13/2013  11:54:00       31.671       27.570       24.673       51.292       27.709       30.318     2630.920      767.807      919.157        0.334        0.216       41.990       23.255        0.307      347.747       26.940      860.190
09/13/2013  11:55:00       43.449      -56.019        8.701       43.688       91.079       32.903     1908.614     8295.346     1082.627        0.819        0.564       70.894       41.881        0.349      347.636       26.748      860.181
09/13/2013  11:56:00       87.295      -87.564      -12.442       59.746       62.973       55.526     3569.579     3965.629     3083.142        1.303        0.531      123.644       44.053        0.127      347.415       26.367      860.155
09/13/2013  11:57:00      124.075     -164.445      -39.053       40.503       48.943       25.306     1640.485     2395.395      640.380        2.432        0.234      206.002       27.334        0.018      346.813       25.327      860.152
09/13/2013  11:58:00       59.225      -89.553       -3.447       38.602       34.348       25.648     1490.104     1179.802      657.844        0.743        0.166      107.365       19.745        0.034      346.930       25.531      860.154
09/13/2013  11:59:00       40.139      -72.136       -6.699       38.127       32.350       25.851     1453.657     1046.537      668.256        0.501        0.158       82.552        8.827        0.011      346.898       25.477      860.146
09/13/2013  12:00:00      -23.437      -54.508       -6.430       13.911       40.367       20.166      193.503     1629.476      406.666        0.290        0.111       59.333       22.490        0.144      347.068       25.771      860.126
09/13/2013  12:01:00       37.037       28.248       28.756       39.180       32.834       28.363     1535.085     1078.039      804.487        0.321        0.171       46.580       12.614        0.073      347.880       27.171      860.108
09/13/2013  12:02:00       22.241       43.083       24.801       41.143       32.235       26.894     1692.751     1039.075      723.288        0.321        0.173       48.485       23.597        0.237      347.997       27.372      860.106
09/13/2013  12:03:00       60.360       57.793       38.912       58.900       40.192       30.074     3469.204     1615.425      904.417        0.724        0.299       83.566       15.679        0.035      347.397       26.337      860.091
09/13/2013  12:04:00      123.863       87.460       44.438       43.009       29.107       32.304     1849.783      847.234     1043.564        1.435        0.187      151.629       23.318        0.024      347.093       25.814      860.079
09/13/2013  12:05:00       63.897       54.492       39.713       36.777       36.891       27.195     1352.552     1360.974      739.555        0.604        0.173       83.977       15.905        0.036      347.555       26.609      860.071
09/13/2013  12:06:00      -29.340      -11.451       13.603       38.906       39.818       27.753     1513.660     1585.440      770.204        0.252        0.193       31.496       14.248        0.205      347.884       27.176      860.057
09/13/2013  12:07:00       15.829       70.783       65.450       76.412       65.948       58.756     5838.745     4349.161     3452.317        1.159        0.682       72.532       61.189        0.712      347.657       26.786      860.047
09/13/2013  12:08:00       82.068       99.839       30.315       52.274       39.847       46.097     2732.563     1587.772     2124.958        1.203        0.322      129.240       29.053        0.051      347.494       26.504      860.043
09/13/2013  12:09:00       79.707       71.117       26.303       38.365       32.970       38.642     1471.907     1086.990     1493.216        0.808        0.203      106.822       25.643        0.058      347.486       26.491      860.045
09/13/2013  12:10:00       34.129       83.322       -7.735       39.070       37.902       25.226     1526.435     1436.549      636.369        0.588        0.180       90.041       20.617        0.052      347.624       26.728      860.045
09/13/2013  12:11:00       44.591      110.865       -5.367       46.098       54.669       42.140     2125.003     2988.693     1775.750        1.060        0.344      119.496       33.072        0.077      347.537       26.579      860.025
09/13/2013  12:12:00      127.353      109.580       -7.749       55.146       41.663       37.033     3041.087     1735.782     1371.469        1.722        0.307      168.007       29.911        0.032      347.268       26.114      860.038
09/13/2013  12:13:00      116.567      109.611        3.504       48.321       57.307       36.826     2334.952     3284.130     1356.123        1.629        0.349      160.007        7.664        0.002      347.180       25.961      860.021
09/13/2013  12:14:00       13.386        4.548       -3.166       31.473       71.629       30.465      990.544     5130.655      928.102        0.363        0.352       14.138       29.083        4.232      347.272       26.121      860.025
09/13/2013  12:15:00       -6.863      -12.685       -2.584       21.565       15.341       17.089      465.050      235.341      292.046        0.060        0.050       14.423       12.456        0.746      347.350       26.254      860.000
09/13/2013  12:16:00      -72.479      -38.028      -10.307       19.243       30.034       13.843      370.281      902.054      191.640        0.413        0.073       81.849       12.766        0.024      347.074       25.778      859.976
09/13/2013  12:17:00      -70.676       14.126       -2.440       40.968       63.830       22.050     1678.414     4074.288      486.203        0.572        0.312       72.074       21.578        0.090      347.425       26.384      859.958
09/13/2013  12:18:00       -6.517       26.401       17.451       26.487       16.292       20.634      701.566      265.433      425.763        0.122        0.070       27.194       12.029        0.196      347.815       27.058      859.942
09/13/2013  12:19:00       -7.036        4.549       29.248       13.058       13.252        8.052      170.501      175.610       64.837        0.067        0.021        8.378        4.110        0.241      348.587       28.394      859.935
09/13/2013  12:20:00       19.144       19.333       22.672       23.056       24.352       25.079      531.577      593.022      628.938        0.150        0.088       27.208       23.094        0.720      348.127       27.598      859.920
09/13/2013  12:21:00        4.014      -20.146       22.392       20.276       30.342       32.287      411.119      920.609     1042.422        0.165        0.119       20.542       18.930        0.849      347.826       27.078      859.901
09/13/2013  12:22:00       57.478      -77.878      -17.648       48.490       39.741       29.192     2351.267     1579.371      852.150        0.723        0.239       96.792       25.447        0.069      347.333       26.226      859.884
09/13/2013  12:23:00       26.841       -7.709       37.042       35.897       45.907       36.629     1288.608     2107.430     1341.689        0.344        0.237       27.926       32.892        1.387      347.696       26.852      859.872
09/13/2013  12:24:00       40.742      -65.215       11.423       47.391       59.248       34.994     2245.904     3510.268     1224.608        0.651        0.349       76.895       30.830        0.161      347.840       27.101      859.863
09/13/2013  12:25:00       31.548       39.824       11.844       43.824       38.733       28.818     1920.546     1500.277      830.469        0.349        0.213       50.806       18.025        0.126      347.975       27.335      859.846
09/13/2013  12:26:00      -28.297      -20.835       26.516       46.651       75.137       53.015     2176.355     5645.619     2810.639        0.628        0.532       35.140       43.637        1.542      347.912       27.226      859.833
09/13/2013  12:27:00       85.225      -30.191       27.906       75.473       68.820       52.255     5696.152     4736.212     2730.629        1.106        0.658       90.415       52.729        0.340      347.551       26.603      859.838
09/13/2013  12:28:00       57.444      -67.804       10.569       74.528       67.048       40.393     5554.357     4495.487     1631.618        0.984        0.584       88.866       48.956        0.303      347.690       26.842      859.808
09/13/2013  12:29:00        2.490       52.053       -4.027       40.025       54.642       33.707     1601.972     2985.719     1136.138        0.423        0.286       52.113       18.441        0.125      347.624       26.728      859.798
09/13/2013  12:30:00       58.384       81.299       -9.519       36.105       45.325       35.179     1303.566     2054.341     1237.555        0.735        0.230      100.091       24.421        0.060      347.601       26.688      859.786
09/13/2013  12:31:00       48.191       96.387      -12.069       58.534       85.389       39.310     3426.228     7291.301     1545.238        1.201        0.613      107.763       43.522        0.163      347.567       26.630      859.773
09/13/2013  12:32:00      -30.835      169.861      -15.088       49.665       56.347       33.188     2466.642     3174.946     1101.440        1.839        0.337      172.637       25.820        0.022      347.588       26.665      859.753
09/13/2013  12:33:00       16.916      172.169      -25.283       44.272       83.797       33.190     1960.005     7021.896     1101.603        2.032        0.504      172.998       42.569        0.061      347.648       26.768      859.743
09/13/2013  12:34:00       44.153       72.694      -22.052       52.162       77.222       31.770     2720.915     5963.174     1009.305        0.870        0.485       85.052       27.892        0.108      347.733       26.916      859.723
09/13/2013  12:35:00       49.945        5.627       59.032       73.306      113.056       68.364     5373.767    12781.733     4673.601        1.442        1.141       50.261       74.655        2.206      347.727       26.905      859.718
09/13/2013  12:36:00      103.558      -69.162       23.120       73.053       92.447       53.143     5336.785     8546.456     2824.130        1.637        0.835      124.529       61.560        0.244      347.673       26.811      859.711
09/13/2013  12:37:00       48.870      -96.907       16.465       47.605       90.161       40.724     2266.222     8129.023     1658.404        1.205        0.603      108.533       42.821        0.156      347.970       27.324      859.704
09/13/2013  12:38:00       12.077       12.448       49.535       29.739       42.163       27.925      884.425     1777.726      779.828        0.310        0.172       17.344       21.670        1.561      348.288       27.874      859.699
09/13/2013  12:39:00       21.731      -33.634        3.283       26.834       56.649       30.898      720.058     3209.068      954.689        0.325        0.244       40.043       19.440        0.236      347.966       27.319      859.690
09/13/2013  12:40:00       81.285      -87.628       -4.922       65.531       63.431       44.446     4294.247     4023.466     1975.408        1.230        0.515      119.524       37.124        0.096      347.790       27.014      859.678
09/13/2013  12:41:00       24.970     -106.625       18.964       45.796       71.465       41.849     2097.244     5107.231     1751.379        1.065        0.448      109.510       37.803        0.119      348.026       27.422      859.663
09/13/2013  12:42:00       11.803      -73.099       22.164       66.299       96.778       54.107     4395.613     9365.999     2927.532        1.133        0.834       74.046       56.892        0.590      348.140       27.619      859.647
09/13/2013  12:43:00       72.143     -153.670      -19.057       52.744       50.434       39.165     2781.970     2543.556     1533.872        1.802        0.343      169.762       22.599        0.018      347.873       27.158      859.645
09/13/2013  12:44:00       75.484      -50.330       27.225       72.900      104.831       61.197     5314.376    10989.597     3745.073        1.451        1.002       90.725       64.333        0.503      347.984       27.349      859.637
09/13/2013  12:45:00       85.812      -20.709       51.981       76.261      123.903       79.314     5815.798    15351.992     6290.742        1.897        1.373       88.276       91.640        1.078      347.859       27.133      859.623
09/13/2013  12:46:00       75.718      -31.718       49.561       82.099       92.987       61.038     6740.202     8646.548     3725.671        1.415        0.956       82.093       62.059        0.571      347.789       27.013      859.611
09/13/2013  12:47:00        4.834       -8.576       37.337       32.162       64.490       34.228     1034.390     4158.965     1171.583        0.393        0.318        9.845       13.699        1.936      347.947       27.286      859.610
09/13/2013  12:48:00       42.090       -1.055       56.677       49.728       61.954       44.320     2472.833     3838.276     1964.239        0.663        0.414       42.103       33.876        0.647      347.865       27.145      859.595
09/13/2013  12:49:00       43.985      -43.718       17.599       31.501       28.015       25.521      992.299      784.841      651.316        0.329        0.121       62.016       18.499        0.089      347.632       26.741      859.588
09/13/2013  12:50:00       26.870      -49.586       -0.083       34.056       37.535       24.976     1159.837     1408.884      623.798        0.319        0.160       56.398       26.616        0.223      347.771       26.981      859.571
09/13/2013  12:51:00       45.706      -60.033       13.532       59.650       68.907       50.689     3558.084     4748.157     2569.402        0.837        0.544       75.452       45.049        0.356      347.941       27.274      859.550
09/13/2013  12:52:00       39.872      -29.291       22.881       55.621       66.618       48.685     3093.654     4437.983     2370.222        0.643        0.495       49.474       48.483        0.960      348.105       27.558      859.536
09/13/2013  12:53:00      109.203     -127.208      -22.084       76.251       93.965       53.573     5814.260     8829.486     2870.081        2.305        0.876      167.652       58.985        0.124      347.916       27.230      859.517
09/13/2013  12:54:00      -23.347      -59.969       10.835       40.203       49.248       37.932     1616.282     2425.340     1438.828        0.487        0.274       64.353       31.012        0.232      347.994       27.366      859.513
09/13/2013  12:55:00       10.511       -7.369        9.212       49.975       46.161       47.197     2497.472     2130.860     2227.545        0.355        0.343       12.837       24.104        3.526      348.102       27.554      859.495
09/13/2013  12:56:00       44.805       -7.019       34.731       49.174       55.776       36.899     2418.040     3110.996     1361.543        0.508        0.345       45.352       36.410        0.645      348.331       27.949      859.491
09/13/2013  12:57:00       48.179      -12.906       12.272       48.387       36.856       31.630     2341.336     1358.339     1000.450        0.367        0.235       49.877       18.385        0.136      347.933       27.262      859.474
09/13/2013  12:58:00       27.653       -7.030        2.849       63.101       69.678       35.621     3981.714     4855.010     1268.840        0.546        0.505       28.532       26.349        0.853      348.329       27.946      859.454
09/13/2013  12:59:00       34.123       48.647       42.654       54.463       39.314       33.907     2966.219     1545.586     1149.697        0.550        0.283       59.421       13.362        0.051      348.491       28.225      859.442
09/13/2013  13:00:00      113.899       75.562       64.779      100.679       88.030       87.105    10136.173     7749.303     7587.312        2.417        1.274      136.684       64.399        0.222      348.160       27.651      859.410
09/13/2013  13:01:00      106.913      126.358      120.183      105.922       76.838       67.535    11219.549     5904.140     4560.976        3.176        1.084      165.520       67.827        0.168      347.897       27.195      859.403
09/13/2013  13:02:00       62.762      -12.598       22.218       64.728       90.224       64.822     4189.672     8140.443     4201.922        1.056        0.827       64.013       55.952        0.764      347.949       27.290      859.403
09/13/2013  13:03:00       62.602      -65.408       16.231       74.715       87.823       59.010     5582.391     7712.862     3482.169        1.262        0.839       90.538       59.269        0.429      348.243       27.795      859.417
09/13/2013  13:04:00       27.990      -37.589       17.647       44.603       46.418       39.511     1989.454     2154.611     1561.105        0.411        0.285       46.866       34.714        0.549      348.181       27.690      859.416
09/13/2013  13:05:00       13.576      -13.676       27.030       22.760       32.736       28.602      517.997     1071.666      818.076        0.175        0.120       19.270       16.843        0.764      348.222       27.760      859.416
09/13/2013  13:06:00        4.426      -12.767       30.473       27.307       34.297       21.073      745.654     1176.284      444.055        0.174        0.118       13.512       19.316        2.044      348.377       28.030      859.403
09/13/2013  13:07:00       10.502      -35.715       35.921       38.747       50.462       40.676     1501.328     2546.367     1654.498        0.419        0.285       37.227       26.043        0.489      348.408       28.081      859.383
09/13/2013  13:08:00       64.465      -35.859       43.799       78.684       74.525       45.845     6191.102     5554.019     2101.757        1.060        0.692       73.767       53.586        0.528      348.281       27.862      859.369
09/13/2013  13:09:00       25.333      -19.343       47.519       44.253       71.839       56.009     1958.327     5160.830     3137.060        0.676        0.513       31.873       50.246        2.485      348.331       27.950      859.343
09/13/2013  13:10:00       10.617       28.064       53.631       40.157       72.734       49.661     1612.593     5290.207     2466.231        0.657        0.468       30.006       55.094        3.371      348.078       27.513      859.336
09/13/2013  13:11:00       22.749      -31.317       23.166       32.337       35.422       29.406     1045.669     1254.718      864.695        0.260        0.158       38.708       26.945        0.485      348.231       27.777      859.311
09/13/2013  13:12:00       25.783      -47.280       27.006       37.320       58.815       39.393     1392.815     3459.229     1551.779        0.502        0.320       53.853       34.579        0.412      348.219       27.755      859.285
09/13/2013  13:13:00       77.859     -124.456       13.487       69.845      109.533       66.093     4878.295    11997.496     4368.306        2.148        1.062      146.804       73.808        0.253      348.160       27.650      859.237
09/13/2013  13:14:00       37.814      -10.023       62.580       63.353       89.577       57.901     4013.614     8023.954     3352.532        1.042        0.770       39.120       51.047        1.703      348.247       27.803      859.211
09/13/2013  13:15:00       48.229     -113.872      -10.644       90.097       59.877       38.181     8117.510     3585.227     1457.755        1.428        0.658      123.664       24.583        0.040      348.179       27.684      859.217
09/13/2013  13:16:00       86.771     -105.437       10.846       76.287       99.658       58.019     5819.666     9931.674     3366.230        1.894        0.956      136.551       63.370        0.215      348.279       27.856      859.216
09/13/2013  13:17:00       88.511      -76.569        9.631       60.812       63.539       48.939     3698.084     4037.195     2394.991        1.196        0.507      117.034       41.025        0.123      348.275       27.851      859.213
09/13/2013  13:18:00       33.390      -13.671       20.241       36.110       41.594       29.679     1303.935     1730.076      880.856        0.281        0.196       36.081       18.010        0.249      348.394       28.059      859.209
09/13/2013  13:19:00       16.258      -78.006       25.040       39.662       69.835       33.950     1573.073     4876.945     1152.574        0.729        0.380       79.683       23.708        0.089      348.439       28.135      859.200
09/13/2013  13:20:00       40.729      -19.300       -8.092       35.874       40.011       31.580     1286.910     1600.854      997.318        0.299        0.194       45.071       21.660        0.231      348.211       27.742      859.189
09/13/2013  13:21:00      101.358       80.077        5.766       48.099       54.601       38.555     2313.533     2981.230     1486.513        1.175        0.339      129.173       33.490        0.067      348.205       27.730      859.175
09/13/2013  13:22:00      135.070       86.168       21.783      101.767       45.668       48.949    10356.592     2085.551     2395.998        2.049        0.742      160.215       27.103        0.029      348.482       28.208      859.161
09/13/2013  13:23:00      131.908      104.870       23.615       61.059       64.639       56.679     3728.146     4178.246     3212.531        2.003        0.556      168.516       26.964        0.026      348.229       27.771      859.168
09/13/2013  13:24:00       97.416       85.529       30.460       81.193       45.441       43.686     6592.344     2064.839     1908.494        1.415        0.528      129.634       20.568        0.025      348.684       28.559      859.168
09/13/2013  13:25:00       77.093       56.222       16.420       82.052       58.003       50.240     6732.591     3364.383     2524.096        1.099        0.631       95.416       12.967        0.018      348.849       28.844      859.171
09/13/2013  13:26:00      136.996       95.499       48.714       70.547       46.004       56.425     4976.917     2116.332     3183.784        2.027        0.514      166.996       31.073        0.035      348.520       28.274      859.164
09/13/2013  13:27:00      157.060      102.734       17.383       77.355       48.912       51.554     5983.799     2392.398     2657.774        2.328        0.552      187.675       40.182        0.046      348.236       27.782      859.174
09/13/2013  13:28:00       93.148       80.508       24.847       60.902       43.040       48.941     3708.994     1852.407     2395.262        1.186        0.398      123.118       16.384        0.018      348.222       27.759      859.177
09/13/2013  13:29:00       18.746        3.428       -8.267       39.691       73.124       22.731     1575.406     5347.069      516.695        0.393        0.372       19.057       16.889        0.785      348.443       28.144      859.159
09/13/2013  13:30:00       14.221      -87.121        1.877       24.322       36.488       25.631      591.540     1331.362      656.951        0.519        0.129       88.274       12.015        0.019      348.230       27.774      859.147
09/13/2013  13:31:00       11.934       17.707       18.163       31.382       37.349       27.674      984.839     1394.966      765.877        0.197        0.157       21.353       12.867        0.363      348.843       28.836      859.138
09/13/2013  13:32:00       32.413        6.187        1.772       21.257       33.673       31.255      451.854     1133.878      976.871        0.183        0.128       32.998       17.607        0.285      348.501       28.242      859.132
09/13/2013  13:33:00        6.289      -32.988        4.247       32.576       30.018       21.933     1061.219      901.068      481.038        0.179        0.122       33.582       19.384        0.333      348.829       28.813      859.122
09/13/2013  13:34:00       54.007       34.229       -2.800       67.528       51.613       30.855     4560.034     2663.946      952.007        0.613        0.409       63.941       12.086        0.036      348.792       28.747      859.117
09/13/2013  13:35:00       33.592       55.641       -6.983       67.938       51.760       33.142     4615.508     2679.144     1098.421        0.633        0.420       64.995       23.586        0.132      348.852       28.850      859.129
09/13/2013  13:36:00       33.494       61.689        6.589       48.284       46.603       30.577     2331.323     2171.814      934.928        0.520        0.272       70.195       24.618        0.123      349.060       29.211      859.135
09/13/2013  13:37:00       -0.196       77.497       27.364       36.407       58.846       67.907     1325.479     3462.850     4611.300        0.808        0.470       77.497       47.398        0.374      348.818       28.793      859.113
09/13/2013  13:38:00       38.148       85.629       26.703       51.844       48.678       49.952     2687.790     2369.523     2495.187        0.853        0.378       93.742       26.166        0.078      348.681       28.554      859.108
09/13/2013  13:39:00       72.026      163.800       -2.466       60.113       83.371       53.190     3613.551     6950.771     2829.183        2.271        0.670      178.936       51.357        0.082      348.467       28.182      859.097
09/13/2013  13:40:00      111.872      123.518        8.174       77.319       50.100       48.929     5978.245     2510.040     2394.025        1.936        0.544      166.650       37.335        0.050      348.561       28.346      859.095
09/13/2013  13:41:00       18.017       85.857      -11.984       58.732       71.271       34.437     3449.448     5079.538     1185.889        0.878        0.486       87.727       40.367        0.212      348.508       28.255      859.087
09/13/2013  13:42:00      -96.275      148.846      -40.070      113.841       68.675       36.818    12959.724     4716.239     1355.537        2.603        0.952      177.268       44.907        0.064      348.296       27.885      859.072
09/13/2013  13:43:00     -160.443      -28.601      -25.551       42.883       60.457       20.857     1838.931     3655.023      435.035        1.657        0.296      162.972       18.875        0.013      348.032       27.432      859.037
09/13/2013  13:44:00      -80.577      -45.995       -7.744       41.527       35.036       18.764     1724.529     1227.493      352.076        0.599        0.165       92.780       18.816        0.041      348.260       27.826      859.005
09/13/2013  13:45:00      -58.244       32.254        4.672       57.001       62.720       28.894     3249.092     3933.794      834.863        0.623        0.401       66.579       29.182        0.192      348.649       28.499      858.989
09/13/2013  13:46:00      -36.227      174.657       -6.466       44.976       92.168       40.614     2022.798     8494.928     1649.537        2.201        0.608      178.375       47.494        0.071      348.412       28.088      858.982
09/13/2013  13:47:00       54.519      127.496      -11.368       50.015       54.014       30.967     2501.452     2917.494      958.975        1.287        0.319      138.664       30.908        0.050      348.210       27.741      858.961
09/13/2013  13:48:00       80.332       51.535       19.261       28.855       28.235       29.528      832.629      797.226      871.907        0.599        0.125       95.442       11.349        0.014      348.208       27.737      858.925
09/13/2013  13:49:00       97.166       54.313       11.663       49.452       46.048       32.030     2445.547     2120.446     1025.889        0.906        0.280      111.316       26.044        0.055      348.281       27.863      858.906
09/13/2013  13:50:00      103.258       81.714       14.946       23.720       26.335       27.841      562.629      693.512      775.104        0.980        0.102      131.679       21.462        0.027      347.986       27.353      858.879
09/13/2013  13:51:00      122.120       83.458       11.893       42.399       36.589       32.896     1797.653     1338.773     1082.175        1.312        0.211      147.913       12.521        0.007      348.170       27.671      858.861
09/13/2013  13:52:00       73.535       40.451       15.113       28.545       37.803       25.227      814.833     1429.061      636.404        0.508        0.144       83.926       17.126        0.042      348.267       27.838      858.851
09/13/2013  13:53:00       22.174       41.870       16.830       28.026       23.145       22.558      785.483      535.708      508.862        0.218        0.092       47.379       18.764        0.157      348.193       27.710      858.828
09/13/2013  13:54:00      -29.000       53.514        4.072       24.228       40.429       22.177      586.978     1634.502      491.829        0.322        0.136       60.867       19.027        0.098      348.540       28.312      858.807
09/13/2013  13:55:00      -10.536        4.898       10.601       22.187       25.565       14.602      492.262      653.569      213.211        0.080        0.068       11.619       10.353        0.794      348.790       28.744      858.797
09/13/2013  13:56:00       87.754       69.761       42.615       60.381       61.251       45.964     3645.857     3751.723     2112.728        1.194        0.476      112.105       35.620        0.101      348.524       28.283      858.782
09/13/2013  13:57:00      160.186      109.401       25.164       57.363       48.737       33.543     3290.567     2375.273     1125.150        2.252        0.340      193.979       20.546        0.011      348.497       28.235      858.782
09/13/2013  13:58:00      157.186       97.403       24.445       81.424       56.084       44.568     6629.902     3145.364     1986.344        2.327        0.588      184.919       28.887        0.024      348.724       28.626      858.772
09/13/2013  13:59:00      235.190      129.945       36.659      101.635       73.841       67.713    10329.687     5452.435     4585.016        4.695        1.018      268.701       27.214        0.010      348.370       28.013      858.739
09/13/2013  14:00:00      144.684       85.511       47.569      118.391       78.372       60.404    14016.398     6142.203     3648.681        2.715        1.190      168.064       32.956        0.038      348.698       28.581      858.721
09/13/2013  14:01:00      163.723      116.981       41.155      151.241       89.726       63.181    22873.913     8050.744     3991.889        3.854        1.746      201.221       60.299        0.090      348.774       28.713      858.722
09/13/2013  14:02:00      253.072      141.527       51.495      108.761       94.235       70.415    11828.949     8880.155     4958.269        5.619        1.283      289.958       48.008        0.027      348.513       28.259      858.733
09/13/2013  14:03:00      263.369      172.807       33.206      105.987       85.289       75.578    11233.304     7274.265     5712.048        6.227        1.211      315.001       44.242        0.020      348.537       28.302      858.723
09/13/2013  14:04:00      272.962      138.241       43.144      185.447      108.864       76.052    34390.570    11851.380     5783.906        7.374        2.601      305.972       30.554        0.010      348.417       28.094      858.711
09/13/2013  14:05:00      133.342      114.895       34.652       89.128       88.568       68.994     7943.783     7844.316     4760.215        2.636        1.027      176.015       37.061        0.044      348.446       28.146      858.701
09/13/2013  14:06:00      180.005      149.584       27.879      107.790       87.490       75.810    11618.617     7654.524     5747.128        4.028        1.251      234.045       47.276        0.041      348.510       28.256      858.706
09/13/2013  14:07:00      104.804      125.166        9.968      121.953       98.813       63.880    14872.598     9763.956     4080.655        2.773        1.436      163.250       39.715        0.059      348.484       28.209      858.701
09/13/2013  14:08:00      108.838      183.833       27.786      122.303      130.506      100.622    14957.987    17031.786    10124.733        4.425        2.106      213.636       89.692        0.176      348.276       27.851      858.687
09/13/2013  14:09:00      117.666      202.360       -7.191      104.677      148.008       95.490    10957.186    21906.405     9118.339        4.841        2.099      234.083       85.478        0.133      348.336       27.955      858.666
09/13/2013  14:10:00      281.138      191.224       31.086      150.835      128.537       88.914    22751.160    16521.727     7905.773        8.187        2.359      340.007       64.191        0.036      348.363       28.002      858.656
09/13/2013  14:11:00      256.372      123.522       54.991      100.930       93.192       88.007    10186.870     8684.659     7745.255        5.531        1.331      284.577       60.890        0.046      348.416       28.092      858.646
09/13/2013  14:12:00      217.484      166.360       29.709      159.966      109.986       84.362    25589.151    12096.963     7117.012        6.032        2.240      273.816       52.568        0.037      348.511       28.257      858.638
09/13/2013  14:13:00      219.276      186.938       20.395      125.324      101.837       88.248    15706.038    10370.709     7787.776        5.865        1.693      288.146       68.942        0.057      348.158       27.647      858.626
09/13/2013  14:14:00      216.289      171.362       10.323      153.049       96.246       63.773    23424.058     9263.209     4067.044        5.650        1.838      275.945       42.594        0.024      348.138       27.612      858.613
09/13/2013  14:15:00      271.562      177.099       57.770      132.777       95.671       74.793    17629.825     9153.015     5593.998        7.041        1.619      324.207       50.434        0.024      348.122       27.585      858.584
09/13/2013  14:16:00      229.796      162.268       53.654      142.665      102.100      102.627    20353.200    10424.511    10532.271        6.165        2.065      281.313       93.941        0.112      348.013       27.396      858.566
09/13/2013  14:17:00      274.079      188.381       48.166      141.455       89.529       73.289    20009.528     8015.362     5371.213        7.315        1.670      332.576       38.361        0.013      348.148       27.630      858.563
09/13/2013  14:18:00      168.935      119.477       16.487      114.460       92.520       60.540    13101.062     8559.996     3665.044        3.420        1.266      206.915       45.736        0.049      348.248       27.803      858.570
09/13/2013  14:19:00      160.699      158.291       28.224      146.073       91.427       69.747    21337.209     8358.946     4864.646        4.311        1.728      225.567       46.803        0.043      348.084       27.518      858.579
09/13/2013  14:20:00      239.674      142.032       45.739      122.665       83.954       71.740    15046.780     7048.340     5146.622        5.347        1.362      278.597       39.956        0.021      348.084       27.518      858.571
09/13/2013  14:21:00      346.231      238.559       43.218      128.147       99.751       85.123    16421.695     9950.264     7246.006       10.613        1.681      420.460       45.145        0.012      347.753       26.947      858.569
09/13/2013  14:22:00      268.155      217.368       33.576      144.116       97.268       91.847    20769.557     9460.977     8435.879        7.947        1.933      345.190       52.659        0.023      347.732       26.911      858.578
09/13/2013  14:23:00      279.002      183.951       49.547      164.969       99.407       80.160    27214.701     9881.689     6425.636        7.882        2.176      334.186       51.136        0.023      347.756       26.951      858.573
09/13/2013  14:24:00      244.216      147.027       30.035      115.331       80.502       59.391    13301.304     6480.603     3527.328        5.273        1.165      285.059       43.956        0.024      347.711       26.874      858.564
09/13/2013  14:25:00      210.025      141.711       26.959      140.042      100.872       70.364    19611.689    10175.259     4951.098        4.982        1.737      253.362       48.689        0.037      347.833       27.085      858.536
09/13/2013  14:26:00      225.039      190.463        1.969      122.740       85.546       71.098    15065.225     7318.044     5054.933        5.718        1.372      294.820       33.676        0.013      347.962       27.306      858.522
09/13/2013  14:27:00      163.237      112.458       35.692       86.636       83.747       56.623     7505.825     7013.511     3206.165        2.914        0.886      198.225       44.928        0.051      348.176       27.677      858.500
09/13/2013  14:28:00      139.313      116.665       67.876      101.805       72.680       62.408    10364.320     5282.324     3894.744        2.858        0.977      181.711       41.631        0.052      348.236       27.783      858.480
09/13/2013  14:29:00      213.843      136.238       78.322      113.720       94.773       83.352    12932.148     8981.956     6947.532        4.964        1.443      253.554       66.273        0.068      348.040       27.443      858.450
09/13/2013  14:30:00      131.120      118.114       47.870       95.404       73.026       80.196     9101.938     5332.728     6431.435        2.715        1.043      176.475       70.352        0.159      348.051       27.461      858.456
09/13/2013  14:31:00      178.271      122.976       47.639      102.319       76.749       75.104    10469.230     5890.449     5640.654        3.558        1.100      216.572       59.522        0.076      348.191       27.704      858.435
09/13/2013  14:32:00      170.450      116.185       45.250       82.878       58.575       61.145     6868.791     3431.010     3738.679        2.932        0.702      206.282       42.938        0.043      348.058       27.474      858.409
09/13/2013  14:33:00      108.992       89.314       73.161      105.628       59.985       69.028    11157.189     3598.159     4764.838        2.236        0.976      140.912       65.159        0.214      347.996       27.369      858.379
09/13/2013  14:34:00      156.181       84.263       46.173       79.063       53.466       54.756     6251.033     2858.606     2998.176        2.286        0.605      177.461       36.703        0.043      348.124       27.589      858.365
09/13/2013  14:35:00      144.280      105.857       17.747       77.317       66.657       36.320     5977.887     4443.152     1319.170        2.204        0.587      178.948       26.556        0.022      348.159       27.650      858.356
09/13/2013  14:36:00      153.238      117.056       18.725       63.904       45.545       43.929     4083.725     2074.370     1929.733        2.281        0.404      192.831       30.394        0.025      348.154       27.640      858.334
09/13/2013  14:37:00       94.448       67.003       64.826       77.880       88.988       53.914     6065.321     7918.924     2906.763        1.725        0.845      115.801       40.987        0.125      348.128       27.597      858.327
09/13/2013  14:38:00       72.518       48.410       60.471       75.214       64.688       46.392     5657.071     4184.499     2152.248        1.162        0.600       87.191       36.728        0.177      347.907       27.216      858.313
09/13/2013  14:39:00      105.386       92.867       65.687       90.570       52.025       59.885     8202.981     2706.586     3586.265        1.927        0.725      140.465       27.592        0.039      348.043       27.448      858.314
09/13/2013  14:40:00      141.304       68.608       32.876       81.146       59.900       52.542     6584.656     3587.984     2760.635        1.934        0.647      157.079       33.866        0.046      348.338       27.958      858.304
09/13/2013  14:41:00      231.609      162.650       67.751      116.094       89.589       72.574    13477.709     8026.120     5266.938        5.572        1.339      283.015       40.404        0.020      348.241       27.791      858.296
09/13/2013  14:42:00      201.532      114.700       41.715       91.836       59.208       59.936     8433.859     3505.544     3592.363        3.552        0.777      231.886       41.194        0.032      348.101       27.547      858.294
09/13/2013  14:43:00      112.456       72.615       27.965       76.725       44.010       39.568     5886.692     1936.854     1565.621        1.404        0.469      133.863       24.693        0.034      348.119       27.583      858.290
09/13/2013  14:44:00      126.918       67.135       32.818       85.436       68.662       48.332     7299.297     4714.535     2335.981        1.802        0.717      143.580       40.395        0.079      348.099       27.547      858.271
09/13/2013  14:45:00      172.294      107.242       34.465       75.522       51.508       54.404     5703.572     2653.027     2959.746        2.684        0.566      202.944       24.514        0.015      348.286       27.869      858.273
09/13/2013  14:46:00      159.363       96.462       24.851       87.670       55.678       47.091     7685.989     3100.026     2217.589        2.416        0.650      186.283       16.357        0.008      348.331       27.948      858.280
09/13/2013  14:47:00      185.614      144.714       19.700      124.235       92.078       80.362    15434.341     8478.397     6458.118        4.307        1.519      235.361       57.324        0.059      348.117       27.576      858.273
09/13/2013  14:48:00      279.226      201.390       51.020      123.163       90.657       81.149    15169.228     8218.605     6585.240        7.554        1.499      344.275       46.791        0.018      348.046       27.451      858.249
09/13/2013  14:49:00      181.315      107.663       30.759       85.132       67.547       56.202     7247.383     4562.661     3158.655        3.019        0.748      210.871       26.525        0.016      348.056       27.472      858.257
09/13/2013  14:50:00       92.147      103.941       15.452       74.295       62.041       47.241     5519.782     3849.057     2231.687        1.556        0.580      138.906       42.155        0.092      348.102       27.552      858.241
09/13/2013  14:51:00      107.957       72.991       10.228       63.290       47.899       34.895     4005.633     2294.272     1217.643        1.230        0.376      130.316       14.708        0.013      348.086       27.526      858.238
09/13/2013  14:52:00       72.321       54.023       35.443       74.138       49.810       47.647     5496.497     2480.999     2270.284        0.982        0.512       90.271       28.332        0.099      348.016       27.405      858.232
09/13/2013  14:53:00       88.638       61.462       36.782       68.998       64.686       53.912     4760.689     4184.214     2906.454        1.242        0.593      107.862       35.791        0.110      348.062       27.482      858.231
09/13/2013  14:54:00       95.474       35.591       63.996       77.517       91.440       53.867     6008.851     8361.196     2901.687        1.587        0.864      101.892       40.771        0.160      347.991       27.359      858.216
09/13/2013  14:55:00       65.971       80.386       65.141       79.078       57.819       45.160     6253.358     3343.009     2039.426        1.334        0.582      103.991       39.912        0.147      347.995       27.369      858.201
09/13/2013  14:56:00       98.437       81.507       54.707       55.967       42.088       38.792     3132.271     1771.380     1504.817        1.287        0.320      127.802       16.674        0.017      348.040       27.445      858.192
09/13/2013  14:57:00      131.923      120.713        7.015       78.841       96.864       51.370     6215.825     9382.670     2638.878        2.513        0.912      178.817       54.748        0.094      348.052       27.465      858.195
09/13/2013  14:58:00       72.319      211.596      -26.606       82.334      107.787       55.247     6778.910    11618.080     3052.211        3.608        1.072      223.614       56.464        0.064      348.140       27.617      858.177
09/13/2013  14:59:00      126.464      124.609       13.053       76.897       62.488       54.686     5913.189     3904.804     2990.573        2.225        0.640      177.540       41.907        0.056      348.121       27.583      858.172
09/13/2013  15:00:00      140.990      112.461       14.678       76.657       58.874       53.848     5876.229     3466.122     2899.563        2.249        0.612      180.349       41.221        0.052      348.137       27.610      858.157
09/13/2013  15:01:00      110.599       84.760       17.201       56.872       40.201       38.083     3234.384     1616.131     1450.353        1.301        0.315      139.343       32.635        0.055      348.155       27.644      858.136
09/13/2013  15:02:00       99.995       65.715       31.026       67.954       34.625       32.029     4617.785     1198.925     1025.865        1.106        0.342      119.656       23.288        0.038      348.195       27.715      858.140
09/13/2013  15:03:00      107.507       93.864        6.585       55.816       43.631       44.134     3115.478     1903.687     1947.780        1.369        0.348      142.717       26.350        0.034      348.174       27.677      858.119
09/13/2013  15:04:00       15.814      159.042      -22.433       41.021       45.942       23.172     1682.701     2110.624      536.949        1.519        0.217      159.826       26.688        0.028      348.133       27.605      858.115
09/13/2013  15:05:00       77.257       85.785        7.992       61.793       28.035       25.508     3818.353      785.974      650.663        0.932        0.263      115.446       22.047        0.036      348.167       27.663      858.113
09/13/2013  15:06:00       89.221       72.049       17.741       43.458       33.124       33.903     1888.636     1097.174     1149.438        0.880        0.207      114.680       21.190        0.034      348.161       27.656      858.094
09/13/2013  15:07:00       66.036       25.751        4.454       42.758       43.738       25.298     1828.253     1913.003      639.985        0.471        0.219       70.880       15.291        0.047      348.026       27.422      858.084
09/13/2013  15:08:00        5.438       38.058        3.764       29.465       59.151       27.137      868.160     3498.786      736.419        0.330        0.255       38.445       23.299        0.367      348.107       27.561      858.067
09/13/2013  15:09:00       29.453      -22.722       -6.893       23.208       27.301       18.400      538.610      745.363      338.558        0.153        0.081       37.199       13.052        0.123      347.978       27.339      858.059
09/13/2013  15:10:00       -0.333        9.024        6.804       11.853       18.345       17.641      140.482      336.538      311.204        0.046        0.039        9.030       15.221        2.841      348.227       27.769      858.060
09/13/2013  15:11:00       50.077       18.478       18.912       25.274       29.527       21.678      638.761      871.871      469.938        0.259        0.099       53.377       12.214        0.052      347.745       26.938      858.053
09/13/2013  15:12:00       48.181       11.568       28.498       31.925       28.306       25.050     1019.175      801.252      627.499        0.286        0.122       49.550       16.323        0.109      347.977       27.337      858.055
09/13/2013  15:13:00       -5.271        6.382       21.215       16.172       20.683       15.008      261.537      427.793      225.226        0.072        0.046        8.277        8.728        1.112      348.365       28.010      858.050
09/13/2013  15:14:00        4.348       -5.737        5.603       41.273       43.010       37.410     1703.489     1849.887     1399.479        0.252        0.248        7.198       31.083       18.645      348.027       27.424      858.043
09/13/2013  15:15:00      131.665       91.718       22.043       58.493       53.783       41.154     3421.452     2892.613     1693.655        1.712        0.400      160.462       28.108        0.031      348.380       28.032      858.039
09/13/2013  15:16:00      139.722       71.758       20.586       73.628       44.838       34.200     5421.069     2010.455     1169.610        1.685        0.430      157.072       23.908        0.023      348.379       28.030      858.034
09/13/2013  15:17:00       77.452       59.265       19.443       56.889       49.836       36.420     3236.374     2483.645     1326.404        0.847        0.352       97.525       31.260        0.103      348.425       28.111      858.035
09/13/2013  15:18:00       80.955       57.548       10.996       33.276       37.888       27.403     1107.268     1435.526      750.900        0.664        0.165       99.325       14.388        0.021      348.185       27.695      858.019
09/13/2013  15:19:00        3.916       16.595       -1.118       36.816       29.471       17.191     1355.402      868.557      295.521        0.141        0.126       17.051       13.402        0.618      348.334       27.955      858.002
09/13/2013  15:20:00      -48.269       -3.802        1.906       21.669       19.897       21.394      469.554      395.899      457.703        0.184        0.066       48.419       11.729        0.059      348.394       28.060      857.989
09/13/2013  15:21:00       32.317      -27.100        3.050       57.356       30.829       27.405     3289.659      950.397      751.019        0.339        0.250       42.175       11.999        0.081      347.831       27.085      857.990
09/13/2013  15:22:00       45.801       27.206       31.252       57.012       54.345       35.911     3250.350     2953.346     1289.568        0.565        0.375       53.272       35.748        0.450      347.843       27.105      857.994
09/13/2013  15:23:00       92.161       62.867       31.073       53.336       39.111       30.289     2844.704     1529.692      917.448        0.935        0.265      111.561       25.463        0.052      348.128       27.599      857.989
09/13/2013  15:24:00        7.603       42.002       25.976       22.741       25.149       25.938      517.172      632.495      672.777        0.216        0.091       42.685       15.446        0.131      348.222       27.761      857.989
09/13/2013  15:25:00       17.777       25.419       12.246       42.911       43.436       23.863     1841.362     1886.649      569.424        0.270        0.215       31.019       29.647        0.914      348.037       27.443      857.986
09/13/2013  15:26:00       33.419      -70.449        2.095       55.275       50.454       24.477     3055.373     2545.643      599.109        0.614        0.310       77.974       18.918        0.059      348.087       27.527      857.976
09/13/2013  15:27:00       53.046      -24.901        8.094       30.512       42.046       28.225      930.968     1767.887      796.645        0.350        0.175       58.600       30.740        0.275      347.898       27.200      857.968
09/13/2013  15:28:00       21.136       -7.519       28.635       35.677       50.126       31.188     1272.862     2512.621      972.708        0.304        0.238       22.434       31.535        1.976      347.845       27.110      857.960
09/13/2013  15:29:00       17.194      -61.723      -13.625       45.201       29.471       23.328     2043.132      868.538      544.199        0.387        0.173       64.073       15.911        0.062      348.298       27.891      857.949
09/13/2013  15:30:00       48.323      -64.091        0.243       40.615       40.195       23.032     1649.571     1615.631      530.471        0.512        0.190       80.266       19.342        0.058      348.423       28.109      857.942
09/13/2013  15:31:00       47.384      -42.402       27.954       31.517       37.130       23.680      993.293     1378.639      560.749        0.388        0.147       63.586       19.624        0.095      348.339       27.962      857.937
09/13/2013  15:32:00       34.035      -41.422        7.007       23.736       33.560       23.069      563.401     1126.300      532.169        0.257        0.111       53.611       18.250        0.116      348.409       28.085      857.924
09/13/2013  15:33:00       -4.023      -16.989       11.940       38.736       27.442       20.838     1500.502      753.040      434.202        0.157        0.134       17.459        7.855        0.202      348.487       28.219      857.915
09/13/2013  15:34:00       42.236      -36.272        8.108       47.065       32.345       18.017     2215.090     1046.209      324.618        0.337        0.179       55.674       18.369        0.109      348.379       28.031      857.913
09/13/2013  15:35:00       40.970        1.524       -3.264       29.925       17.673       15.181      895.500      312.341      230.473        0.156        0.072       40.999       12.182        0.088      348.275       27.851      857.910
09/13/2013  15:36:00       25.524      -35.682       -0.082       30.581       37.113       17.441      935.209     1377.362      304.192        0.227        0.131       43.871       16.789        0.146      348.259       27.825      857.905
09/13/2013  15:37:00       43.236      -39.196       12.416       35.054       25.682       28.296     1228.791      659.574      800.641        0.312        0.134       58.359       23.586        0.163      347.885       27.178      857.902
09/13/2013  15:38:00       49.129      -20.363       17.158       17.550       18.881       20.217      307.986      356.509      408.744        0.210        0.054       53.181       15.408        0.084      347.943       27.280      857.902
09/13/2013  15:39:00       10.006        6.913       33.593       23.432       17.198       13.954      549.063      295.782      194.728        0.116        0.052       12.162        9.283        0.583      348.057       27.476      857.900
09/13/2013  15:40:00       32.827      -21.264       21.727       30.618       29.468       27.111      937.452      868.391      735.004        0.227        0.127       39.112       10.508        0.072      348.063       27.486      857.907
09/13/2013  15:41:00       33.869      -17.472       24.007       33.364       37.365       25.907     1113.152     1396.136      671.175        0.260        0.159       38.110       22.616        0.352      347.758       26.958      857.905
09/13/2013  15:42:00      -13.867      -19.231       13.708       23.376       33.239       20.375      546.432     1104.800      415.156        0.141        0.103       23.709       16.804        0.502      348.218       27.753      857.903
09/13/2013  15:43:00      -33.322      -37.306        6.711       32.272       24.442       16.834     1041.505      597.404      283.387        0.223        0.096       50.021       10.052        0.040      348.299       27.894      857.900
09/13/2013  15:44:00        0.121      -61.993       23.368       24.113       53.249       28.840      581.451     2835.455      831.725        0.432        0.212       61.993       25.843        0.174      348.314       27.919      857.890
09/13/2013  15:45:00       10.500        1.446       36.302       31.860       49.424       31.292     1015.037     2442.688      979.197        0.293        0.222       10.599       35.739       11.370      348.339       27.963      857.881
09/13/2013  15:46:00      -28.775      -27.157       22.166       31.685       40.140       21.237     1003.942     1611.197      451.011        0.256        0.153       39.566       18.460        0.218      348.358       27.995      857.872
09/13/2013  15:47:00      -88.450      -90.095        1.591       46.499       39.316       30.773     2162.182     1545.721      946.980        1.030        0.233      126.256       29.974        0.056      348.314       27.919      857.860
09/13/2013  15:48:00      -37.953      -22.335       -0.256       51.260       31.184       21.056     2627.553      972.432      443.354        0.299        0.202       44.037       17.144        0.152      348.353       27.987      857.857
09/13/2013  15:49:00       -0.702      -15.504       -6.398       36.115       23.739       18.752     1304.305      563.551      351.637        0.125        0.111       15.520        3.973        0.066      348.375       28.027      857.851
09/13/2013  15:50:00       21.800       -3.087       -0.988       38.108       26.139       24.314     1452.232      683.270      591.168        0.161        0.136       22.018        8.215        0.139      348.216       27.750      857.837
09/13/2013  15:51:00       39.799      -20.410       12.951       32.910       26.746       27.256     1083.098      715.339      742.875        0.235        0.127       44.727       13.667        0.093      347.753       26.950      857.832
09/13/2013  15:52:00       20.345      -36.642       -7.126       23.533       26.536       20.948      553.779      704.135      438.821        0.175        0.085       41.911       11.371        0.074      347.723       26.900      857.838
09/13/2013  15:53:00       39.069       -2.992       12.001       38.688       24.177       28.510     1496.787      584.529      812.825        0.229        0.145       39.183       23.570        0.362      347.887       27.183      857.835
09/13/2013  15:54:00       25.549       -2.451        4.220       28.200       20.483       21.922      795.249      419.572      480.578        0.119        0.085       25.666        9.088        0.125      347.768       26.978      857.841
09/13/2013  15:55:00       -2.979      -26.125        7.223       17.879       40.699       16.117      319.666     1656.390      259.756        0.149        0.112       26.295        7.902        0.090      348.133       27.608      857.834
09/13/2013  15:56:00        8.993      -56.955       -1.384       32.077       19.193       17.459     1028.964      368.376      304.820        0.251        0.085       57.661       11.985        0.043      347.868       27.150      857.831
09/13/2013  15:57:00       59.202       54.031       22.783       45.379       34.496       34.133     2059.248     1190.002     1165.071        0.568        0.221       80.151       23.997        0.090      348.278       27.857      857.826
09/13/2013  15:58:00       31.865       16.404        4.456       48.157       42.541       27.572     2319.054     1809.733      760.229        0.310        0.244       35.840       24.319        0.460      348.382       28.037      857.824
09/13/2013  15:59:00       -0.494       -3.042       29.155       15.814       32.913       24.592      250.082     1083.244      604.758        0.140        0.097        3.082       15.945       26.775      348.357       27.995      857.811
09/13/2013  16:00:00       36.664       33.926       51.747       44.441       64.084       36.717     1974.996     4106.820     1348.106        0.630        0.371       49.953       38.971        0.609      348.227       27.768      857.794
09/13/2013  16:01:00       -0.727        6.797        4.579       37.970       38.433       29.268     1441.700     1477.067      856.624        0.192        0.189        6.836       22.465       10.800      347.991       27.360      857.781
09/13/2013  16:02:00       20.364       32.011       37.218       33.283       39.230       33.766     1107.731     1538.961     1140.132        0.330        0.189       37.940       24.444        0.415      348.385       28.042      857.769
09/13/2013  16:03:00      128.039       90.194       27.722       57.703       44.333       45.206     3329.610     1965.448     2043.554        1.632        0.367      156.617       20.890        0.018      348.345       27.972      857.753
09/13/2013  16:04:00       67.629       62.762       10.777       72.192       65.179       43.088     5211.731     4248.282     1856.618        0.997        0.566       92.264       37.292        0.163      348.362       28.002      857.746
09/13/2013  16:05:00       25.589      -24.471       31.416       36.851       80.231       48.785     1358.006     6437.091     2379.981        0.621        0.509       35.406       46.333        1.712      348.231       27.776      857.721
09/13/2013  16:06:00       93.840       67.057       11.828       56.528       51.035       39.756     3195.439     2604.592     1580.547        1.041        0.369      115.336       14.771        0.016      348.252       27.814      857.707
09/13/2013  16:07:00      112.221       64.981       25.289       64.025       55.691       48.455     4099.261     3101.492     2347.893        1.350        0.477      129.677       34.182        0.069      348.301       27.898      857.696
09/13/2013  16:08:00       69.525       28.147       18.034       55.108       48.179       35.705     3036.945     2321.218     1274.870        0.629        0.332       75.006       25.853        0.119      348.390       28.051      857.677
09/13/2013  16:09:00       43.917       13.789       35.179       42.984       47.262       34.764     1847.607     2233.700     1208.512        0.432        0.264       46.031       31.077        0.456      348.438       28.134      857.664
09/13/2013  16:10:00      100.646       77.811       59.625       67.366       74.213       49.935     4538.240     5507.505     2493.473        1.614        0.627      127.217       28.772        0.051      348.188       27.700      857.650
09/13/2013  16:11:00       63.384       71.056       77.381       75.303       64.501       42.641     5670.471     4160.389     1818.256        1.335        0.582       95.218       31.901        0.112      348.186       27.697      857.644
09/13/2013  16:12:00       80.692       35.380       36.712       71.967       60.739       48.143     5179.284     3689.172     2317.754        1.015        0.559       88.107       32.770        0.138      348.105       27.559      857.630
09/13/2013  16:13:00       33.474       -1.357       39.537       48.093       54.765       33.036     2312.942     2999.179     1091.351        0.454        0.320       33.501       25.375        0.574      348.186       27.700      857.612
09/13/2013  16:14:00       43.504       11.582       63.520       60.399       63.529       45.817     3648.013     4035.962     2099.212        0.792        0.489       45.019       50.010        1.234      348.259       27.824      857.595
09/13/2013  16:15:00       88.327       63.399       29.397       78.597       57.624       39.751     6177.544     3320.524     1580.122        1.188        0.554      108.725       22.693        0.044      348.289       27.877      857.587
09/13/2013  16:16:00      116.645       57.226       30.165       81.772       52.385       42.860     6686.657     2744.163     1836.946        1.453        0.563      129.926       30.496        0.055      348.391       28.052      857.571
09/13/2013  16:17:00       25.240       24.344       55.151       36.269       40.781       37.506     1315.471     1663.089     1406.726        0.433        0.219       35.067       30.513        0.757      348.237       27.788      857.559
09/13/2013  16:18:00       15.163      -17.586       15.096       35.230       55.830       28.697     1241.118     3117.025      823.491        0.297        0.259       23.221       11.476        0.244      348.235       27.783      857.547
09/13/2013  16:19:00       18.324       22.775       50.831       40.275       60.657       31.374     1622.102     3679.282      984.317        0.486        0.314       29.231       32.666        1.249      348.458       28.169      857.546
09/13/2013  16:20:00       81.681       53.053       52.422       77.251       66.750       36.400     5967.789     4455.624     1324.956        1.199        0.587       97.398       25.262        0.067      348.362       28.002      857.539
09/13/2013  16:21:00       10.663       12.988       53.201       43.783       59.447       40.631     1916.975     3533.978     1650.873        0.511        0.355       16.804       33.315        3.930      348.324       27.937      857.546
09/13/2013  16:22:00       24.341       50.605       50.491       61.198       45.732       36.278     3745.218     2091.442     1316.124        0.643        0.358       56.155       17.365        0.096      348.100       27.550      857.548
09/13/2013  16:23:00       33.069       23.876       39.542       41.078       54.259       31.236     1687.394     2944.045      975.656        0.442        0.280       40.787       23.350        0.328      348.118       27.580      857.538
09/13/2013  16:24:00       65.785      -24.068       13.357       70.241       70.679       48.660     4933.786     4995.545     2367.819        0.869        0.615       70.050       43.323        0.382      348.100       27.550      857.528
09/13/2013  16:25:00       64.706       46.321       19.985       59.130       46.046       42.052     3496.412     2120.229     1768.345        0.706        0.369       79.577       15.486        0.038      348.195       27.714      857.521
09/13/2013  16:26:00      127.156       79.697       25.071       53.927       33.111       35.872     2908.092     1096.317     1286.818        1.422        0.265      150.067       24.530        0.027      348.322       27.934      857.514
09/13/2013  16:27:00       93.331       56.549       34.256       45.840       41.748       36.205     2101.314     1742.935     1310.778        0.912        0.258      109.126       16.257        0.022      348.401       28.072      857.509
09/13/2013  16:28:00       95.318       59.809       29.393       52.541       52.747       35.284     2760.586     2782.201     1244.976        1.016        0.339      112.529       15.666        0.019      348.499       28.238      857.507
09/13/2013  16:29:00       72.205       64.701        5.380       56.766       37.184       43.523     3222.358     1382.635     1894.270        0.796        0.325       96.952       29.660        0.094      348.351       27.983      857.508
09/13/2013  16:30:00       91.850       73.521       21.283       48.936       37.352       38.098     2394.760     1395.198     1451.452        0.977        0.262      117.651       24.326        0.043      348.366       28.010      857.506
09/13/2013  16:31:00       85.861       68.356       14.865       44.531       36.190       29.845     1983.006     1309.688      890.721        0.822        0.209      109.748       18.428        0.028      348.357       27.996      857.497
09/13/2013  16:32:00       40.240       27.730       13.533       41.442       26.622       23.038     1717.465      708.713      530.772        0.276        0.148       48.869       13.750        0.079      348.518       28.271      857.500
09/13/2013  16:33:00       88.769       66.571       21.924       48.787       43.967       43.861     2380.165     1933.124     1923.799        0.951        0.312      110.957       23.813        0.046      348.430       28.119      857.510
09/13/2013  16:34:00       50.472       53.459       12.268       53.694       35.629       31.146     2883.089     1269.445      970.102        0.534        0.256       73.520       11.473        0.024      348.490       28.223      857.506
09/13/2013  16:35:00       12.792       39.160        9.821       40.523       39.196       27.268     1642.152     1536.355      743.546        0.286        0.196       41.196       18.875        0.210      348.558       28.342      857.524
09/13/2013  16:36:00       24.848      -32.501      -15.950       21.679       35.777       18.929      469.993     1280.014      358.321        0.202        0.105       40.912       19.385        0.225      348.184       27.696      857.551
09/13/2013  16:37:00       12.659       -8.846        5.136       13.052       16.485       20.820      170.349      271.765      433.454        0.057        0.044       15.444       15.715        1.035      348.168       27.669      857.571
09/13/2013  16:38:00       72.552       53.820       43.507       44.595       25.525       23.768     1988.736      651.525      564.904        0.663        0.160       90.335        5.594        0.004      347.988       27.356      857.592
09/13/2013  16:39:00      105.669       66.542       29.878       58.347       37.690       30.333     3404.324     1420.500      920.082        1.111        0.287      124.875       17.645        0.020      348.253       27.815      857.616
09/13/2013  16:40:00       -3.943       44.673       -2.993       31.942       41.078       17.782     1020.270     1687.398      316.210        0.252        0.151       44.846        7.840        0.031      348.328       27.945      857.639
09/13/2013  16:41:00       35.278       93.149       -7.150       32.970       41.649       30.714     1087.039     1734.619      943.348        0.687        0.188       99.606       25.710        0.067      348.382       28.039      857.659
09/13/2013  16:42:00       54.721      113.082       -1.155       39.051       61.206       40.503     1524.948     3746.213     1640.511        1.135        0.346      125.626       39.223        0.097      348.379       28.031      857.671
09/13/2013  16:43:00       58.483       94.729       -0.906       38.300       51.629       32.856     1466.892     2665.553     1079.514        0.880        0.261      111.328       29.768        0.071      348.377       28.030      857.682
09/13/2013  16:44:00       54.324       71.201       -2.882       33.754       42.267       34.792     1139.326     1786.472     1210.487        0.608        0.207       89.558       30.906        0.119      348.398       28.064      857.688
09/13/2013  16:45:00       35.450       92.349      -12.628       31.298       41.682       20.783      979.550     1737.370      431.943        0.655        0.157       98.919       23.725        0.058      348.393       28.058      857.700
09/13/2013  16:46:00       -4.483      143.933      -20.183       26.082       35.773       18.043      680.295     1279.699      325.566        1.171        0.114      144.002       15.677        0.012      348.343       27.970      857.712
09/13/2013  16:47:00       19.924      106.741       -5.187       19.412       66.714       29.225      376.829     4450.762      854.120        0.875        0.284      108.584       39.688        0.134      348.383       28.041      857.735
09/13/2013  16:48:00       19.539       85.560       -9.279       27.751       67.099       29.233      770.134     4502.227      854.558        0.696        0.306       87.763       37.908        0.187      348.394       28.058      857.759
09/13/2013  16:49:00       29.638      171.903      -27.959       39.721       37.811       25.967     1577.767     1429.686      674.291        1.745        0.184      174.439       25.306        0.021      348.357       27.997      857.789
09/13/2013  16:50:00       40.038      199.943      -23.126       47.315       69.975       46.138     2238.674     4896.450     2128.735        2.569        0.463      203.912       46.859        0.053      348.354       27.987      857.815
09/13/2013  16:51:00       33.609      137.206       -0.728       56.691       81.870       54.369     3213.895     6702.626     2955.943        1.641        0.644      141.262       53.501        0.143      348.353       27.986      857.837
09/13/2013  16:52:00       53.735      122.540       15.368       77.784       96.192       66.866     6050.415     9252.839     4471.071        1.895        0.989      133.804       61.571        0.212      348.326       27.940      857.850
09/13/2013  16:53:00      124.956      181.204        9.745      132.426      105.892       81.698    17536.516    11213.086     6674.635        4.198        1.771      220.111       73.327        0.111      348.195       27.712      857.849
09/13/2013  16:54:00       90.715      199.822       -1.367      105.489      144.262       76.840    11127.880    20811.414     5904.346        4.299        1.892      219.449       75.063        0.117      348.032       27.428      857.856
09/13/2013  16:55:00      244.963      207.542       26.639      144.993      102.615       83.068    21022.841    10529.877     6900.350        7.111        1.923      321.062       67.294        0.044      347.872       27.152      857.879
09/13/2013  16:56:00      102.448      107.230       25.715      148.795       87.488       49.677    22139.891     7654.065     2467.791        2.745        1.613      148.304       34.717        0.055      347.752       26.947      857.882
09/13/2013  16:57:00       76.012      154.785       -7.086      103.131       91.270       69.032    10635.995     8330.224     4765.374        2.675        1.187      172.441       54.893        0.101      347.876       27.160      857.940
09/13/2013  16:58:00     -238.023      104.869      -34.372      143.641      160.492       70.122    20632.622    25757.663     4917.160        6.006        2.565      260.101       70.228        0.073      347.936       27.264      858.000
09/13/2013  16:59:00     -260.347       66.372      -29.022      166.001      161.307       89.833    27556.173    26019.879     8070.035        6.732        3.082      268.674       73.455        0.075      347.766       26.969      858.054
09/13/2013  17:00:00     -251.051      -55.353      -20.144      210.709      161.151       85.839    44398.387    25969.534     7368.284        7.210        3.887      257.081       95.068        0.137      347.322       26.205      858.068
09/13/2013  17:01:00       32.204      148.813       11.075      106.601      104.568       66.850    11363.761    10934.445     4468.942        2.503        1.338      152.258       63.246        0.173      347.533       26.568      858.001
09/13/2013  17:02:00      -23.852       91.033      -12.857       61.027       51.122       31.947     3724.294     2613.434     1020.582        0.819        0.368       94.106       11.540        0.015      347.684       26.832      857.875
09/13/2013  17:03:00      -10.778       80.847        3.166       29.594       41.615       22.517      875.793     1731.784      506.997        0.489        0.156       81.562       22.492        0.076      347.621       26.723      857.850
09/13/2013  17:04:00       10.013      119.612        2.214       33.881       69.449       34.278     1147.942     4823.165     1174.970        1.078        0.357      120.031       38.996        0.106      347.582       26.654      857.875
09/13/2013  17:05:00       81.275      107.342        5.759       73.695       63.903       45.123     5430.886     4083.623     2036.055        1.485        0.578      134.640       40.873        0.092      347.590       26.671      857.903
09/13/2013  17:06:00       84.912       70.465       52.676       59.994       44.030       55.657     3599.340     1938.645     3097.729        1.179        0.432      110.342       27.029        0.060      347.402       26.345      857.897
09/13/2013  17:07:00       -9.938      319.063      -42.327       65.662      122.720       45.064     4311.444    15060.162     2030.741        6.254        1.070      319.218       55.695        0.030      347.540       26.580      858.124
09/13/2013  17:08:00       71.429      299.084      -13.246      115.525      164.316       97.416    13345.910    26999.804     9489.936        7.227        2.492      307.495       96.870        0.099      347.473       26.465      858.186
09/13/2013  17:09:00      -31.859      303.352      -35.425      155.694      160.880       73.813    24240.512    25882.294     5448.364        7.492        2.779      305.020       82.945        0.074      347.447       26.420      858.174
09/13/2013  17:10:00      -74.641      298.955      -28.363      105.933      134.523       57.251    11221.898    18096.321     3277.717        6.417        1.630      308.132       63.745        0.043      347.407       26.350      858.166
09/13/2013  17:11:00      -39.529      249.763      -33.076      112.352      151.077       62.395    12622.980    22824.299     3893.102        5.218        1.967      252.871       67.874        0.072      347.387       26.317      858.128
09/13/2013  17:12:00      -69.890      380.618      -34.680      100.732      102.833       65.166    10146.853    10574.716     4246.582        8.796        1.248      386.981       60.394        0.024      347.385       26.312      858.110
09/13/2013  17:13:00     -101.003      274.155      -23.204       76.762      113.180       55.239     5892.383    12809.633     3051.325        5.382        1.088      292.169       54.581        0.035      347.337       26.231      858.107
09/13/2013  17:14:00     -102.887      260.979      -25.934       87.994      121.359       58.164     7742.913    14728.065     3383.006        5.261        1.293      280.527       56.923        0.041      347.345       26.242      858.127
09/13/2013  17:15:00     -180.262      271.247      -36.697      139.622      142.717       72.380    19494.323    20368.184     5238.924        7.625        2.255      325.683       82.719        0.065      347.374       26.294      858.165
09/13/2013  17:16:00     -114.114      358.840      -44.659      139.335      169.022       72.857    19414.289    28568.379     5308.183        9.853        2.665      376.548       75.535        0.040      347.393       26.327      858.170
09/13/2013  17:17:00     -115.122      373.138      -41.639       87.821      153.712       67.914     7712.581    23627.339     4612.290        9.508        1.798      390.493       62.505        0.026      347.361       26.270      858.194
09/13/2013  17:18:00     -270.170      282.258      -62.949      159.829      209.549       78.812    25545.443    43910.749     6211.298       11.613        3.783      390.719       83.867        0.046      347.334       26.224      858.181
09/13/2013  17:19:00     -243.621      366.644      -51.148      111.125      154.976       73.505    12348.822    24017.443     5402.922       11.907        2.088      440.203       81.250        0.034      347.318       26.196      858.183
09/13/2013  17:20:00     -172.442      340.977      -38.885      116.658      142.998       70.311    13609.139    20448.440     4943.695        9.325        1.950      382.102       66.059        0.030      347.290       26.150      858.188
09/13/2013  17:21:00     -192.302      310.718      -50.192      111.340      140.662       67.747    12396.503    19785.790     4589.715        8.640        1.839      365.412       61.074        0.028      347.324       26.208      858.214
09/13/2013  17:22:00     -225.855      358.826      -48.679      138.477      148.597       90.182    19175.769    22081.105     8132.834       11.575        2.469      423.989       90.335        0.045      347.315       26.193      858.246
09/13/2013  17:23:00     -150.267      271.022      -51.098      114.205      100.020       65.007    13042.756    10003.986     4225.884        6.295        1.364      309.893       65.648        0.045      347.359       26.267      858.211
09/13/2013  17:24:00     -198.989      495.911      -72.469      139.585      232.743       80.613    19483.977    54169.406     6498.457       18.545        4.008      534.345       89.840        0.028      347.382       26.306      858.226
09/13/2013  17:25:00     -207.402      427.678      -48.152      134.606      158.819       87.305    18118.733    25223.582     7622.105       13.959        2.548      475.314       82.480        0.030      347.352       26.257      858.249
09/13/2013  17:26:00     -180.377      258.390      -41.306      118.605      136.064       66.510    14067.191    18513.310     4423.621        6.900        1.850      315.121       68.049        0.047      347.344       26.241      858.244
09/13/2013  17:27:00     -105.123      358.526      -28.155      119.603      168.476       86.619    14304.943    28384.127     7502.905        9.528        2.510      373.620       85.063        0.052      347.357       26.264      858.233
09/13/2013  17:28:00     -137.934      390.700      -48.699       83.175      103.921       59.335     6918.148    10799.501     3520.643        9.764        1.062      414.333       59.441        0.021      347.384       26.311      858.230
09/13/2013  17:29:00     -133.470      128.783      -16.296       79.213       61.810       48.518     6274.774     3820.471     2354.038        2.355        0.622      185.470       36.172        0.038      347.352       26.258      858.249
09/13/2013  17:30:00      -73.246      245.863      -24.505       67.036      142.592       45.030     4493.762    20332.540     2027.743        4.663        1.343      256.542       55.646        0.047      347.341       26.237      858.262
09/13/2013  17:31:00     -131.503      275.880      -29.623      108.747      102.934       62.520    11825.914    10595.457     3908.694        6.030        1.317      305.619       53.224        0.030      347.312       26.186      858.266
09/13/2013  17:32:00     -154.878      305.294      -38.545       90.529      135.718       55.319     8195.524    18419.496     3060.230        7.417        1.484      342.332       51.750        0.023      347.271       26.115      858.256
09/13/2013  17:33:00     -142.083      261.369      -36.128       84.139       91.131       53.937     7079.316     8304.809     2909.209        5.405        0.915      297.491       44.430        0.022      347.256       26.089      858.274
09/13/2013  17:34:00     -219.268      270.632      -50.062      110.023      118.891       66.341    12105.021    14135.108     4401.109        7.723        1.532      348.310       65.482        0.035      347.248       26.075      858.259
09/13/2013  17:35:00     -160.899      163.407      -28.551      101.352       92.859       55.531    10272.324     8622.858     3083.722        3.769        1.099      229.325       69.442        0.092      347.248       26.077      858.277
09/13/2013  17:36:00     -138.008      138.281      -16.605      101.122       79.026       53.692    10225.716     6245.076     2882.863        2.889        0.968      195.366       55.596        0.081      347.247       26.075      858.280
09/13/2013  17:37:00     -194.742      172.209      -40.503       84.287      116.604       64.712     7104.277    13596.504     4187.644        4.705        1.244      259.962       65.118        0.063      347.272       26.117      858.284
09/13/2013  17:38:00     -105.770      226.822      -15.821       86.237      131.467       64.592     7436.783    17283.615     4172.121        4.588        1.445      250.271       62.661        0.063      347.248       26.076      858.306
09/13/2013  17:39:00     -109.634      133.358       -5.418      100.042       92.603       50.775    10008.399     8575.279     2578.142        2.549        1.058      172.638       47.968        0.077      347.242       26.067      858.312
09/13/2013  17:40:00     -169.624      231.223      -53.367       83.536      108.703       48.972     6978.242    11816.414     2398.288        5.313        1.060      286.769       46.457        0.026      347.269       26.111      858.318
09/13/2013  17:41:00     -111.981      190.668      -23.680       64.696       97.843       51.174     4185.576     9573.294     2618.801        3.291        0.819      221.119       48.070        0.047      347.253       26.085      858.331
09/13/2013  17:42:00      -86.484      116.243      -21.774       84.029       80.488       39.878     7060.894     6478.271     1590.269        1.829        0.756      144.886       45.084        0.097      347.266       26.109      858.329
09/13/2013  17:43:00      -35.042       73.052       16.710       84.349      119.486       53.842     7114.680    14276.847     2898.929        1.556        1.215       81.021       43.176        0.284      347.236       26.056      858.320
09/13/2013  17:44:00      -79.586       38.887       -9.779       52.165       71.569       35.782     2721.145     5122.149     1280.358        0.853        0.456       88.578       25.310        0.082      347.242       26.068      858.320
09/13/2013  17:45:00      -85.970       35.273      -11.173       38.513       59.978       35.040     1483.251     3597.368     1227.836        0.753        0.315       92.925       28.981        0.097      347.271       26.117      858.326
09/13/2013  17:46:00     -239.861       11.963      -17.954      133.561       67.781       52.819    17838.475     4594.219     2789.803        4.161        1.261      240.159       53.778        0.050      347.279       26.131      858.327
09/13/2013  17:47:00     -140.323      -33.010        1.517      131.378       65.222       41.226    17260.092     4253.927     1699.615        2.199        1.161      144.154       54.836        0.145      347.257       26.094      858.332
09/13/2013  17:48:00      -91.893        7.834       -1.858       36.236       39.489       20.637     1313.068     1559.344      425.878        0.590        0.165       92.226       11.444        0.015      347.261       26.101      858.339
09/13/2013  17:49:00      -29.831      -12.396       -2.290       26.202       62.041       24.537      686.564     3849.032      602.070        0.309        0.257       32.304       15.025        0.216      347.220       26.031      858.340
09/13/2013  17:50:00     -124.673      -48.269        0.045       76.626       64.645       30.166     5871.576     4178.965      909.986        1.441        0.548      133.691       39.574        0.088      347.263       26.103      858.330
09/13/2013  17:51:00     -131.562      -83.586        0.304      110.084       82.472       47.309    12118.556     6801.712     2238.176        2.272        1.058      155.869       52.150        0.112      347.201       25.997      858.345
09/13/2013  17:52:00     -113.870      -90.655       12.215       81.710       58.102       42.565     6676.513     3375.882     1811.763        1.660        0.593      145.550       39.784        0.075      347.218       26.028      858.362
09/13/2013  17:53:00      -50.304     -121.276        8.598       55.096       77.530       36.370     3035.548     6010.914     1322.810        1.384        0.518      131.295       35.570        0.073      347.249       26.081      858.378
09/13/2013  17:54:00     -159.653     -115.456       -7.810      106.365       70.372       36.633    11313.529     4952.165     1342.006        2.824        0.880      197.026       29.022        0.022      347.200       25.995      858.386
09/13/2013  17:55:00     -126.477     -114.134       17.536      100.939      106.743       40.125    10188.586    11393.996     1609.987        2.626        1.160      170.362       30.746        0.033      347.091       25.807      858.391
09/13/2013  17:56:00     -188.475     -242.324        4.391      148.130      117.108       57.891    21942.635    13714.395     3351.313        6.663        1.950      306.991       60.603        0.039      347.052       25.737      858.387
09/13/2013  17:57:00     -438.769     -296.800      -23.686      163.918      152.854       79.095    26869.050    23364.238     6256.043       16.882        2.824      529.725       76.891        0.021      346.879       25.441      858.390
09/13/2013  17:58:00     -511.767     -365.253      -12.650      218.165      185.729      113.536    47595.750    34495.419    12890.525       24.521        4.749      628.741      114.673        0.033      346.307       24.456      858.360
09/13/2013  17:59:00     -473.181     -288.443        8.044      249.833      200.314      110.344    62416.541    40125.740    12175.881       21.092        5.736      554.165      119.821        0.047      346.081       24.068      858.350
09/13/2013  18:00:00     -423.621     -326.797      -19.540      215.548      210.737      103.741    46460.905    44410.252    10762.259       19.411        5.082      535.024      117.660        0.048      346.043       24.003      858.349
09/13/2013  18:01:00     -322.049     -222.382       20.423      198.749      169.697       87.358    39501.262    28797.221     7631.431       11.474        3.796      391.368       83.419        0.045      346.023       23.969      858.330
09/13/2013  18:02:00     -492.126     -328.747       -9.135      248.685      220.859      116.877    61844.267    48778.840    13660.118       23.729        6.214      591.830      121.323        0.042      346.042       24.000      858.262
09/13/2013  18:03:00     -453.651     -346.478      -18.169      289.205      246.082      116.578    83639.251    60556.465    13590.432       24.195        7.889      570.829      147.582        0.067      346.068       24.045      858.268
09/13/2013  18:04:00     -459.370     -276.543       -1.661      272.107      184.045      114.155    74042.344    33872.694    13031.320       20.420        6.047      536.187      138.503        0.067      346.083       24.071      858.260
09/13/2013  18:05:00     -538.650     -259.989      -37.377      250.134      175.375       92.767    62566.865    30756.388     8605.797       23.051        5.096      598.112      119.196        0.040      346.073       24.053      858.298
09/13/2013  18:06:00     -442.683     -292.517      -26.594      208.631      185.018       95.603    43526.777    34231.509     9139.872       18.455        4.345      530.598      108.442        0.042      346.028       23.978      858.313
09/13/2013  18:07:00     -495.656     -285.928        0.109      254.608      186.293      108.652    64825.210    34704.978    11805.351       21.936        5.567      572.215      114.929        0.040      345.932       23.812      858.320
09/13/2013  18:08:00     -394.439     -186.382        1.034      220.849      176.145       92.866    48774.462    31027.077     8624.105       13.936        4.421      436.257      100.619        0.053      345.930       23.809      858.330
09/13/2013  18:09:00     -301.000     -228.194        4.380      175.640      174.932       93.688    30849.286    30601.207     8777.493       10.645        3.511      377.721       98.083        0.067      345.894       23.747      858.361
09/13/2013  18:10:00     -382.030     -153.609       12.500      248.106      174.878      104.589    61556.411    30582.321    10938.779       13.637        5.154      411.755      124.157        0.091      345.833       23.642      858.384
09/13/2013  18:11:00     -411.550     -253.636      -18.769      173.700      146.562       79.841    30171.561    21480.370     6374.656       14.603        2.901      483.431       73.098        0.023      345.770       23.535      858.374
09/13/2013  18:12:00     -269.461     -190.042      -17.454      183.695      139.067       81.607    33744.020    19339.542     6659.759        8.437        2.987      329.735       87.657        0.071      345.779       23.552      858.353
09/13/2013  18:13:00     -262.094     -122.194       15.276      189.529      170.068       93.739    35921.218    28923.243     8786.917        7.873        3.682      289.179      103.440        0.128      345.823       23.628      858.321
09/13/2013  18:14:00     -315.534      -86.844      -14.691      132.379      113.502       65.114    17524.145    12882.777     4239.828        7.098        1.732      327.267       60.209        0.034      345.823       23.625      858.343
09/13/2013  18:15:00     -302.368      -82.021      -13.269      159.351      149.439       70.077    25392.785    22332.108     4910.831        7.547        2.632      313.296       62.961        0.040      345.789       23.567      858.323
09/13/2013  18:16:00     -311.114     -102.342       -5.298      174.728      127.871       69.780    30529.940    16351.017     4869.243        7.951        2.588      327.515       85.150        0.068      345.798       23.584      858.334
09/13/2013  18:17:00     -307.295     -267.428       -6.712      197.548      167.996       93.975    39025.067    28222.768     8831.325       12.102        3.804      407.367      111.091        0.074      345.762       23.522      858.309
09/13/2013  18:18:00     -189.792     -134.457       -0.953      129.666       89.301       60.950    16813.307     7974.723     3714.915        4.130        1.425      232.594       67.829        0.085      345.781       23.555      858.271
09/13/2013  18:19:00     -224.256     -193.513       -1.568      145.282      119.318       79.156    21106.772    14236.743     6265.689        6.467        2.080      296.206       76.481        0.067      345.768       23.532      858.225
09/13/2013  18:20:00     -182.821      -90.278       16.011      155.425      105.469       72.330    24156.861    11123.615     5231.627        4.116        2.026      203.896       76.443        0.141      345.767       23.531      858.214
09/13/2013  18:21:00     -263.807      -40.257        8.717      182.221      141.319       82.516    33204.635    19971.060     6808.850        6.563        2.999      266.861       68.349        0.066      345.773       23.540      858.199
09/13/2013  18:22:00     -302.289     -113.164       -4.228      191.765      135.037       75.898    36773.758    18234.894     5760.523        8.247        3.038      322.777       90.925        0.079      345.776       23.546      858.193
09/13/2013  18:23:00     -336.972     -126.263       -5.166      173.321      174.660       88.037    30040.240    30506.082     7750.534        9.889        3.415      359.851       97.807        0.074      345.756       23.511      858.157
09/13/2013  18:24:00     -383.772     -191.492      -17.435      217.501      214.234       88.750    47306.755    45896.259     7876.563       14.265        5.054      428.894       96.756        0.051      345.708       23.429      858.142
09/13/2013  18:25:00     -419.518     -170.946        8.920      207.263      162.217      106.483    42957.784    26314.409    11338.554       14.294        4.031      453.009      112.546        0.062      345.670       23.362      858.131
09/13/2013  18:26:00     -412.273     -190.396       -6.998      222.200      145.426       85.931    49372.983    21148.842     7384.218       14.207        3.895      454.114      102.004        0.050      345.643       23.315      858.130
09/13/2013  18:27:00     -285.443     -195.848        6.632      236.717      185.917      124.549    56034.807    34565.020    15512.385       11.297        5.306      346.171      147.161        0.181      345.601       23.244      858.087
09/13/2013  18:28:00     -486.495     -286.704      -20.454      187.772      150.491       90.893    35258.252    22647.549     8261.551       19.272        3.308      564.691       88.697        0.025      345.578       23.206      858.073
09/13/2013  18:29:00     -323.673     -114.472       12.427      166.012      146.862       87.907    27559.871    21568.410     7727.608        8.743        2.843      343.319       86.758        0.064      345.582       23.210      858.066
09/13/2013  18:30:00     -293.273     -140.755       -7.405      157.124      118.986       66.323    24688.000    14157.588     4398.722        7.455        2.162      325.302       67.731        0.043      345.577       23.204      858.065
09/13/2013  18:31:00     -308.262     -194.744      -27.865      146.173      128.738       72.729    21366.437    16573.582     5289.546        8.847        2.161      364.625       78.632        0.047      345.579       23.207      858.053
09/13/2013  18:32:00     -213.157     -125.158       18.624      161.963      128.691       71.809    26232.118    16561.372     5156.500        5.469        2.397      247.185       83.595        0.114      345.604       23.250      858.061
09/13/2013  18:33:00     -193.012     -133.730       -4.604      128.717       96.743       68.968    16567.998     9359.248     4756.594        4.292        1.534      234.813       51.487        0.048      345.601       23.246      858.067
09/13/2013  18:34:00     -296.312     -135.520        3.660      124.943       90.071       57.520    15610.833     8112.832     3308.595        6.660        1.352      325.832       59.724        0.034      345.575       23.200      858.079
09/13/2013  18:35:00     -308.703     -123.651      -10.643      165.959       95.205       58.542    27542.494     9064.078     3427.145        7.536        2.002      332.547       66.940        0.041      345.564       23.182      858.077
09/13/2013  18:36:00     -230.773     -102.987        4.195      186.254      120.688       63.242    34690.661    14565.612     3999.600        5.856        2.663      252.710       80.202        0.101      345.564       23.181      858.087
09/13/2013  18:37:00     -238.094     -185.535       -4.888      162.988      115.753       76.213    26565.099    13398.804     5808.430        6.844        2.289      301.848       82.932        0.075      345.538       23.136      858.082
09/13/2013  18:38:00     -230.103     -117.335        5.123      120.743      114.737       62.825    14578.964    13164.508     3946.980        4.921        1.585      258.293       57.341        0.049      345.504       23.078      858.067
09/13/2013  18:39:00     -244.189     -133.782       -7.082      108.094      102.861       57.160    11684.305    10580.364     3267.319        5.155        1.277      278.435       40.738        0.021      345.507       23.081      858.068
09/13/2013  18:40:00     -282.800     -142.388       -7.946      105.569       84.251       53.928    11144.772     7098.205     2908.268        6.073        1.058      316.623       52.642        0.028      345.505       23.078      858.062
09/13/2013  18:41:00     -131.928     -145.588       14.831      123.901      117.238       67.598    15351.351    13744.842     4569.528        3.624        1.683      196.471       75.684        0.148      345.542       23.145      858.060
09/13/2013  18:42:00     -186.076     -137.425      -13.427       90.448      109.559       51.523     8180.902    12003.250     2654.586        3.826        1.142      231.322       51.711        0.050      345.538       23.137      858.068
09/13/2013  18:43:00      -83.758     -100.111        7.967       67.530       81.153       41.565     4560.244     6585.867     1727.624        1.498        0.644      130.528       39.297        0.091      345.542       23.146      858.065
09/13/2013  18:44:00     -213.743     -106.676       -6.480      122.354       72.142       55.682    14970.607     5204.464     3100.481        4.019        1.164      238.885       60.514        0.064      345.525       23.114      858.049
09/13/2013  18:45:00     -173.622     -143.981       -0.659      115.791       94.086       48.749    13407.616     8852.232     2376.512        3.775        1.232      225.555       55.050        0.060      345.535       23.130      858.058
09/13/2013  18:46:00     -148.225     -143.600        8.595       81.711       91.045       49.663     6676.626     8289.252     2466.410        3.005        0.872      206.378       49.756        0.058      345.546       23.149      858.046
09/13/2013  18:47:00     -150.556     -134.862        0.030       87.704       74.207       42.783     7691.964     5506.747     1830.414        2.794        0.751      202.126       42.237        0.044      345.562       23.180      858.033
09/13/2013  18:48:00     -182.297     -125.930       -5.258      101.678       56.590       40.435    10338.332     3202.469     1634.992        3.214        0.759      221.564       47.581        0.046      345.581       23.210      858.036
09/13/2013  18:49:00     -202.456      -58.459       -2.838       98.364       96.835       46.652     9675.418     9377.096     2176.401        3.282        1.061      210.727       49.588        0.055      345.614       23.266      858.025
09/13/2013  18:50:00     -258.480     -129.027       -7.927      101.958       73.583       44.027    10395.375     5414.481     1938.401        5.063        0.887      288.894       47.714        0.027      345.652       23.331      858.013
09/13/2013  18:51:00     -210.483     -178.307       -2.654       89.400       83.002       44.777     7992.345     6889.355     2004.978        4.649        0.844      275.856       32.711        0.014      345.679       23.377      858.012
09/13/2013  18:52:00     -184.142     -120.602        0.270      107.161       78.145       40.262    11483.422     6106.712     1621.066        3.383        0.961      220.121       29.881        0.018      345.692       23.401      858.013
09/13/2013  18:53:00     -142.418     -106.575       -1.953      104.807       77.742       45.482    10984.437     6043.831     2068.640        2.537        0.955      177.879       50.447        0.080      345.660       23.345      858.023
09/13/2013  18:54:00     -149.500      -99.495       -5.855       82.777       53.494       34.702     6852.091     2861.584     1204.214        2.160        0.546      179.582       41.976        0.055      345.658       23.343      858.016
09/13/2013  18:55:00     -131.016     -101.218       -8.914       68.913       41.370       31.056     4749.008     1711.517      964.465        1.746        0.371      165.560       29.181        0.031      345.660       23.348      858.024
09/13/2013  18:56:00     -146.745     -130.778       -8.656       86.281       72.454       48.469     7444.333     5249.532     2349.292        2.687        0.752      196.563       49.993        0.065      345.669       23.360      858.038
09/13/2013  18:57:00     -149.183     -140.974        6.839      127.824       77.425       50.694    16338.857     5994.591     2569.920        3.353        1.245      205.254       54.957        0.072      345.654       23.336      858.031
09/13/2013  18:58:00     -165.113     -141.197        6.979       91.349       79.696       50.687     8344.603     6351.440     2569.124        3.225        0.863      217.253       47.636        0.048      345.648       23.323      858.025
09/13/2013  18:59:00     -113.005      -77.251       -2.080       78.795       70.001       35.726     6208.596     4900.099     1276.326        1.556        0.619      136.886       36.643        0.072      345.630       23.297      858.027
09/13/2013  19:00:00      -74.734      -46.188        3.466       61.161       57.301       28.838     3740.707     3283.431      831.641        0.779        0.393       87.855       25.676        0.085      345.649       23.331      858.046
09/13/2013  19:01:00     -103.316      -69.700       13.029       68.383       69.935       40.321     4676.299     4890.920     1625.791        1.345        0.560      124.628       43.585        0.122      345.646       23.325      858.044
09/13/2013  19:02:00     -101.558       -2.000       -0.244       85.004       55.522       34.469     7225.664     3082.716     1188.104        1.091        0.575      101.578       31.410        0.096      345.667       23.359      858.048
09/13/2013  19:03:00      -41.034      -42.362       -4.609       49.065       44.576       24.350     2407.376     1987.042      592.918        0.424        0.249       58.978       22.055        0.140      345.686       23.393      858.047
09/13/2013  19:04:00     -119.051      -67.638       -5.446       47.795       37.384       21.612     2284.321     1397.534      467.081        1.146        0.207      136.924       15.687        0.013      345.732       23.474      858.055
09/13/2013  19:05:00     -193.204      -24.745       -7.961       84.306       60.505       42.173     7107.498     3660.835     1778.530        2.527        0.627      194.782       42.918        0.049      345.732       23.470      858.066
09/13/2013  19:06:00      -82.768      -34.876        3.020       62.062       49.321       25.966     3851.697     2432.584      674.234        0.752        0.348       89.815       25.688        0.082      345.776       23.548      858.068
09/13/2013  19:07:00      -18.867      -33.161        2.558       29.690       31.616       24.900      881.520      999.557      619.999        0.198        0.125       38.152        9.678        0.064      345.814       23.615      858.072
09/13/2013  19:08:00      -51.042     -113.581        8.543       52.476       45.871       34.531     2753.772     2104.118     1192.359        1.081        0.303      124.523       35.897        0.083      345.890       23.744      858.075
09/13/2013  19:09:00      -46.490     -121.984        4.896       44.443       30.304       25.591     1975.153      918.342      654.880        1.031        0.177      130.542       26.729        0.042      345.891       23.746      858.091
09/13/2013  19:10:00       -1.300     -161.192       17.404       34.157       64.769       24.723     1166.670     4194.960      611.215        1.613        0.299      161.197       24.693        0.023      345.925       23.802      858.097
09/13/2013  19:11:00      -14.987     -116.244       10.864       34.206       36.417       24.513     1170.039     1326.223      600.874        0.848        0.155      117.206       16.116        0.019      345.904       23.768      858.130
09/13/2013  19:12:00      -28.306      -34.088       14.632       54.847       51.450       29.151     3008.173     2647.154      849.768        0.434        0.325       44.308       27.239        0.378      345.790       23.573      858.155
09/13/2013  19:13:00       70.631      -90.127      -17.111       65.461       71.324       51.888     4285.124     5087.076     2692.373        1.273        0.603      114.506       50.147        0.192      345.656       23.341      858.165
09/13/2013  19:14:00       32.694      -75.016      -30.242       62.160       56.671       45.625     3863.855     3211.582     2081.678        0.838        0.458       81.831       41.802        0.261      345.601       23.247      858.178
09/13/2013  19:15:00       30.587      -55.576       12.605       63.135       59.549       48.494     3986.028     3546.115     2351.621        0.703        0.494       63.438       29.099        0.210      345.665       23.360      858.188
09/13/2013  19:16:00      133.310     -137.414      -10.988       78.222       73.131       60.634     6118.738     5348.095     3676.428        2.596        0.757      191.452       48.748        0.065      345.821       23.622      858.191
09/13/2013  19:17:00      136.423     -144.836      -17.319       71.772      100.382       54.268     5151.231    10076.594     2944.998        2.903        0.909      198.970       47.422        0.057      345.764       23.526      858.189
09/13/2013  19:18:00      104.542     -182.554      -17.641       84.191      104.221       53.783     7088.131    10862.045     2892.593        3.270        1.042      210.369       49.699        0.056      345.741       23.485      858.203
09/13/2013  19:19:00      171.076     -186.715      -35.438       71.924       94.848       46.311     5173.086     8996.129     2144.692        4.085        0.816      253.238       38.573        0.023      345.704       23.422      858.217
09/13/2013  19:20:00      110.759     -123.546        2.225       96.035       76.320       63.205     9222.659     5824.679     3994.894        2.329        0.952      165.926       56.707        0.117      345.675       23.372      858.239
09/13/2013  19:21:00      111.394     -182.339        3.188       63.539       65.220       43.533     4037.242     4253.681     1895.140        2.792        0.509      213.673       38.586        0.033      345.611       23.262      858.250
09/13/2013  19:22:00       38.608      -71.609       30.324       51.241       96.147       42.956     2625.683     9244.273     1845.246        1.062        0.686       81.354       52.315        0.414      345.559       23.174      858.244
09/13/2013  19:23:00       64.207      -67.927       43.818       74.921      108.622       60.720     5613.124    11798.650     3686.932        1.587        1.055       93.470       66.352        0.504      345.506       23.083      858.233
09/13/2013  19:24:00      147.247      -50.305       61.588      113.348      148.422      100.926    12847.822    22029.149    10186.050        3.653        2.253      155.603      119.303        0.588      345.609       23.258      858.214
09/13/2013  19:25:00       55.530     -109.782      -13.368       98.715       90.259       65.735     9744.663     8146.707     4321.065        1.876        1.111      123.027       48.263        0.154      345.567       23.187      858.219
09/13/2013  19:26:00       54.782     -121.833      -11.921       86.439       76.479       71.299     7471.742     5848.977     5083.580        1.819        0.920      133.582       64.602        0.234      345.633       23.301      858.222
09/13/2013  19:27:00       64.059      -96.589       -8.919       64.363       59.370       47.377     4142.653     3524.850     2244.552        1.171        0.496      115.901       46.312        0.160      345.621       23.281      858.225
09/13/2013  19:28:00       17.869      -49.041       10.826       40.328       40.766       30.114     1626.322     1661.841      906.862        0.352        0.210       52.195       27.778        0.283      345.610       23.263      858.224
09/13/2013  19:29:00       42.040      -41.136        2.369       43.719       46.796       38.173     1911.341     2189.820     1457.174        0.451        0.278       58.818       35.131        0.357      345.566       23.187      858.240
09/13/2013  19:30:00      -49.754      -75.066       11.780       98.300       61.374       37.245     9662.894     3766.757     1387.188        1.153        0.741       90.058       41.427        0.212      345.704       23.423      858.257
09/13/2013  19:31:00      -94.052      -94.448        0.563       79.457       69.401       34.722     6313.379     4816.491     1205.626        1.505        0.617      133.290       45.538        0.117      345.720       23.452      858.255
09/13/2013  19:32:00     -153.167     -131.765        1.530      109.545       74.132       48.124    12000.067     5495.609     2315.906        3.031        0.991      202.045       54.504        0.073      345.815       23.612      858.254
09/13/2013  19:33:00      -57.433      -45.765       14.855       57.453       38.902       32.483     3300.901     1513.355     1055.128        0.574        0.293       73.437       26.059        0.126      345.808       23.605      858.252
09/13/2013  19:34:00      -70.367      -23.193       -1.709       34.856       31.931       20.510     1214.938     1019.618      420.676        0.407        0.133       74.091       15.418        0.043      345.809       23.608      858.260
09/13/2013  19:35:00     -117.315      -38.064        0.092       44.880       37.048       23.554     2014.197     1372.552      554.806        0.958        0.197      123.336       26.198        0.045      345.819       23.623      858.268
09/13/2013  19:36:00      -28.943       -3.373       20.348       46.592       41.638       25.785     2170.803     1733.689      664.870        0.292        0.228       29.138       30.919        1.126      345.817       23.619      858.259
09/13/2013  19:37:00      -72.009      -22.024        6.453       52.331       34.787       26.593     2738.507     1210.101      707.187        0.518        0.233       75.302       28.928        0.148      345.832       23.647      858.266
09/13/2013  19:38:00      -84.611      -21.231       -1.037       64.430       45.476       30.740     4151.176     2068.088      944.938        0.739        0.358       87.234       20.417        0.055      345.806       23.601      858.269
09/13/2013  19:39:00     -108.024      -94.485        6.883       92.748       73.792       53.003     8602.145     5445.194     2809.331        1.875        0.843      143.515       51.164        0.127      345.831       23.641      858.289
09/13/2013  19:40:00     -157.870     -153.191        4.927      137.260       98.220       63.175    18840.236     9647.196     3991.059        4.044        1.624      219.978       67.464        0.094      345.854       23.680      858.277
09/13/2013  19:41:00     -124.926      -87.764        1.099       94.647       83.933       43.493     8958.094     7044.708     1891.628        2.060        0.895      152.673       47.034        0.095      345.807       23.600      858.282
09/13/2013  19:42:00      -84.211     -149.209        6.010      106.775       78.568       55.199    11400.907     6172.965     3046.900        2.500        1.031      171.333       52.206        0.093      345.789       23.569      858.301
09/13/2013  19:43:00     -186.754     -131.179      -10.518       77.738       76.656       39.973     6043.178     5876.150     1597.867        3.285        0.676      228.221       42.521        0.035      345.726       23.462      858.311
09/13/2013  19:44:00      -66.866      -81.029        9.073       78.460       49.703       30.674     6155.942     2470.386      940.869        1.034        0.478      105.057       31.366        0.089      345.710       23.435      858.331
09/13/2013  19:45:00      -54.654     -164.884        2.149       50.869       85.529       32.021     2587.640     7315.141     1025.333        2.055        0.546      173.706       37.184        0.046      345.692       23.401      858.332
09/13/2013  19:46:00      -40.310     -179.423       15.393       73.525       82.358       44.462     5405.973     6782.866     1976.831        2.411        0.708      183.895       36.420        0.039      345.602       23.247      858.345
09/13/2013  19:47:00     -162.851      -36.652        1.919      103.639       52.682       37.063    10740.940     2775.354     1373.684        2.138        0.744      166.924       50.638        0.092      345.588       23.223      858.363
09/13/2013  19:48:00       -7.035     -115.855       20.279       47.368       61.393       34.491     2243.705     3769.133     1189.646        1.054        0.360      116.068       34.032        0.086      345.557       23.172      858.396
09/13/2013  19:49:00      -67.744      -90.500       10.124       64.726       74.433       30.489     4189.514     5540.203      929.555        1.177        0.533      113.047       25.190        0.050      345.530       23.125      858.407
09/13/2013  19:50:00     -127.683      -53.200       -2.883       79.649       67.911       33.674     6343.941     4611.948     1133.928        1.561        0.604      138.323       42.792        0.096      345.500       23.073      858.406
09/13/2013  19:51:00      -31.367      -29.515       -2.681       55.889       29.081       17.637     3123.526      845.728      311.071        0.307        0.214       43.070       25.997        0.364      345.502       23.079      858.408
09/13/2013  19:52:00      -11.411      -48.914        2.417       23.210       20.205       20.778      538.708      408.229      431.716        0.195        0.069       50.227       11.370        0.051      345.481       23.042      858.390
09/13/2013  19:53:00      -43.949      -19.496        0.547       19.026       12.043        9.669      361.997      145.023       93.485        0.146        0.030       48.079        8.453        0.031      345.490       23.058      858.371
09/13/2013  19:54:00      -35.358        2.333       -4.648       23.371       19.951       13.402      546.212      398.028      179.626        0.120        0.056       35.434        8.602        0.059      345.479       23.040      858.366
09/13/2013  19:55:00      -17.713      -39.053       -5.778       20.971       30.030       13.744      439.775      901.806      188.884        0.170        0.077       42.883        5.876        0.019      345.473       23.029      858.369
09/13/2013  19:56:00     -134.994     -140.452      -12.080       68.219       83.632       36.979     4653.825     6994.311     1367.463        2.555        0.651      194.808       38.429        0.039      345.306       22.740      858.357
09/13/2013  19:57:00     -144.444     -102.326       -3.432       71.813       64.405       40.742     5157.177     4148.032     1659.881        2.115        0.548      177.016       41.348        0.055      345.275       22.686      858.349
09/13/2013  19:58:00      -59.709      -87.548        0.982       70.116       50.419       38.254     4916.246     2542.105     1463.380        1.007        0.446      105.971       40.216        0.144      345.290       22.712      858.352
09/13/2013  19:59:00      -58.654      -51.788       12.801       63.563       37.966       29.399     4040.255     1441.423      864.279        0.631        0.317       78.245       18.731        0.057      345.259       22.661      858.354
09/13/2013  20:00:00      -20.213      -78.630        1.395       22.923       56.388       19.911      525.444     3179.652      396.462        0.535        0.205       81.187       22.047        0.074      345.276       22.690      858.364
09/13/2013  20:01:00      -54.101      -47.748       -5.140       33.730       30.939       29.517     1137.713      957.230      871.239        0.410        0.148       72.159       18.291        0.064      345.232       22.615      858.352
09/13/2013  20:02:00      -95.787      -64.030       -1.724       38.734       24.556       20.143     1500.292      602.981      405.731        0.789        0.125      115.217       12.813        0.012      345.230       22.609      858.340
09/13/2013  20:03:00     -110.163     -119.292      -10.072       58.620       65.972       26.531     3436.361     4352.370      703.918        1.748        0.425      162.378       14.461        0.008      345.179       22.521      858.335
09/13/2013  20:04:00      -92.346      -93.366       -1.281       55.297       57.567       28.616     3057.788     3313.993      818.898        1.222        0.360      131.320       35.983        0.075      345.177       22.519      858.345
09/13/2013  20:05:00      -95.428     -109.722        6.944       54.502       70.511       33.524     2970.438     4971.862     1123.847        1.513        0.453      145.415       32.944        0.051      345.177       22.519      858.354
09/13/2013  20:06:00      -85.742     -106.119       11.022       57.105       76.093       38.252     3260.989     5790.099     1463.192        1.462        0.526      136.430       35.276        0.067      345.158       22.487      858.353
09/13/2013  20:07:00     -118.121     -114.484       -7.314       51.766       42.432       29.884     2679.745     1800.463      893.051        1.624        0.269      164.497       23.650        0.021      345.172       22.512      858.357
09/13/2013  20:08:00      -57.255      -93.414       -2.928       35.164       41.199       20.099     1236.493     1697.372      403.964        0.767        0.167      109.564       12.809        0.014      345.170       22.510      858.360
09/13/2013  20:09:00      -51.685     -101.380        3.855       36.995       45.399       22.696     1368.598     2061.044      515.110        0.845        0.197      113.795       19.973        0.031      345.169       22.506      858.363
09/13/2013  20:10:00      -61.790      -76.954       -3.113       41.540       45.105       24.297     1725.544     2034.494      590.339        0.705        0.218       98.691       19.656        0.040      345.169       22.508      858.377
09/13/2013  20:11:00      -51.469      -99.703        4.557       37.477       75.850       25.618     1404.513     5753.217      656.301        1.021        0.391      112.204       32.673        0.085      345.215       22.586      858.383
09/13/2013  20:12:00      -35.767      -36.206       -0.256       38.430       27.865       15.827     1476.831      776.435      250.492        0.255        0.125       50.894       15.907        0.098      345.218       22.591      858.389
09/13/2013  20:13:00      -33.459      -49.570        8.889       40.605       26.089       26.586     1648.787      680.645      706.796        0.335        0.152       59.805       20.213        0.114      345.195       22.553      858.393
09/13/2013  20:14:00      -52.294      -92.180       -5.920       38.268       49.742       22.877     1464.470     2474.315      523.347        0.786        0.223      105.980       16.943        0.026      345.157       22.486      858.397
09/13/2013  20:15:00      -54.815      -76.281        7.509       45.169       51.314       18.819     2040.204     2633.079      354.138        0.695        0.251       93.933       22.125        0.055      345.191       22.545      858.396
09/13/2013  20:16:00      -46.760      -70.210      -12.697       37.878       30.030       30.154     1434.750      901.782      909.292        0.526        0.162       84.356       26.936        0.102      345.170       22.509      858.393
09/13/2013  20:17:00      -25.055      -45.416       -2.316       31.159       31.742       27.332      970.908     1007.545      747.064        0.271        0.136       51.869       19.252        0.138      345.155       22.483      858.394
09/13/2013  20:18:00      -38.477      -63.789       -1.527       34.594       39.267       22.072     1196.724     1541.924      487.188        0.439        0.161       74.495       11.200        0.023      345.124       22.431      858.401
09/13/2013  20:19:00      -46.821     -110.258       -0.379       42.904       40.337       23.779     1840.770     1627.071      565.431        0.919        0.202      119.788       20.949        0.031      345.175       22.517      858.414
09/13/2013  20:20:00      -88.235      -80.881        2.790       44.313       36.665       25.876     1963.626     1344.289      669.570        0.916        0.199      119.696       25.123        0.044      345.130       22.442      858.436
09/13/2013  20:21:00      -72.519     -108.278       -5.342       30.608       37.019       19.767      936.833     1370.408      390.719        0.985        0.135      130.319       16.464        0.016      345.141       22.459      858.452
09/13/2013  20:22:00      -75.646      -51.982        3.962       58.193       36.052       19.963     3386.435     1299.725      398.540        0.676        0.254       91.785       22.106        0.058      345.138       22.453      858.460
09/13/2013  20:23:00      -44.391     -118.616       -2.927       32.146       45.366       21.222     1033.341     2058.040      450.355        0.979        0.177      126.650       17.679        0.019      345.171       22.509      858.476
09/13/2013  20:24:00      -73.117      -52.977       15.064       48.814       29.675       22.116     2382.778      880.603      489.139        0.607        0.188       90.293       23.275        0.066      345.177       22.519      858.502
09/13/2013  20:25:00      -48.547      -63.816        9.202       46.364       32.073       23.748     2149.579     1028.708      563.959        0.513        0.187       80.183       17.688        0.049      345.176       22.518      858.513
09/13/2013  20:26:00      -85.396      -50.800       10.227       58.359       43.664       31.188     3405.793     1906.530      972.697        0.813        0.314       99.364       33.222        0.112      345.145       22.465      858.513
09/13/2013  20:27:00      -83.944      -36.520        4.259       46.664       35.913       18.776     2177.575     1289.743      352.535        0.611        0.191       91.544       17.934        0.038      345.134       22.447      858.521
09/13/2013  20:28:00      -87.727      -63.753        2.115       43.356       41.678       26.551     1879.770     1737.070      704.933        0.804        0.216      108.446       27.908        0.066      345.147       22.470      858.521
09/13/2013  20:29:00      -87.865      -77.912       -4.898       55.549       51.788       32.032     3085.738     2682.008     1026.048        1.030        0.340      117.433       31.367        0.071      345.135       22.449      858.527
09/13/2013  20:30:00     -132.531     -102.603       -0.167       77.815       44.224       39.881     6055.196     1955.789     1590.493        1.884        0.480      167.606       38.285        0.052      345.126       22.432      858.531
09/13/2013  20:31:00     -145.105     -132.796       -0.875       79.332       57.377       41.719     6293.637     3292.123     1740.469        2.501        0.566      196.698       44.385        0.051      345.140       22.457      858.522
09/13/2013  20:32:00     -142.464     -100.194        1.163       67.319       41.692       30.063     4531.782     1738.221      903.803        1.875        0.359      174.169       30.995        0.032      345.126       22.431      858.513
09/13/2013  20:33:00     -141.653      -74.905        9.043       74.830       52.935       39.273     5599.457     2802.150     1542.377        1.785        0.497      160.239       37.240        0.054      345.121       22.422      858.503
09/13/2013  20:34:00     -119.104     -103.801        2.438       67.879       56.684       27.338     4607.506     3213.052      747.353        1.677        0.428      157.988       31.825        0.041      345.136       22.449      858.510
09/13/2013  20:35:00     -124.037     -111.387        3.311       78.874       54.650       38.625     6221.128     2986.632     1491.918        1.925        0.535      166.710       39.582        0.056      345.144       22.463      858.505
09/13/2013  20:36:00     -156.034      -99.705       -9.021       66.598       52.614       34.499     4435.355     2768.272     1190.162        2.138        0.420      185.170       30.597        0.027      345.122       22.426      858.516
09/13/2013  20:37:00     -108.363      -72.773        1.956       56.910       54.300       33.867     3238.701     2948.534     1146.980        1.219        0.367      130.531       37.656        0.083      345.116       22.417      858.538
09/13/2013  20:38:00      -60.221      -73.825        3.383       57.282       53.929       28.532     3281.176     2908.294      814.090        0.804        0.350       95.271       29.226        0.094      345.128       22.437      858.551
09/13/2013  20:39:00      -42.989      -58.532        7.943       48.735       33.586       21.427     2375.142     1128.014      459.119        0.465        0.198       72.623       23.103        0.101      345.118       22.422      858.579
09/13/2013  20:40:00      -70.589      -22.534       -5.757       29.513       45.019       18.466      871.037     2026.732      340.987        0.438        0.162       74.098       14.105        0.036      345.114       22.412      858.603
09/13/2013  20:41:00     -107.169        1.266       -7.619       38.535       40.175       17.373     1484.914     1614.061      301.819        0.747        0.170      107.176       13.868        0.017      345.030       22.272      858.622
09/13/2013  20:42:00     -104.723      -41.121        5.911       48.967       34.526       23.652     2397.805     1192.049      559.437        0.842        0.207      112.507       22.576        0.040      344.991       22.201      858.637
09/13/2013  20:43:00      -95.118      -15.047        2.558       42.604       34.373       17.840     1815.071     1181.478      318.267        0.630        0.166       96.301       20.685        0.046      344.991       22.205      858.655
09/13/2013  20:44:00     -152.369      -39.446       -6.448       51.983       34.115       30.747     2702.190     1163.858      945.353        1.481        0.241      157.392       33.455        0.045      344.939       22.115      858.676
09/13/2013  20:45:00      -93.526      -24.546       -6.622       40.004       31.906       21.275     1600.293     1017.971      452.617        0.623        0.154       96.694       13.931        0.021      344.904       22.053      858.692
09/13/2013  20:46:00      -82.518      -18.519       -5.026       37.345       28.398       23.127     1394.662      806.447      534.874        0.496        0.137       84.570       21.314        0.064      344.874       22.002      858.689
09/13/2013  20:47:00      -65.664      -17.182        2.851       37.017       27.338       20.151     1370.241      747.349      406.073        0.357        0.126       67.875       20.857        0.094      344.862       21.983      858.684
09/13/2013  20:48:00     -108.685      -21.254        3.091       51.811       46.111       21.590     2684.361     2126.210      466.134        0.877        0.264      110.744       23.784        0.046      344.940       22.114      858.681
09/13/2013  20:49:00      -80.569      -40.084        2.116       33.613       27.000       20.029     1129.800      728.982      401.160        0.518        0.113       89.990       15.092        0.028      344.965       22.160      858.676
09/13/2013  20:50:00      -66.415      -18.868        3.125       32.162       27.341       17.160     1034.380      747.533      294.461        0.343        0.104       69.043       10.065        0.021      344.927       22.095      858.683
09/13/2013  20:51:00      -43.908      -24.422       -3.401       20.473       20.468        9.640      419.162      418.925       92.923        0.173        0.047       50.242        7.467        0.022      344.964       22.159      858.675
09/13/2013  20:52:00      -59.263      -43.081       -5.245       40.181       23.759       17.161     1614.481      564.492      294.514        0.393        0.124       73.267       16.284        0.049      345.038       22.285      858.662
09/13/2013  20:53:00      -31.396      -45.857        6.996       14.555       17.639       12.401      211.843      311.145      153.789        0.191        0.034       55.575        8.474        0.023      345.024       22.259      858.656
09/13/2013  20:54:00      -30.784      -45.702        2.668       21.601       21.992       10.913      466.588      483.630      119.097        0.206        0.053       55.103        7.479        0.018      344.997       22.213      858.665
09/13/2013  20:55:00      -19.571      -11.648        7.132       18.672       14.403       12.759      348.652      207.444      162.802        0.064        0.036       22.774       11.891        0.273      344.999       22.216      858.673
09/13/2013  20:56:00      -53.306      -26.451       -4.274       18.379       20.784       13.319      337.788      431.957      177.407        0.225        0.047       59.508        7.692        0.017      345.020       22.252      858.676
09/13/2013  20:57:00      -67.436      -43.380       -6.609       14.601       19.020        9.086      213.196      361.765       82.559        0.357        0.033       80.183        7.847        0.010      345.066       22.330      858.687
09/13/2013  20:58:00      -50.277      -35.319       -4.425       10.008        7.723        6.119      100.152       59.646       37.439        0.200        0.010       61.443        2.355        0.001      345.111       22.409      858.684
09/13/2013  20:59:00      -52.243      -31.135       -4.382       18.716       16.405       11.833      350.283      269.117      140.016        0.224        0.038       60.817        8.055        0.018      345.179       22.526      858.690
09/13/2013  21:00:00       -2.014      -17.166        3.904       10.912       16.861       13.222      119.065      284.306      174.823        0.045        0.029       17.284        3.407        0.039      345.083       22.362      858.685
09/13/2013  21:01:00      -40.953      -82.508       -3.075       22.214       17.139       15.582      493.460      293.731      242.786        0.476        0.051       92.112       13.974        0.023      345.086       22.366      858.679
09/13/2013  21:02:00      -22.690      -63.909       -4.507       21.051       22.467       13.495      443.160      504.778      182.117        0.287        0.057       67.817        6.662        0.010      345.128       22.436      858.662
09/13/2013  21:03:00      -17.672      -15.550        3.453       18.292       14.148       10.032      334.609      200.165      100.638        0.060        0.032       23.540       10.759        0.209      345.187       22.539      858.649
09/13/2013  21:04:00      -17.046      -14.233        1.184       10.559        9.035        6.035      111.489       81.632       36.426        0.036        0.011       22.207        6.212        0.078      345.200       22.558      858.645
09/13/2013  21:05:00      -40.927       -3.972       -1.091       14.661        7.799        7.590      214.957       60.829       57.601        0.101        0.017       41.120        3.309        0.006      345.122       22.430      858.655
09/13/2013  21:06:00       -4.152       -1.506        9.727       20.745       12.069       10.052      430.371      145.652      101.041        0.040        0.034        4.416       13.165        8.886      345.018       22.248      858.657
09/13/2013  21:07:00       22.076        6.146        7.090       15.820       14.621       15.463      250.257      213.782      239.104        0.064        0.035       22.915       12.067        0.277      344.985       22.195      858.659
09/13/2013  21:08:00       10.417      -12.557        4.960       18.917       28.763       11.376      357.859      827.310      129.420        0.080        0.066       16.316       10.004        0.376      344.939       22.114      858.661
09/13/2013  21:09:00        6.210      -14.307        0.812       25.813       15.866       16.848      666.325      251.715      283.846        0.072        0.060       15.596       14.366        0.849      344.781       21.844      858.674
09/13/2013  21:10:00       -3.306      -12.046       -1.768       25.840       22.572       21.256      667.683      509.502      451.818        0.089        0.081       12.491        7.892        0.399      344.788       21.855      858.674
09/13/2013  21:11:00        3.372        4.680       12.192        7.524       13.154       10.582       56.615      173.027      111.982        0.026        0.017        5.768        3.307        0.329      344.824       21.915      858.681
09/13/2013  21:12:00       -8.991      -36.822       -3.592       13.809       17.352       12.847      190.701      301.109      165.036        0.105        0.033       37.904        8.327        0.048      344.790       21.857      858.690
09/13/2013  21:13:00       25.331      -21.217       11.265       13.913       17.351       15.937      193.581      301.061      253.997        0.098        0.037       33.042       12.323        0.139      344.800       21.875      858.686
09/13/2013  21:14:00       39.637      -23.444        1.739       23.243       19.419       21.400      540.239      377.099      457.944        0.175        0.069       46.051       17.392        0.143      344.753       21.796      858.673
09/13/2013  21:15:00        7.748      -20.050        0.320       14.048       21.963       13.967      197.354      482.371      195.063        0.067        0.044       21.495        9.465        0.194      344.858       21.975      858.659
09/13/2013  21:16:00        2.903       -7.349       20.412       15.490       27.753       12.073      239.954      770.256      145.759        0.082        0.058        7.902       10.652        1.817      344.808       21.890      858.646
09/13/2013  21:17:00      -13.618       -8.096       -1.459       14.279       11.895        9.808      203.903      141.485       96.187        0.035        0.022       15.843        9.724        0.377      344.799       21.875      858.644
09/13/2013  21:18:00        1.204      -14.877       -3.727       11.566        9.258        8.791      133.775       85.706       77.278        0.027        0.015       14.926        5.759        0.149      344.840       21.945      858.640
09/13/2013  21:19:00       23.887      -16.760       14.207       11.482       10.621       10.027      131.834      112.804      100.550        0.070        0.017       29.180        7.468        0.065      344.656       21.630      858.631
09/13/2013  21:20:00       10.458        3.306       18.912       13.880        9.915        7.455      192.661       98.308       55.581        0.041        0.017       10.968        2.560        0.054      344.521       21.399      858.618
09/13/2013  21:21:00       31.996       -7.983        9.343       25.365       14.565       14.764      643.369      212.141      217.972        0.112        0.054       32.977       14.836        0.202      344.572       21.485      858.613
09/13/2013  21:22:00       11.101       -5.379        5.404       14.004        8.360       14.483      196.112       69.881      209.754        0.033        0.024       12.335        6.256        0.257      344.557       21.461      858.611
09/13/2013  21:23:00      -16.101        2.840       -6.722       10.382        6.036        7.405      107.786       36.431       54.837        0.026        0.010       16.349        6.553        0.161      344.923       22.087      858.617
09/13/2013  21:24:00      -14.879        1.744       -3.634        6.258        3.295        3.575       39.163       10.857       12.777        0.015        0.003       14.981        3.215        0.046      345.133       22.446      858.617
09/13/2013  21:25:00      -34.997      -12.208       -7.518        8.330       10.246        5.538       69.381      104.988       30.667        0.082        0.010       37.065        5.778        0.024      345.080       22.354      858.625
09/13/2013  21:26:00      -24.847      -25.998       -5.791       16.687       10.298        7.298      278.451      106.044       53.257        0.088        0.022       35.963        4.944        0.019      344.907       22.058      858.623
09/13/2013  21:27:00      -28.257      -56.940       -0.464       20.969       24.053       17.594      439.698      578.531      309.553        0.268        0.066       63.566       16.536        0.068      344.812       21.897      858.620
09/13/2013  21:28:00      -52.378      -65.133       -1.716       25.793       28.320       16.417      665.303      802.042      269.530        0.436        0.087       83.581       17.417        0.043      344.914       22.071      858.628
09/13/2013  21:29:00      -32.818      -41.143        4.225       23.407       21.266       17.827      547.865      452.230      317.813        0.205        0.066       52.629       11.216        0.045      344.702       21.709      858.638
09/13/2013  21:30:00      -59.020      -84.443       -2.179       18.132       19.026       12.929      328.773      361.989      167.155        0.574        0.043      103.024        9.344        0.008      344.845       21.953      858.639
09/13/2013  21:31:00      -46.620      -76.790        0.396       28.119       35.909       17.105      790.698     1289.465      292.569        0.522        0.119       89.834       14.940        0.028      344.879       22.010      858.651
09/13/2013  21:32:00      -76.755     -141.919       -5.026       31.943       43.834       22.349     1020.333     1921.423      499.469        1.475        0.172      161.346       13.348        0.007      344.936       22.109      858.663
09/13/2013  21:33:00      -91.048      -73.919       -0.789       31.574       40.265       23.075      996.887     1621.244      532.476        0.845        0.158      117.277       18.827        0.026      344.828       21.925      858.687
09/13/2013  21:34:00      -50.309      -50.938        5.999       40.131       28.488       24.903     1610.536      811.584      620.167        0.410        0.152       71.594       26.495        0.137      344.767       21.818      858.714
09/13/2013  21:35:00      -60.561      -81.710       -2.806       31.939       39.468       18.871     1020.071     1557.762      356.126        0.664        0.147      101.706       14.371        0.020      344.787       21.854      858.744
09/13/2013  21:36:00      -47.723     -100.303        2.834       32.719       31.146       24.783     1070.544      970.099      614.208        0.750        0.133      111.078       20.080        0.033      344.735       21.764      858.756
09/13/2013  21:37:00      -62.057      -62.357        1.350       35.164       43.217       17.780     1236.504     1867.715      316.114        0.558        0.171       87.974       19.504        0.049      344.655       21.626      858.757
09/13/2013  21:38:00      -40.907      -25.434        7.518       37.583       31.319       15.720     1412.458      980.894      247.118        0.251        0.132       48.169       14.147        0.086      344.619       21.567      858.763
09/13/2013  21:39:00      -36.789      -15.846       -0.026       23.218       20.872       12.342      539.065      435.639      152.314        0.137        0.056       40.057       13.277        0.110      344.621       21.571      858.769
09/13/2013  21:40:00       -0.972        1.414        8.176       22.827       10.334       14.508      521.060      106.784      210.483        0.045        0.042        1.716       12.156       50.196      344.559       21.464      858.789
09/13/2013  21:41:00       16.963       17.295       -0.710       16.619       10.547        6.254      276.196      111.236       39.115        0.051        0.021       24.225        5.976        0.061      344.608       21.551      858.802
09/13/2013  21:42:00        0.464        2.014       -1.797        7.074        5.201        4.558       50.038       27.055       20.772        0.005        0.005        2.067        4.016        3.777      344.568       21.481      858.817
09/13/2013  21:43:00       -6.446       -5.832        9.053       18.413       35.194        9.434      339.041     1238.583       88.992        0.091        0.083        8.693       14.514        2.787      344.577       21.495      858.824
09/13/2013  21:44:00        2.656      -13.744       16.586       62.393       68.803       25.549     3892.922     4733.875      652.734        0.487        0.464       13.998       34.344        6.019      344.518       21.394      858.822
09/13/2013  21:45:00       22.726       14.121       22.294       19.797       13.425       17.789      391.920      180.243      316.450        0.105        0.044       26.756        9.666        0.131      344.467       21.307      858.825
09/13/2013  21:46:00      -11.836      -17.161       12.854       16.275       40.521       12.766      264.871     1641.916      162.963        0.133        0.103       20.847       16.690        0.641      344.482       21.333      858.838
09/13/2013  21:47:00      -20.703      -13.571       -1.322       19.028       13.370       13.188      362.061      178.757      173.936        0.066        0.036       24.754        8.574        0.120      344.490       21.347      858.841
09/13/2013  21:48:00      -26.895      -38.942        0.816       33.306       25.533       18.832     1109.269      651.939      354.631        0.218        0.106       47.327       14.489        0.094      344.416       21.219      858.844
09/13/2013  21:49:00      -76.015     -125.304       -6.436       53.920       67.351       23.496     2907.338     4536.138      552.082        1.476        0.400      146.559       21.760        0.022      344.456       21.288      858.832
09/13/2013  21:50:00      -85.730      -59.971       -1.848       41.430       27.938       22.235     1716.421      780.543      494.407        0.697        0.150      104.623       14.547        0.019      344.502       21.368      858.825
09/13/2013  21:51:00      -65.537      -59.233        5.735       62.594       45.322       32.700     3918.005     2054.085     1069.307        0.744        0.352       88.338       39.296        0.198      344.446       21.269      858.828
09/13/2013  21:52:00      -87.012     -102.163        5.706       84.066       51.986       44.922     7067.170     2702.515     2017.944        1.491        0.589      134.195       47.977        0.128      344.442       21.263      858.825
09/13/2013  21:53:00     -136.173     -135.813       -1.204       67.316       70.340       38.236     4531.471     4947.729     1461.990        2.396        0.547      192.324       36.344        0.036      344.451       21.277      858.821
09/13/2013  21:54:00     -100.865     -125.731      -12.312       56.903       60.271       38.169     3237.979     3632.638     1456.853        1.723        0.416      161.190       32.560        0.041      344.451       21.277      858.814
09/13/2013  21:55:00      -95.274     -107.784       -3.624       54.594       42.924       33.280     2980.493     1842.496     1107.569        1.332        0.297      143.856       23.069        0.026      344.416       21.218      858.806
09/13/2013  21:56:00      -95.201     -109.803       -6.937       65.370       46.181       28.247     4273.271     2132.727      797.905        1.418        0.360      145.326       21.677        0.022      344.422       21.228      858.811
09/13/2013  21:57:00      -94.765     -111.621       -8.313       36.701       50.448       22.258     1346.946     2544.954      495.409        1.295        0.219      146.423       21.629        0.022      344.437       21.255      858.800
09/13/2013  21:58:00     -127.075      -68.140        3.778       66.118       32.933       27.278     4371.560     1084.562      744.079        1.350        0.310      144.191       21.498        0.022      344.374       21.147      858.794
09/13/2013  21:59:00      -45.857      -62.911        9.030       36.560       40.547       26.917     1336.604     1644.089      724.519        0.492        0.185       77.850       17.712        0.052      344.369       21.137      858.784
09/13/2013  22:00:00      -96.395      -40.100       -4.890       49.594       37.818       27.802     2459.584     1430.185      772.942        0.779        0.233      104.403       20.753        0.040      344.382       21.159      858.783
09/13/2013  22:01:00     -101.223      -76.577        0.636       44.283       39.926       15.800     1961.023     1594.053      249.649        0.996        0.190      126.925        8.787        0.005      344.322       21.058      858.793
09/13/2013  22:02:00     -121.652     -102.997       -3.946       68.792       64.138       37.261     4732.352     4113.723     1388.377        1.783        0.512      159.397       40.882        0.066      344.289       20.999      858.797
09/13/2013  22:03:00      -93.845     -100.491      -12.977       33.574       43.748       20.901     1127.247     1913.878      436.833        1.128        0.174      137.496       19.521        0.020      344.292       21.007      858.800
09/13/2013  22:04:00      -92.767      -74.111       -2.659       48.957       49.896       26.190     2396.772     2489.652      685.907        0.984        0.279      118.735       28.975        0.060      344.230       20.902      858.795
09/13/2013  22:05:00      -74.165      -31.966        8.264       56.244       38.936       23.112     3163.403     1516.024      534.176        0.590        0.261       80.761       21.377        0.070      344.191       20.834      858.807
09/13/2013  22:06:00      -91.587      -43.736       -2.505       49.436       30.767       24.429     2443.914      946.631      596.773        0.715        0.199      101.494       23.677        0.054      344.163       20.786      858.814
09/13/2013  22:07:00      -62.977      -19.342        1.660       38.838       31.080       19.096     1508.396      965.969      364.675        0.359        0.142       65.880       17.406        0.070      344.081       20.646      858.816
09/13/2013  22:08:00      -37.209      -29.900        1.268       29.743       22.321       14.102      884.653      498.227      198.865        0.193        0.079       47.734       11.223        0.055      344.021       20.545      858.819
09/13/2013  22:09:00      -78.344      -29.475       -1.818       58.649       27.076       19.171     3439.744      733.110      367.515        0.577        0.227       83.705       22.330        0.071      343.981       20.476      858.827
09/13/2013  22:10:00      -64.623      -31.506        0.645       31.054       39.873       17.412      964.350     1589.817      303.169        0.401        0.143       71.894       14.521        0.041      344.028       20.556      858.832
09/13/2013  22:11:00      -47.155      -54.256        5.676       51.576       31.332       25.791     2660.102      981.705      665.187        0.475        0.215       71.884       26.725        0.138      343.989       20.491      858.834
09/13/2013  22:12:00     -107.740       -8.502       -5.454       42.243       26.501       18.897     1784.452      702.325      357.113        0.728        0.142      108.075       16.157        0.022      343.893       20.326      858.830
09/13/2013  22:13:00      -75.357       14.900        0.550       41.741       30.812       18.866     1742.288      949.410      355.941        0.447        0.152       76.816       19.373        0.064      343.902       20.341      858.826
09/13/2013  22:14:00     -114.238       -8.731      -11.105       26.642       35.584       18.733      709.784     1266.227      350.932        0.779        0.116      114.571       15.046        0.017      343.888       20.318      858.823
09/13/2013  22:15:00      -59.389       -7.969       -1.424       39.645       36.087       19.284     1571.714     1302.236      371.854        0.342        0.162       59.921       16.459        0.075      343.814       20.191      858.827
09/13/2013  22:16:00      -72.683      -16.347       -1.122       22.374       24.600       18.323      500.614      605.162      335.718        0.350        0.072       74.499       15.683        0.044      343.877       20.298      858.829
09/13/2013  22:17:00      -88.181       -9.005       -5.579       19.201       20.320       12.473      368.662      412.896      155.584        0.441        0.047       88.639        8.917        0.010      343.885       20.311      858.822
09/13/2013  22:18:00      -94.582      -37.425       -1.091       37.052       27.395       17.756     1372.863      750.463      315.262        0.639        0.122      101.718       16.968        0.028      343.821       20.203      858.813
09/13/2013  22:19:00      -80.090      -42.136        0.416       48.309       23.449       16.840     2333.737      549.832      283.584        0.568        0.158       90.498       20.517        0.051      343.818       20.196      858.819
09/13/2013  22:20:00      -95.282      -38.865       -2.343       16.513       19.531       15.452      272.668      381.461      238.766        0.574        0.045      102.904       11.250        0.012      343.818       20.199      858.807
09/13/2013  22:21:00      -42.331      -26.230        8.219       32.030       19.688       15.914     1025.953      387.635      253.257        0.211        0.083       49.799       16.748        0.113      343.789       20.149      858.787
09/13/2013  22:22:00      -81.249      -49.257       -2.414       20.356       19.982       14.218      414.369      399.265      202.150        0.502        0.051       95.014       12.193        0.016      343.787       20.143      858.777
09/13/2013  22:23:00      -89.218      -48.488       -1.490       22.032       12.798       13.807      485.419      163.786      190.632        0.558        0.042      101.543       11.853        0.014      343.803       20.170      858.777
09/13/2013  22:24:00      -52.586      -32.690        7.197       32.975       20.054       17.903     1087.338      402.152      320.509        0.285        0.090       61.918       12.967        0.044      343.758       20.095      858.763
09/13/2013  22:25:00      -92.840      -37.235       -5.945       39.559       27.916       15.598     1564.881      779.277      243.300        0.631        0.129      100.029       14.241        0.020      343.773       20.120      858.750
09/13/2013  22:26:00      -88.951      -35.914        2.599       29.384       21.877       15.772      863.438      478.604      248.769        0.540        0.080       95.927       11.781        0.015      343.750       20.082      858.748
09/13/2013  22:27:00      -90.663      -54.373        3.765       39.617       23.982       20.668     1569.543      575.158      427.166        0.688        0.129      105.718       20.665        0.038      343.747       20.079      858.750
09/13/2013  22:28:00     -123.887      -59.681       -0.715       26.879       23.880       14.733      722.465      570.239      217.062        1.021        0.075      137.513       12.255        0.008      343.774       20.125      858.739
09/13/2013  22:29:00     -108.318      -63.802        0.722       30.276       29.815       19.317      916.651      888.926      373.161        0.899        0.109      125.712       15.932        0.016      343.716       20.023      858.731
09/13/2013  22:30:00     -133.923      -64.596       -4.638       32.598       25.937       25.286     1062.603      672.706      639.367        1.225        0.119      148.688       15.702        0.011      343.685       19.970      858.730
09/13/2013  22:31:00     -134.446      -35.098       -6.501       42.501       32.540       23.197     1806.338     1058.848      538.095        1.138        0.170      138.951       18.611        0.018      343.549       19.740      858.740
09/13/2013  22:32:00     -171.440      -11.614      -16.250       28.342       26.900       21.770      803.279      723.620      473.915        1.590        0.100      171.833       14.588        0.007      343.381       19.453      858.735
09/13/2013  22:33:00     -159.054      -47.217       -6.928       41.117       34.047       25.130     1690.606     1159.228      631.498        1.553        0.174      165.915       25.129        0.023      343.318       19.344      858.727
09/13/2013  22:34:00     -135.507      -27.776       -7.714       31.605       44.742       20.617      998.886     2001.845      425.076        1.131        0.171      138.325       13.220        0.009      343.298       19.310      858.728
09/13/2013  22:35:00     -113.313      -31.970       -9.291       29.506       34.748       18.685      870.578     1207.404      349.145        0.819        0.121      117.736       11.117        0.009      343.291       19.298      858.739
09/13/2013  22:36:00     -108.397       -3.661       -2.407       54.435       39.507       25.209     2963.143     1560.811      635.485        0.846        0.258      108.458       25.402        0.055      343.278       19.276      858.730
09/13/2013  22:37:00     -129.008       -2.174      -11.984       33.945       43.687       20.231     1152.246     1908.586      409.306        1.013        0.174      129.026       15.343        0.014      343.266       19.256      858.712
09/13/2013  22:38:00     -131.793       -7.782       -9.450       28.046       26.698       12.128      786.557      712.797      147.098        0.958        0.082      132.023       12.606        0.009      343.293       19.301      858.707
09/13/2013  22:39:00     -132.735      -36.134      -16.814       19.126       28.267       14.070      365.791      799.004      197.975        1.028        0.068      137.565       13.035        0.009      343.253       19.235      858.718
09/13/2013  22:40:00     -126.187       -8.581      -10.184       27.743       18.676       18.885      769.679      348.810      356.625        0.879        0.074      126.478       16.489        0.017      343.257       19.241      858.725
09/13/2013  22:41:00      -96.376       -1.106       -5.462       31.640       25.707       16.770     1001.071      660.870      281.230        0.563        0.097       96.382       15.774        0.027      343.236       19.205      858.746
09/13/2013  22:42:00     -121.266      -10.666      -12.093       18.700       23.567       13.903      349.680      555.380      193.280        0.803        0.055      121.734       11.176        0.008      343.272       19.267      858.761
09/13/2013  22:43:00     -126.299      -16.252       -9.296       31.799       30.365       18.338     1011.150      922.028      336.299        0.929        0.113      127.340       17.884        0.020      343.262       19.251      858.762
09/13/2013  22:44:00     -133.404       13.501       -9.769       27.640       21.586       14.678      763.955      465.950      215.458        0.976        0.072      134.085       12.794        0.009      343.220       19.179      858.757
09/13/2013  22:45:00     -163.582      -10.715      -18.927       20.247       24.465       13.487      409.944      598.524      181.897        1.421        0.060      163.932       10.671        0.004      343.288       19.293      858.760
09/13/2013  22:46:00     -184.852       32.397      -16.459       40.592       27.736       16.463     1647.671      769.262      271.014        1.909        0.134      187.670       17.800        0.009      343.434       19.542      858.761
09/13/2013  22:47:00     -118.546       25.294      -11.257       60.304       23.002       19.490     3636.598      529.070      379.871        0.968        0.227      121.215       23.581        0.038      343.360       19.416      858.759
09/13/2013  22:48:00     -125.042      -14.666      -11.488       39.337       20.327       17.389     1547.438      413.183      302.384        0.912        0.113      125.899       18.385        0.021      343.375       19.441      858.772
09/13/2013  22:49:00     -105.351        2.481       -7.716       28.271       23.461       17.367      799.267      550.404      301.619        0.641        0.083      105.380       14.438        0.019      343.344       19.389      858.768
09/13/2013  22:50:00      -85.389      -24.066      -12.077       30.764       20.236       13.863      946.400      409.490      192.189        0.478        0.077       88.716       13.674        0.024      343.382       19.452      858.777
09/13/2013  22:51:00      -72.183      -28.709        1.307       25.510       26.252       16.595      650.735      689.154      275.399        0.383        0.081       77.682       14.418        0.034      343.359       19.415      858.793
09/13/2013  22:52:00      -27.613      -42.410       -3.439       35.445       20.393       13.882     1256.315      415.875      192.702        0.222        0.093       50.607       17.899        0.125      343.513       19.679      858.799
09/13/2013  22:53:00      -24.683       -8.892        6.066       32.162       23.573       16.243     1034.416      555.675      263.850        0.129        0.093       26.236       11.760        0.201      343.487       19.635      858.820
09/13/2013  22:54:00      -13.823      -22.062        6.677       26.574       27.923       18.593      706.201      779.671      345.698        0.128        0.092       26.035       16.730        0.413      343.483       19.627      858.828
09/13/2013  22:55:00      -74.940      -37.589        0.900       48.775       33.188       24.758     2378.961     1101.425      612.982        0.556        0.205       83.839       27.776        0.110      343.460       19.586      858.812
09/13/2013  22:56:00      -65.731      -28.349       -1.204       25.623       28.644       15.602      656.557      820.463      243.409        0.342        0.086       71.584       14.095        0.039      343.467       19.600      858.806
09/13/2013  22:57:00      -88.717      -31.788       -5.046       24.191       20.034       12.542      585.196      401.356      157.293        0.503        0.057       94.240       13.207        0.020      343.453       19.575      858.810
09/13/2013  22:58:00      -83.101      -39.361       -3.068       28.433       18.400       14.160      808.427      338.569      200.496        0.491        0.067       91.952       14.900        0.026      343.464       19.593      858.812
09/13/2013  22:59:00       -6.981      -20.540       -1.388       30.487       15.843       12.610      929.432      251.008      159.002        0.091        0.067       21.694        5.584        0.066      343.477       19.614      858.815
09/13/2013  23:00:00      -54.492      -16.165       -3.150        8.927       13.236        8.475       79.686      175.179       71.826        0.178        0.016       56.839        2.656        0.002      343.506       19.665      858.819
09/13/2013  23:01:00      -59.338       -9.294      -10.405       13.483       12.537       10.384      181.787      157.171      107.837        0.208        0.022       60.061        8.311        0.019      343.501       19.658      858.816
09/13/2013  23:02:00      -58.655       -1.133        7.712       12.499       11.893       10.638      156.223      141.432      113.161        0.196        0.021       58.665        7.948        0.018      343.476       19.616      858.806
09/13/2013  23:03:00      -45.625      -31.558       -6.342       22.953       13.506       11.600      526.823      182.412      134.557        0.198        0.042       55.475       12.348        0.050      343.474       19.610      858.793
09/13/2013  23:04:00      -82.113       -2.391      -11.303       12.467       12.188        7.609      155.429      148.547       57.902        0.362        0.018       82.148        4.404        0.003      343.426       19.528      858.797
09/13/2013  23:05:00      -91.615       14.721       -6.805       20.070       14.047       10.057      402.795      197.309      101.136        0.468        0.035       92.790        8.725        0.009      343.351       19.401      858.803
09/13/2013  23:06:00     -107.106       14.047      -12.427       19.538       14.805       11.351      381.731      219.200      128.855        0.628        0.036      108.023        8.148        0.006      343.315       19.339      858.801
09/13/2013  23:07:00     -103.451       15.164      -10.369       20.484       16.178       11.358      419.583      261.718      129.015        0.592        0.041      104.556        4.742        0.002      343.321       19.349      858.801
09/13/2013  23:08:00      -56.133      -19.030        0.668       24.352       20.563       13.021      593.005      422.857      169.534        0.235        0.059       59.271        9.722        0.027      343.242       19.216      858.805
09/13/2013  23:09:00      -76.302      -18.219       -6.392       29.639       20.819       14.084      878.460      433.419      198.368        0.385        0.076       78.447       11.788        0.023      343.263       19.250      858.813
09/13/2013  23:10:00      -85.359      -18.461       -1.268       24.787       19.571       12.168      614.371      383.042      148.069        0.439        0.057       87.333        9.905        0.013      343.316       19.342      858.812
09/13/2013  23:11:00      -81.670      -48.292       -0.431       17.631       16.955        9.426      310.861      287.468       88.858        0.484        0.034       94.880        8.346        0.008      343.339       19.382      858.801
09/13/2013  23:12:00      -70.517      -45.577        2.986       27.795       26.210       15.622      772.535      686.968      244.033        0.438        0.085       83.964       14.023        0.028      343.411       19.503      858.790
09/13/2013  23:13:00      -68.957      -38.048        1.430       33.496       24.238       20.475     1121.951      587.465      419.246        0.417        0.106       78.757       16.371        0.043      343.389       19.465      858.778
09/13/2013  23:14:00      -81.260      -29.381        0.517       48.725       25.113       14.680     2374.173      630.646      215.495        0.534        0.161       86.408       12.169        0.020      343.402       19.490      858.766
09/13/2013  23:15:00      -30.428      -26.307       11.799       36.461       18.882       16.794     1329.384      356.519      282.036        0.186        0.098       40.224       16.671        0.172      343.375       19.443      858.742
09/13/2013  23:16:00      -45.399      -40.677       10.893       52.414       25.261       18.099     2747.278      638.125      327.556        0.377        0.186       60.956       21.571        0.125      343.496       19.648      858.716
09/13/2013  23:17:00      -65.135      -76.950        3.900       58.583       46.197       24.497     3431.976     2134.185      600.101        0.817        0.308      100.816       32.315        0.103      343.519       19.687      858.699
09/13/2013  23:18:00     -112.502     -120.941       -5.178       42.648       46.626       26.155     1818.866     2173.966      684.061        1.599        0.234      165.177       22.058        0.018      343.463       19.592      858.687
09/13/2013  23:19:00     -109.235      -91.786       -3.905       41.203       31.919       23.219     1697.691     1018.816      539.141        1.181        0.163      142.678       21.955        0.024      343.403       19.486      858.685
09/13/2013  23:20:00     -106.061      -68.060        0.646       62.254       47.281       26.699     3875.528     2235.517      712.861        1.135        0.341      126.020       30.850        0.060      343.359       19.412      858.689
09/13/2013  23:21:00      -91.260      -81.969        2.299       40.431       59.468       25.053     1634.625     3536.390      627.653        1.042        0.290      122.668       27.230        0.049      343.342       19.385      858.688
09/13/2013  23:22:00     -111.512      -89.065       -5.165       32.315       29.416       20.179     1044.264      865.287      407.176        1.136        0.116      142.715       20.615        0.021      343.444       19.560      858.679
09/13/2013  23:23:00      -69.041      -38.851        4.514       25.610       30.059       19.431      655.874      903.518      377.567        0.412        0.097       79.221       15.851        0.040      343.344       19.389      858.674
09/13/2013  23:24:00      -66.838      -62.834        1.617       40.879       30.551       19.660     1671.112      933.365      386.526        0.570        0.150       91.736       19.674        0.046      343.427       19.531      858.671
09/13/2013  23:25:00      -62.713     -101.113       -1.544       35.591       51.230       23.061     1266.751     2624.563      531.797        0.929        0.221      118.982       25.826        0.047      343.501       19.657      858.676
09/13/2013  23:26:00      -48.438      -73.982       -3.291       27.428       39.361       16.950      752.316     1549.315      287.295        0.521        0.129       88.428       16.493        0.035      343.470       19.605      858.687
09/13/2013  23:27:00       -3.266      -12.044       13.661       20.880       17.420       10.334      435.990      303.464      106.790        0.059        0.042       12.479        8.107        0.422      343.414       19.511      858.684
09/13/2013  23:28:00        7.520        7.919       13.973       11.768        5.489        8.148      138.497       30.130       66.383        0.027        0.012       10.920        6.710        0.378      343.273       19.271      858.668
09/13/2013  23:29:00       35.074       13.328       -1.103        9.338        6.561        9.599       87.191       43.045       92.144        0.082        0.011       37.520        3.379        0.008      343.379       19.448      858.668
09/13/2013  23:30:00       23.740       29.549       -3.230       11.077        9.432        8.812      122.695       88.955       77.656        0.087        0.014       37.904        6.880        0.033      343.369       19.434      858.670
09/13/2013  23:31:00       22.785       50.270       -5.699       14.191       20.327       16.112      201.392      413.190      259.583        0.198        0.044       55.192       14.189        0.066      343.126       19.021      858.662
09/13/2013  23:32:00       22.881       28.622       -5.496       19.520       24.924        9.988      381.036      621.214       99.758        0.124        0.055       36.643        8.715        0.057      342.964       18.742      858.661
09/13/2013  23:33:00       13.155        9.738       -2.220       15.142       15.353       11.902      229.285      235.704      141.667        0.044        0.030       16.366        9.487        0.336      342.929       18.684      858.667
09/13/2013  23:34:00        7.941       24.370       -4.883        9.491       11.273        7.410       90.084      127.071       54.903        0.048        0.014       25.631        6.974        0.074      343.027       18.850      858.676
09/13/2013  23:35:00      -14.768       22.431       -6.027        9.121       10.412        5.069       83.201      108.406       25.695        0.049        0.011       26.856        5.450        0.041      343.251       19.229      858.685
09/13/2013  23:36:00      -34.381       -5.342       -4.929        6.312        9.932        7.413       39.839       98.648       54.954        0.071        0.010       34.793        6.011        0.030      343.111       18.993      858.681
09/13/2013  23:37:00      -46.338        4.313       -7.453        9.515        4.684        6.167       90.538       21.940       38.033        0.119        0.008       46.538        2.820        0.004      343.059       18.905      858.671
09/13/2013  23:38:00      -35.076        5.401       -7.137       11.310       14.238        9.397      127.916      202.734       88.313        0.086        0.021       35.489        4.085        0.013      343.082       18.944      858.670
09/13/2013  23:39:00      -40.546        6.839       -9.235       14.079       14.881        7.337      198.218      221.450       53.838        0.112        0.024       41.119        8.254        0.040      343.054       18.896      858.671
09/13/2013  23:40:00      -29.154        3.307       -8.097       10.712       15.356        8.410      114.739      235.802       70.731        0.067        0.021       29.341        6.340        0.047      343.129       19.024      858.662
09/13/2013  23:41:00      -31.927       -7.294       -5.958       12.839        9.607        6.630      164.849       92.288       43.953        0.070        0.015       32.750        5.509        0.028      343.156       19.069      858.648
09/13/2013  23:42:00      -51.776       12.708       -7.047        8.990       13.079        8.625       80.822      171.049       74.396        0.161        0.016       53.313        6.429        0.015      343.073       18.928      858.641
09/13/2013  23:43:00      -18.618       19.170       -6.096       16.291       14.752        9.719      265.387      217.625       94.456        0.066        0.029       26.723        4.842        0.033      343.182       19.115      858.627
09/13/2013  23:44:00      -40.080      -17.194       -8.022       14.198       15.967        5.855      201.593      254.949       34.276        0.123        0.025       43.612        6.088        0.019      343.162       19.080      858.623
09/13/2013  23:45:00      -53.747      -20.945       -6.284       20.457       18.414       11.382      418.475      339.074      129.539        0.213        0.044       57.684        4.110        0.005      342.980       18.771      858.630
09/13/2013  23:46:00      -83.348      -26.051       -1.015       19.028       18.178       12.330      362.056      330.452      152.033        0.424        0.042       87.324        7.049        0.007      342.893       18.621      858.636
09/13/2013  23:47:00      -58.818      -23.789        2.755       21.179       20.280       12.062      448.542      411.276      145.486        0.252        0.050       63.446        9.397        0.022      342.885       18.610      858.641
09/13/2013  23:48:00      -61.998      -16.046       -1.149       22.708       14.558       12.747      515.662      211.950      162.484        0.250        0.045       64.041       12.177        0.036      342.941       18.705      858.653
09/13/2013  23:49:00      -67.216      -30.601      -10.584       17.508       11.561       11.392      306.531      133.655      129.779        0.307        0.028       73.854        6.418        0.008      342.943       18.706      858.658
09/13/2013  23:50:00      -37.757      -21.690       -1.141       30.346       16.992       15.727      920.861      288.727      247.335        0.168        0.073       43.544       12.203        0.079      342.874       18.590      858.654
09/13/2013  23:51:00      -52.931      -14.145       -8.309       10.714        9.903        7.286      114.782       98.060       53.080        0.167        0.013       54.788        5.903        0.012      342.906       18.646      858.656
09/13/2013  23:52:00      -51.281      -25.247      -12.406        7.875        8.401        4.864       62.022       70.584       23.660        0.179        0.008       57.159        2.743        0.002      342.906       18.643      858.662
09/13/2013  23:53:00      -63.339      -21.549      -11.429        6.465        7.619        4.202       41.790       58.055       17.653        0.236        0.006       66.904        2.271        0.001      342.936       18.696      858.664
09/13/2013  23:54:00      -66.511      -17.578      -11.048        6.917       10.853        5.251       47.841      117.788       27.578        0.252        0.010       68.795        6.225        0.008      342.985       18.777      858.669
09/13/2013  23:55:00      -49.742      -10.021       -3.437        8.338       12.095        4.910       69.518      146.295       24.112        0.141        0.012       50.741        3.559        0.005      343.034       18.860      858.672
09/13/2013  23:56:00      -55.156        4.511       -7.112       10.999        6.601        5.319      120.967       43.568       28.289        0.165        0.010       55.340        4.153        0.006      342.982       18.772      858.670
09/13/2013  23:57:00     -101.807       -6.452      -12.748       16.730       14.264        9.751      279.890      203.461       95.087        0.557        0.029      102.011        9.131        0.008      342.855       18.557      858.674
09/13/2013  23:58:00      -78.956      -27.038       -6.177       18.084       20.852       13.111      327.047      434.785      171.893        0.397        0.047       83.457        9.538        0.013      342.762       18.397      858.673
09/13/2013  23:59:00      -41.659      -30.833       -5.457       24.740       20.985       12.701      612.061      440.360      161.327        0.196        0.061       51.828        9.422        0.033      342.756       18.387      858.670
